[[{"header":{"parameterUnit":"m.s-1","parameterCategory":1,"la1":31.0,"la2":29.5877,"lo1":-88.7671,"lo2":-86.6584,"dy":0.0162,"dx":0.0185,"nx":115,"ny":88,"refTime":"2024-04-14T06:00:00:Z","depth":0,"parameterNumber":2,"parameterNumberName":"U-component_of_WINDS"},"data":[0.0,0.0,0.0,0.0,0.0,0.0,0.0,0.0,0.0,0.0,0.0,0.0,0.0,0.0,0.0,0.0,0.0,0.0,0.0,0.0,0.0,0.0,0.0,0.0,0.0,0.0,0.0,0.0,0.0,0.0,0.0,0.0,0.0,0.0,0.0,0.0,0.0,0.0,0.0,0.0,0.0,0.0,0.0,0.0,0.0,0.0,0.0,0.0,0.0,0.0,0.0,0.0,0.0,0.0,0.0,0.0,0.0,0.0,0.0,0.0,0.0,0.0,0.0,0.0,0.0,0.0,0.0,0.0,0.0,0.0,0.0,0.0,0.0,0.0,0.0,0.0,0.0,0.0,0.0,0.0,0.0,0.0,0.0,0.0,0.0,0.0,0.0,0.0,0.0,0.0,0.0,0.0,0.0,0.0,0.0,0.0,0.0,0.0,0.0,0.0,0.0,0.0,0.0,0.0,0.0,0.0,0.0,0.0,0.0,0.0,0.0,0.0,0.0,0.0,0.0,0.0,0.0,0.0,0.0,0.0,0.0,0.0,0.0,0.0,0.0,0.0,0.0,0.0,0.0,0.0,0.0,0.0,0.0,0.0,0.0,0.0,0.0,0.0,0.0,0.0,0.0,0.0,0.0,0.0,0.0,0.0,0.0,0.0,0.0,0.0,0.0,0.0,0.0,0.0,0.0,0.0,0.0,0.0,0.0,0.0,0.0,0.0,0.0,0.0,0.0,0.0,0.0,0.0,0.0,0.0,0.0,0.0,0.0,0.0,0.0,0.0,0.0,0.0,0.0,0.0,0.0,0.0,0.0,0.0,0.0,0.0,0.0,0.0,0.0,0.0,0.0,0.0,0.0,0.0,0.0,0.0,0.0,0.0,0.0,0.0,0.0,0.0,0.0,0.0,0.0,0.0,0.0,0.0,0.0,0.0,0.0,0.0,0.0,0.0,0.0,0.0,0.0,0.0,0.0,0.0,0.0,0.0,0.0,0.0,0.0,0.0,0.0,0.0,0.0,0.0,0.0,0.0,0.0,0.0,0.0,0.0,0.0,0.0,0.0,0.0,0.0,0.0,0.0,0.0,0.0,0.0,0.0,0.0,0.0,0.0,0.0,0.0,0.0,0.0,0.0,0.0,0.0,0.0,0.0,0.0,0.0,0.0,0.0,0.0,0.0,0.0,0.0,0.0,0.0,0.0,0.0,0.0,0.0,0.0,0.0,0.0,0.0,0.0,0.0,0.0,0.0,0.0,0.0,0.0,0.0,0.0,0.0,0.0,0.0,0.0,0.0,0.0,0.0,0.0,0.0,0.0,0.0,0.0,0.0,0.0,0.0,0.0,0.0,0.0,0.0,0.0,0.0,0.0,0.0,0.0,0.0,0.0,0.0,0.0,0.0,0.0,0.0,0.0,0.0,0.0,0.0,0.0,0.0,0.0,0.0,0.0,0.0,0.0,0.0,0.0,0.0,0.0,0.0,0.0,0.0,0.0,0.0,0.0,0.0,0.0,0.0,0.0,0.0,0.0,0.0,0.0,0.0,0.0,0.0,0.0,0.0,0.0,0.0,0.0,0.0,0.0,0.0,0.0,0.0,0.0,0.0,0.0,0.0,0.0,0.0,0.0,0.0,0.0,0.0,0.0,0.0,0.0,0.0,0.0,0.0,0.0,0.0,0.0,0.0,0.0,0.0,0.0,0.0,0.0,0.0,0.0,0.0,0.0,0.0,0.0,0.0,0.0,0.0,0.0,0.0,0.0,0.0,0.0,0.0,0.0,0.0,0.0,0.0,0.0,0.0,0.0,0.0,0.0,0.0,0.0,0.0,0.0,0.0,0.0,0.0,0.0,0.0,0.0,0.0,0.0,0.0,0.0,0.0,0.0,0.0,0.0,0.0,0.0,0.0,0.0,0.0,0.0,0.0,0.0,0.0,0.0,0.0,0.0,0.0,0.0,0.0,0.0,0.0,0.0,0.0,0.0,0.0,0.0,0.0,0.0,0.0,0.0,0.0,0.0,0.0,0.0,0.0,0.0,0.0,0.0,0.0,0.0,0.0,0.0,0.0,0.0,0.0,0.0,0.0,0.0,0.0,0.0,0.0,0.0,0.0,0.0,0.0,0.0,0.0,0.0,0.0,0.0,0.0,0.0,0.0,0.0,0.0,0.0,0.0,0.0,0.0,0.0,0.0,0.0,0.0,0.0,0.0,0.0,0.0,0.0,0.0,0.0,0.0,0.0,0.0,0.0,0.0,0.0,0.0,0.0,0.0,0.0,0.0,0.0,0.0,0.0,0.0,0.0,0.0,0.0,0.0,0.0,0.0,0.0,0.0,0.0,0.0,0.0,0.0,0.0,0.0,0.0,0.0,0.0,0.0,0.0,0.0,0.0,0.0,0.0,0.0,0.0,0.0,0.0,0.0,0.0,0.0,0.0,0.0,0.0,0.0,0.0,0.0,0.0,0.0,0.0,0.0,0.0,0.0,0.0,0.0,0.0,0.0,0.0,0.0,0.0,0.0,0.0,0.0,0.0,0.0,0.0,0.0,0.0,0.0,0.0,0.0,0.0,0.0,0.0,0.0,0.0,0.0,0.0,0.0,0.0,0.0,0.0,0.0,0.0,0.0,0.0,0.0,0.0,0.0,0.0,0.0,0.0,0.0,0.0,0.0,0.0,0.0,0.0,0.0,0.0,0.0,0.0,0.0,0.0,0.0,0.0,0.0,0.0,0.0,0.0,0.0,0.0,0.0,0.0,0.0,0.0,0.0,0.0,0.0,0.0,0.0,0.0,0.0,0.0,0.0,0.0,0.0,0.0,0.0,0.0,0.0,0.0,0.0,0.0,0.0,0.0,0.0,0.0,0.0,0.0,0.0,0.0,0.0,0.0,0.0,0.0,0.0,0.0,0.0,0.0,0.0,0.0,0.0,0.0,0.0,0.0,0.0,0.0,0.0,0.0,0.0,0.0,0.0,0.0,0.0,0.0,0.0,0.0,0.0,0.0,0.0,0.0,0.0,0.0,0.0,0.0,0.0,0.0,0.0,0.0,0.0,0.0,0.0,0.0,0.0,0.0,0.0,0.0,0.0,0.0,0.0,0.0,0.0,0.0,0.0,0.0,0.0,0.0,0.0,0.0,0.0,0.0,0.0,0.0,0.0,0.0,0.0,0.0,0.0,0.0,0.0,0.0,0.0,0.0,0.0,0.0,0.0,0.0,0.0,0.0,0.0,0.0,0.0,0.0,0.0,0.0,0.0,0.0,0.0,0.0,0.0,0.0,0.0,0.0,0.0,0.0,0.0,0.0,0.0,0.0,0.0,0.0,0.0,0.0,0.0,0.0,0.0,0.0,0.0,0.0,0.0,0.0,0.0,0.0,0.0,0.0,0.0,0.0,0.0,0.0,0.0,0.0,0.0,0.0,0.0,0.0,0.0,0.0,0.0,0.0,0.0,0.0,0.0,0.0,0.0,0.0,0.0,0.0,0.0,0.0,0.0,0.0,0.0,0.0,0.0,0.0,0.0,0.0,0.0,0.0,0.0,0.0,0.0,0.0,0.0,0.0,0.0,0.0,0.0,0.0,0.0,0.0,0.0,0.0,0.0,0.0,0.0,0.0,0.0,0.0,0.0,0.0,0.0,0.0,0.0,0.0,0.0,0.0,0.0,0.0,0.0,0.0,0.0,0.0,0.0,0.0,0.0,0.0,0.0,0.0,0.0,0.0,0.0,0.0,0.0,0.0,0.0,0.0,0.0,0.0,0.0,0.0,0.0,0.0,0.0,0.0,0.0,0.0,0.0,0.0,0.0,0.0,0.0,0.0,0.0,0.0,0.0,0.0,0.0,0.0,0.0,0.0,0.0,0.0,0.0,0.0,0.0,0.0,0.0,0.0,0.0,0.0,0.0,0.0,0.0,0.0,0.0,0.0,0.0,0.0,0.0,0.0,0.0,0.0,0.0,0.0,0.0,0.0,0.0,0.0,0.0,0.0,0.0,0.0,0.0,0.0,0.0,0.0,0.0,0.0,0.0,0.0,0.0,0.0,0.0,0.0,0.0,0.0,0.0,0.0,0.0,0.0,0.0,0.0,0.0,0.0,0.0,0.0,0.0,0.0,0.0,0.0,0.0,0.0,0.0,0.0,0.0,0.0,0.0,0.0,0.0,0.0,0.0,0.0,0.0,0.0,0.0,0.0,0.0,0.0,0.0,0.0,0.0,0.0,0.0,0.0,0.0,0.0,0.0,0.0,0.0,0.0,0.0,0.0,0.0,0.0,0.0,0.0,0.0,0.0,-6.591,0.0,0.0,0.0,0.0,0.0,0.0,0.0,0.0,0.0,0.0,0.0,0.0,0.0,0.0,0.0,0.0,0.0,0.0,0.0,0.0,0.0,0.0,0.0,0.0,0.0,0.0,0.0,0.0,0.0,0.0,0.0,0.0,0.0,0.0,0.0,0.0,0.0,0.0,0.0,0.0,0.0,0.0,0.0,0.0,0.0,0.0,0.0,0.0,0.0,0.0,0.0,0.0,0.0,0.0,0.0,0.0,0.0,0.0,0.0,0.0,0.0,0.0,0.0,0.0,0.0,0.0,0.0,0.0,0.0,0.0,0.0,0.0,0.0,0.0,0.0,0.0,0.0,0.0,0.0,0.0,0.0,0.0,0.0,0.0,0.0,0.0,0.0,0.0,0.0,0.0,0.0,0.0,0.0,0.0,0.0,0.0,0.0,0.0,0.0,0.0,0.0,0.0,0.0,0.0,0.0,0.0,0.0,0.0,0.0,0.0,-6.6009,-6.6005,-6.6005,-6.5974,-6.595,0.0,0.0,0.0,0.0,0.0,0.0,0.0,0.0,0.0,0.0,0.0,0.0,0.0,0.0,0.0,0.0,0.0,0.0,0.0,0.0,0.0,0.0,0.0,0.0,0.0,0.0,0.0,0.0,0.0,0.0,0.0,0.0,0.0,0.0,0.0,0.0,0.0,0.0,0.0,0.0,0.0,0.0,0.0,0.0,0.0,0.0,0.0,0.0,0.0,0.0,0.0,0.0,0.0,0.0,0.0,0.0,0.0,0.0,0.0,0.0,0.0,0.0,0.0,0.0,0.0,0.0,0.0,0.0,0.0,0.0,0.0,0.0,0.0,0.0,0.0,0.0,0.0,0.0,0.0,0.0,0.0,0.0,0.0,0.0,0.0,0.0,0.0,0.0,0.0,0.0,0.0,0.0,0.0,0.0,0.0,0.0,0.0,0.0,0.0,0.0,0.0,0.0,0.0,0.0,0.0,0.0,0.0,0.0,0.0,0.0,0.0,0.0,-6.6024,-6.6024,-6.6001,0.0,0.0,0.0,0.0,0.0,0.0,0.0,0.0,0.0,0.0,0.0,0.0,0.0,0.0,0.0,0.0,0.0,0.0,0.0,0.0,0.0,0.0,0.0,0.0,0.0,0.0,0.0,0.0,0.0,0.0,0.0,0.0,0.0,0.0,0.0,0.0,0.0,0.0,0.0,0.0,0.0,0.0,0.0,0.0,0.0,0.0,0.0,0.0,0.0,0.0,0.0,0.0,0.0,0.0,0.0,0.0,0.0,0.0,0.0,0.0,0.0,0.0,0.0,0.0,0.0,0.0,0.0,0.0,0.0,0.0,0.0,0.0,0.0,0.0,0.0,0.0,0.0,0.0,0.0,0.0,0.0,0.0,0.0,0.0,0.0,0.0,0.0,0.0,0.0,0.0,0.0,0.0,0.0,0.0,0.0,0.0,0.0,0.0,0.0,0.0,0.0,0.0,0.0,0.0,0.0,0.0,0.0,0.0,0.0,0.0,-6.6163,-6.6091,-6.6091,0.0,-6.6013,0.0,0.0,0.0,0.0,0.0,0.0,0.0,0.0,0.0,0.0,0.0,0.0,0.0,0.0,0.0,0.0,0.0,0.0,0.0,0.0,0.0,0.0,0.0,0.0,0.0,0.0,0.0,0.0,0.0,0.0,0.0,0.0,0.0,0.0,0.0,0.0,0.0,0.0,0.0,0.0,0.0,0.0,0.0,0.0,0.0,0.0,0.0,0.0,0.0,0.0,0.0,0.0,0.0,0.0,0.0,0.0,0.0,0.0,0.0,0.0,0.0,0.0,0.0,0.0,0.0,0.0,0.0,0.0,0.0,0.0,0.0,0.0,0.0,0.0,0.0,0.0,0.0,0.0,0.0,0.0,0.0,0.0,0.0,0.0,0.0,0.0,0.0,0.0,0.0,0.0,0.0,0.0,0.0,0.0,0.0,0.0,0.0,0.0,0.0,0.0,0.0,0.0,0.0,0.0,0.0,0.0,0.0,0.0,0.0,0.0,-6.6312,-6.6293,-6.6254,-6.6175,0.0,0.0,0.0,0.0,0.0,0.0,0.0,0.0,0.0,0.0,0.0,0.0,0.0,0.0,0.0,0.0,0.0,0.0,0.0,0.0,0.0,0.0,0.0,0.0,0.0,0.0,0.0,0.0,0.0,0.0,0.0,0.0,0.0,0.0,0.0,0.0,0.0,0.0,0.0,0.0,0.0,0.0,0.0,0.0,0.0,0.0,0.0,0.0,0.0,0.0,0.0,0.0,0.0,0.0,0.0,0.0,0.0,0.0,0.0,0.0,0.0,0.0,0.0,0.0,0.0,0.0,0.0,0.0,0.0,0.0,0.0,0.0,0.0,0.0,0.0,0.0,0.0,0.0,0.0,0.0,0.0,0.0,0.0,0.0,0.0,0.0,0.0,0.0,0.0,0.0,0.0,0.0,0.0,0.0,0.0,0.0,0.0,0.0,0.0,0.0,0.0,0.0,0.0,0.0,0.0,0.0,0.0,0.0,0.0,0.0,-6.6405,-6.6405,-6.6405,-6.6349,-6.6303,-6.6225,0.0,0.0,0.0,0.0,0.0,0.0,0.0,0.0,0.0,0.0,0.0,0.0,0.0,0.0,0.0,0.0,0.0,0.0,0.0,0.0,0.0,0.0,0.0,0.0,0.0,0.0,0.0,0.0,0.0,0.0,0.0,0.0,0.0,0.0,0.0,0.0,0.0,0.0,0.0,0.0,0.0,0.0,0.0,0.0,0.0,0.0,0.0,0.0,0.0,0.0,0.0,0.0,0.0,0.0,0.0,0.0,0.0,0.0,0.0,0.0,0.0,0.0,0.0,0.0,0.0,0.0,0.0,0.0,0.0,0.0,0.0,0.0,0.0,0.0,0.0,0.0,0.0,0.0,0.0,0.0,0.0,0.0,0.0,0.0,0.0,0.0,0.0,0.0,0.0,0.0,0.0,0.0,0.0,0.0,0.0,0.0,0.0,0.0,0.0,0.0,0.0,0.0,0.0,0.0,0.0,0.0,0.0,0.0,-6.6405,-6.6405,-6.6405,-6.6405,-6.6405,-6.6378,0.0,0.0,0.0,0.0,0.0,0.0,0.0,0.0,0.0,0.0,0.0,0.0,0.0,0.0,0.0,0.0,0.0,0.0,0.0,0.0,0.0,0.0,0.0,0.0,0.0,0.0,0.0,0.0,0.0,0.0,0.0,0.0,0.0,0.0,0.0,0.0,0.0,0.0,0.0,0.0,0.0,0.0,0.0,0.0,0.0,0.0,0.0,0.0,0.0,0.0,0.0,0.0,0.0,0.0,0.0,0.0,0.0,0.0,0.0,0.0,0.0,0.0,0.0,0.0,0.0,0.0,0.0,0.0,0.0,0.0,0.0,0.0,0.0,0.0,0.0,0.0,0.0,0.0,0.0,0.0,0.0,0.0,0.0,0.0,0.0,0.0,0.0,0.0,0.0,0.0,0.0,0.0,0.0,0.0,0.0,0.0,0.0,0.0,0.0,0.0,0.0,0.0,0.0,0.0,0.0,0.0,0.0,0.0,0.0,-6.6526,-6.6526,-6.6531,-6.6528,-6.6477,-6.6445,0.0,0.0,0.0,0.0,0.0,0.0,0.0,0.0,0.0,0.0,0.0,0.0,0.0,0.0,0.0,0.0,0.0,0.0,0.0,0.0,0.0,0.0,0.0,0.0,0.0,0.0,0.0,0.0,0.0,0.0,0.0,0.0,0.0,0.0,0.0,0.0,0.0,0.0,0.0,0.0,0.0,0.0,0.0,0.0,0.0,0.0,0.0,0.0,0.0,0.0,0.0,0.0,0.0,0.0,0.0,0.0,0.0,0.0,0.0,0.0,0.0,0.0,0.0,0.0,0.0,0.0,0.0,0.0,0.0,0.0,0.0,0.0,0.0,0.0,0.0,0.0,0.0,0.0,0.0,0.0,0.0,0.0,0.0,0.0,0.0,0.0,0.0,0.0,0.0,0.0,0.0,0.0,0.0,0.0,0.0,0.0,0.0,0.0,0.0,0.0,0.0,0.0,0.0,0.0,0.0,0.0,0.0,0.0,0.0,-6.5814,0.0,-6.5809,-6.5784,-6.5736,-6.5654,0.0,0.0,0.0,0.0,0.0,0.0,0.0,0.0,0.0,0.0,0.0,0.0,0.0,0.0,0.0,0.0,0.0,0.0,0.0,0.0,0.0,0.0,0.0,0.0,0.0,0.0,0.0,0.0,0.0,0.0,0.0,0.0,0.0,0.0,0.0,0.0,0.0,0.0,0.0,0.0,0.0,0.0,0.0,0.0,0.0,0.0,0.0,0.0,0.0,0.0,0.0,0.0,0.0,0.0,0.0,0.0,0.0,0.0,0.0,0.0,0.0,0.0,0.0,0.0,0.0,0.0,0.0,0.0,0.0,0.0,0.0,0.0,0.0,0.0,0.0,0.0,0.0,0.0,0.0,0.0,0.0,0.0,0.0,0.0,0.0,0.0,0.0,0.0,0.0,0.0,0.0,0.0,0.0,0.0,0.0,0.0,0.0,0.0,0.0,0.0,0.0,0.0,0.0,0.0,0.0,0.0,0.0,0.0,-6.4986,-6.4169,-6.4148,-6.4215,-6.4112,-6.4111,-6.4019,0.0,0.0,0.0,0.0,0.0,0.0,0.0,0.0,0.0,0.0,0.0,0.0,0.0,0.0,0.0,0.0,0.0,0.0,0.0,0.0,0.0,0.0,0.0,0.0,0.0,0.0,0.0,0.0,0.0,0.0,0.0,0.0,0.0,0.0,0.0,0.0,0.0,0.0,0.0,0.0,0.0,0.0,0.0,0.0,0.0,0.0,0.0,0.0,0.0,0.0,0.0,0.0,0.0,0.0,0.0,0.0,0.0,0.0,0.0,0.0,0.0,0.0,0.0,0.0,0.0,0.0,0.0,0.0,0.0,0.0,0.0,0.0,0.0,0.0,0.0,0.0,0.0,0.0,0.0,0.0,0.0,0.0,0.0,0.0,0.0,0.0,0.0,0.0,0.0,0.0,0.0,0.0,0.0,0.0,0.0,0.0,0.0,0.0,0.0,0.0,0.0,0.0,0.0,0.0,0.0,0.0,0.0,0.0,0.0,-6.4166,-6.4181,-6.414,-6.4111,-6.407,-6.4025,0.0,0.0,0.0,0.0,0.0,0.0,0.0,0.0,0.0,0.0,0.0,0.0,0.0,0.0,0.0,0.0,0.0,0.0,0.0,0.0,0.0,0.0,0.0,0.0,0.0,0.0,0.0,0.0,0.0,0.0,0.0,0.0,0.0,0.0,0.0,0.0,0.0,0.0,0.0,0.0,0.0,0.0,0.0,0.0,0.0,0.0,0.0,0.0,0.0,0.0,0.0,0.0,0.0,0.0,0.0,0.0,0.0,0.0,0.0,0.0,0.0,0.0,0.0,0.0,0.0,0.0,0.0,0.0,0.0,0.0,0.0,0.0,0.0,0.0,0.0,0.0,0.0,0.0,0.0,0.0,0.0,0.0,0.0,0.0,0.0,0.0,0.0,0.0,0.0,0.0,0.0,0.0,0.0,0.0,0.0,0.0,0.0,0.0,0.0,0.0,0.0,0.0,0.0,0.0,0.0,0.0,0.0,0.0,0.0,-6.3252,-6.3257,-6.324,-6.3214,-6.3185,-6.3141,-6.3105,0.0,0.0,0.0,0.0,0.0,0.0,0.0,0.0,0.0,0.0,0.0,0.0,0.0,0.0,0.0,0.0,0.0,0.0,0.0,0.0,0.0,0.0,0.0,0.0,0.0,0.0,0.0,0.0,0.0,0.0,0.0,0.0,0.0,0.0,0.0,0.0,0.0,0.0,0.0,0.0,0.0,0.0,0.0,0.0,0.0,0.0,0.0,0.0,0.0,0.0,0.0,0.0,0.0,0.0,0.0,0.0,0.0,0.0,0.0,0.0,0.0,0.0,0.0,0.0,0.0,0.0,0.0,0.0,0.0,0.0,0.0,0.0,0.0,0.0,0.0,0.0,0.0,0.0,0.0,0.0,0.0,0.0,0.0,0.0,0.0,0.0,0.0,0.0,0.0,0.0,0.0,0.0,0.0,0.0,0.0,0.0,0.0,0.0,0.0,0.0,0.0,0.0,0.0,0.0,0.0,0.0,0.0,0.0,-6.171,-6.1713,-6.174,-6.1737,-6.1658,-6.1612,0.0,0.0,0.0,0.0,0.0,0.0,0.0,0.0,0.0,0.0,0.0,0.0,0.0,0.0,0.0,0.0,0.0,0.0,0.0,0.0,0.0,0.0,0.0,0.0,0.0,0.0,0.0,0.0,0.0,0.0,0.0,0.0,0.0,0.0,0.0,0.0,0.0,0.0,0.0,0.0,0.0,0.0,0.0,0.0,0.0,0.0,0.0,0.0,0.0,0.0,0.0,0.0,0.0,0.0,0.0,0.0,0.0,0.0,0.0,0.0,0.0,0.0,0.0,0.0,0.0,0.0,0.0,0.0,0.0,0.0,0.0,0.0,0.0,0.0,0.0,0.0,0.0,0.0,0.0,0.0,0.0,0.0,0.0,0.0,0.0,0.0,0.0,0.0,0.0,0.0,0.0,0.0,0.0,0.0,0.0,0.0,0.0,0.0,0.0,0.0,0.0,0.0,0.0,0.0,0.0,0.0,0.0,0.0,0.0,-6.1698,-6.1714,-6.1704,-6.1701,-6.1685,-6.1654,0.0,0.0,0.0,0.0,0.0,0.0,0.0,0.0,0.0,0.0,0.0,0.0,0.0,0.0,0.0,0.0,0.0,0.0,0.0,0.0,0.0,0.0,0.0,0.0,0.0,0.0,0.0,0.0,0.0,0.0,0.0,0.0,0.0,0.0,0.0,0.0,0.0,0.0,0.0,0.0,0.0,0.0,0.0,0.0,0.0,0.0,0.0,0.0,0.0,0.0,0.0,0.0,0.0,0.0,0.0,0.0,0.0,0.0,0.0,0.0,0.0,0.0,0.0,0.0,0.0,0.0,0.0,0.0,0.0,0.0,0.0,0.0,0.0,0.0,0.0,0.0,0.0,0.0,0.0,0.0,0.0,0.0,0.0,0.0,0.0,0.0,0.0,0.0,0.0,0.0,0.0,0.0,0.0,0.0,0.0,0.0,0.0,0.0,0.0,0.0,0.0,0.0,0.0,0.0,0.0,0.0,0.0,0.0,-6.1699,-6.1699,-6.1699,-6.1715,-6.1701,-6.1707,-6.1685,0.0,0.0,0.0,0.0,0.0,0.0,0.0,0.0,0.0,0.0,0.0,0.0,0.0,0.0,0.0,0.0,0.0,0.0,0.0,0.0,0.0,0.0,0.0,0.0,0.0,0.0,0.0,0.0,0.0,0.0,0.0,0.0,0.0,0.0,0.0,0.0,0.0,0.0,0.0,0.0,0.0,0.0,0.0,0.0,0.0,0.0,0.0,0.0,0.0,0.0,0.0,0.0,0.0,0.0,0.0,0.0,0.0,0.0,0.0,0.0,0.0,0.0,0.0,0.0,0.0,0.0,0.0,0.0,0.0,0.0,0.0,0.0,0.0,0.0,0.0,0.0,0.0,0.0,0.0,0.0,0.0,0.0,0.0,0.0,0.0,0.0,0.0,0.0,0.0,0.0,0.0,0.0,0.0,0.0,0.0,0.0,0.0,0.0,0.0,0.0,0.0,0.0,0.0,0.0,0.0,0.0,0.0,0.0,-6.1699,-6.1699,-6.1699,-6.1699,-6.1717,-6.1701,-6.1703,0.0,0.0,0.0,0.0,0.0,0.0,0.0,0.0,0.0,0.0,0.0,0.0,0.0,0.0,0.0,0.0,0.0,0.0,0.0,0.0,0.0,0.0,0.0,0.0,0.0,0.0,0.0,0.0,0.0,0.0,0.0,0.0,0.0,0.0,0.0,0.0,0.0,0.0,0.0,0.0,0.0,0.0,0.0,0.0,0.0,0.0,0.0,0.0,0.0,0.0,0.0,0.0,0.0,0.0,0.0,0.0,0.0,0.0,0.0,0.0,0.0,0.0,0.0,0.0,0.0,0.0,0.0,0.0,0.0,0.0,0.0,0.0,0.0,0.0,0.0,0.0,0.0,0.0,0.0,0.0,0.0,0.0,0.0,0.0,0.0,0.0,0.0,0.0,0.0,0.0,0.0,0.0,0.0,0.0,0.0,0.0,0.0,0.0,0.0,0.0,0.0,0.0,0.0,0.0,0.0,0.0,0.0,0.0,-6.1699,-6.1699,-6.1699,-6.1699,-6.1699,-6.1716,-6.1705,0.0,0.0,0.0,0.0,0.0,0.0,0.0,0.0,0.0,0.0,0.0,0.0,0.0,0.0,0.0,0.0,0.0,0.0,0.0,0.0,0.0,0.0,0.0,0.0,0.0,0.0,0.0,0.0,0.0,0.0,0.0,0.0,0.0,0.0,0.0,0.0,0.0,0.0,0.0,0.0,0.0,0.0,0.0,0.0,0.0,0.0,0.0,0.0,-6.1618,0.0,0.0,0.0,0.0,0.0,0.0,0.0,0.0,0.0,0.0,0.0,0.0,0.0,0.0,0.0,0.0,0.0,0.0,0.0,0.0,0.0,0.0,0.0,0.0,0.0,0.0,0.0,0.0,0.0,0.0,0.0,0.0,0.0,0.0,0.0,0.0,0.0,0.0,0.0,0.0,0.0,0.0,0.0,0.0,0.0,0.0,0.0,0.0,0.0,0.0,0.0,0.0,0.0,0.0,0.0,0.0,0.0,0.0,0.0,-6.1716,-6.1716,-6.1698,-6.1699,-6.1699,-6.1699,-6.1714,0.0,0.0,0.0,0.0,0.0,0.0,0.0,0.0,0.0,0.0,0.0,0.0,0.0,0.0,0.0,0.0,0.0,0.0,0.0,0.0,0.0,0.0,0.0,0.0,0.0,0.0,0.0,0.0,0.0,0.0,0.0,0.0,0.0,0.0,0.0,0.0,0.0,0.0,0.0,0.0,0.0,0.0,0.0,0.0,0.0,0.0,0.0,0.0,0.0,0.0,0.0,0.0,0.0,0.0,0.0,0.0,0.0,0.0,0.0,0.0,0.0,0.0,0.0,0.0,0.0,0.0,0.0,0.0,0.0,0.0,0.0,0.0,0.0,0.0,0.0,0.0,0.0,0.0,0.0,0.0,0.0,0.0,0.0,0.0,0.0,0.0,0.0,0.0,0.0,0.0,0.0,0.0,0.0,0.0,0.0,0.0,0.0,0.0,0.0,0.0,0.0,0.0,0.0,0.0,0.0,0.0,0.0,-6.1711,-6.1709,-6.1709,-6.1577,-6.1501,-6.1501,-6.1386,-6.1289,-6.1301,0.0,0.0,0.0,0.0,0.0,0.0,0.0,0.0,0.0,0.0,0.0,0.0,0.0,0.0,0.0,0.0,0.0,0.0,0.0,0.0,0.0,0.0,0.0,0.0,0.0,0.0,0.0,0.0,0.0,0.0,0.0,0.0,0.0,0.0,0.0,0.0,0.0,0.0,-6.1308,-6.0655,0.0,0.0,0.0,0.0,0.0,0.0,0.0,0.0,-5.8986,0.0,0.0,0.0,0.0,0.0,0.0,0.0,0.0,0.0,0.0,0.0,0.0,0.0,0.0,0.0,0.0,0.0,0.0,0.0,0.0,0.0,0.0,0.0,0.0,0.0,0.0,0.0,0.0,0.0,0.0,0.0,0.0,0.0,0.0,0.0,0.0,0.0,0.0,0.0,0.0,0.0,0.0,0.0,0.0,0.0,0.0,0.0,0.0,0.0,0.0,0.0,0.0,0.0,0.0,0.0,0.0,-6.171,-6.1709,-6.1709,-6.169,-6.0988,-6.0598,-6.0598,-5.9916,-5.9529,-5.9589,0.0,0.0,0.0,0.0,0.0,0.0,0.0,0.0,0.0,0.0,0.0,0.0,0.0,0.0,0.0,0.0,0.0,0.0,0.0,0.0,0.0,0.0,0.0,0.0,0.0,0.0,0.0,0.0,0.0,0.0,0.0,0.0,0.0,0.0,0.0,0.0,0.0,0.0,0.0,-5.9397,-5.9299,0.0,0.0,0.0,0.0,0.0,0.0,0.0,0.0,-5.9015,0.0,0.0,0.0,0.0,0.0,0.0,0.0,0.0,0.0,0.0,0.0,0.0,0.0,0.0,0.0,0.0,0.0,0.0,0.0,0.0,0.0,0.0,0.0,0.0,0.0,0.0,0.0,0.0,0.0,0.0,0.0,0.0,0.0,0.0,0.0,0.0,0.0,0.0,0.0,0.0,0.0,0.0,0.0,0.0,0.0,0.0,0.0,0.0,0.0,0.0,0.0,0.0,0.0,0.0,0.0,-6.1053,-6.1028,-6.0811,-6.0362,-5.9939,-5.9729,-5.9733,-5.9326,-5.9115,0.0,0.0,0.0,0.0,0.0,0.0,0.0,0.0,0.0,0.0,0.0,0.0,0.0,0.0,0.0,0.0,0.0,0.0,0.0,0.0,0.0,0.0,0.0,0.0,0.0,0.0,0.0,0.0,0.0,0.0,0.0,0.0,0.0,0.0,0.0,0.0,0.0,0.0,0.0,0.0,-5.865,-5.8356,-5.8323,0.0,0.0,0.0,0.0,0.0,0.0,-5.7509,-5.7496,0.0,0.0,0.0,0.0,0.0,0.0,0.0,0.0,0.0,0.0,0.0,0.0,0.0,0.0,0.0,0.0,0.0,0.0,0.0,0.0,0.0,0.0,0.0,0.0,0.0,0.0,0.0,0.0,0.0,0.0,0.0,0.0,0.0,0.0,0.0,0.0,0.0,0.0,0.0,0.0,0.0,0.0,0.0,0.0,0.0,0.0,0.0,0.0,0.0,0.0,0.0,0.0,0.0,0.0,0.0,-6.0171,-6.0141,-5.9803,-5.9117,-5.8917,-5.8851,-5.884,-5.8691,-5.8578,0.0,0.0,0.0,0.0,0.0,0.0,0.0,0.0,0.0,0.0,0.0,0.0,0.0,0.0,0.0,0.0,0.0,0.0,0.0,0.0,0.0,0.0,0.0,0.0,0.0,0.0,0.0,0.0,0.0,0.0,0.0,0.0,0.0,0.0,0.0,0.0,0.0,0.0,0.0,0.0,0.0,-5.743,-5.7405,-5.6747,0.0,0.0,0.0,0.0,-5.6197,-5.616,0.0,0.0,0.0,0.0,0.0,0.0,0.0,0.0,0.0,0.0,0.0,0.0,0.0,0.0,0.0,0.0,0.0,0.0,0.0,0.0,0.0,0.0,0.0,0.0,0.0,0.0,0.0,0.0,0.0,0.0,0.0,0.0,0.0,0.0,0.0,0.0,0.0,0.0,0.0,0.0,0.0,0.0,0.0,0.0,0.0,0.0,0.0,0.0,0.0,0.0,0.0,0.0,0.0,0.0,0.0,0.0,-5.9281,-5.9258,-5.9199,-5.9082,-5.8364,-5.7957,-5.7938,-5.7197,-5.6801,0.0,0.0,0.0,0.0,0.0,0.0,0.0,0.0,0.0,0.0,0.0,0.0,0.0,0.0,0.0,0.0,0.0,0.0,0.0,0.0,0.0,0.0,0.0,0.0,0.0,0.0,0.0,0.0,0.0,0.0,0.0,0.0,0.0,0.0,0.0,0.0,0.0,0.0,0.0,0.0,0.0,-5.6463,-5.6453,-5.6337,-5.6218,0.0,0.0,-5.6114,-5.6114,-5.6054,0.0,0.0,0.0,0.0,0.0,0.0,0.0,0.0,0.0,0.0,0.0,0.0,0.0,0.0,0.0,0.0,0.0,0.0,0.0,0.0,0.0,0.0,0.0,0.0,0.0,0.0,0.0,0.0,0.0,0.0,0.0,0.0,0.0,0.0,0.0,0.0,0.0,0.0,0.0,0.0,0.0,0.0,0.0,0.0,0.0,0.0,0.0,0.0,0.0,0.0,0.0,0.0,0.0,0.0,0.0,-5.9174,-5.8347,-5.8308,-5.8074,-5.7587,-5.7197,-5.7014,-5.7053,-5.6682,-5.6501,0.0,0.0,0.0,0.0,0.0,0.0,0.0,0.0,0.0,0.0,0.0,0.0,0.0,0.0,0.0,0.0,0.0,0.0,0.0,0.0,0.0,0.0,0.0,0.0,0.0,0.0,0.0,0.0,0.0,0.0,0.0,0.0,0.0,0.0,0.0,0.0,0.0,0.0,0.0,0.0,0.0,0.0,-5.619,-5.6126,0.0,0.0,0.0,-5.5998,-5.5979,0.0,0.0,0.0,0.0,0.0,0.0,0.0,0.0,0.0,0.0,0.0,0.0,0.0,0.0,0.0,0.0,0.0,0.0,0.0,0.0,0.0,0.0,0.0,0.0,0.0,0.0,0.0,0.0,0.0,0.0,0.0,0.0,0.0,0.0,0.0,0.0,0.0,0.0,0.0,0.0,0.0,0.0,0.0,0.0,0.0,0.0,0.0,0.0,0.0,0.0,0.0,0.0,0.0,0.0,0.0,0.0,0.0,-5.7385,-5.7132,-5.6699,-5.6071,-5.5843,-5.577,-5.5821,-5.5825,0.0,0.0,0.0,0.0,0.0,0.0,0.0,0.0,0.0,0.0,0.0,0.0,0.0,0.0,0.0,0.0,0.0,0.0,0.0,0.0,0.0,0.0,0.0,0.0,0.0,0.0,0.0,-5.6581,0.0,0.0,0.0,0.0,0.0,0.0,0.0,0.0,0.0,0.0,0.0,0.0,0.0,0.0,-5.5494,-5.5443,-5.5365,-5.5293,0.0,0.0,-5.519,-5.519,-5.5392,-5.5517,0.0,0.0,0.0,0.0,0.0,0.0,0.0,0.0,0.0,0.0,0.0,0.0,0.0,0.0,0.0,0.0,0.0,0.0,0.0,0.0,0.0,0.0,0.0,0.0,0.0,0.0,0.0,0.0,0.0,0.0,0.0,0.0,0.0,0.0,0.0,0.0,0.0,0.0,0.0,0.0,0.0,0.0,0.0,0.0,0.0,0.0,0.0,0.0,0.0,0.0,0.0,0.0,0.0,0.0,0.0,-5.6411,-5.5594,-5.5174,-5.5086,-5.4358,-5.3986,-5.3991,-5.3993,-5.4363,0.0,0.0,0.0,0.0,0.0,0.0,0.0,0.0,0.0,0.0,0.0,0.0,0.0,0.0,0.0,0.0,0.0,0.0,0.0,0.0,0.0,0.0,0.0,0.0,0.0,0.0,0.0,0.0,0.0,0.0,0.0,0.0,0.0,0.0,0.0,0.0,0.0,0.0,0.0,0.0,0.0,-5.3652,-5.3591,-5.3531,-5.3466,0.0,0.0,-5.3294,-5.3294,-5.3923,-5.443,-5.4504,0.0,0.0,0.0,0.0,0.0,0.0,0.0,0.0,0.0,0.0,0.0,0.0,0.0,0.0,0.0,0.0,0.0,0.0,0.0,0.0,0.0,0.0,0.0,0.0,0.0,0.0,0.0,0.0,0.0,0.0,0.0,0.0,0.0,0.0,0.0,0.0,0.0,0.0,0.0,0.0,0.0,0.0,0.0,0.0,0.0,0.0,0.0,0.0,0.0,0.0,0.0,0.0,0.0,-5.5786,-5.5436,-5.4582,-5.4136,-5.4142,-5.3825,-5.3702,-5.3747,-5.374,-5.3899,0.0,0.0,0.0,0.0,0.0,0.0,0.0,0.0,0.0,0.0,0.0,0.0,0.0,0.0,0.0,0.0,0.0,0.0,0.0,0.0,0.0,0.0,0.0,0.0,0.0,0.0,0.0,0.0,-5.6484,-5.6452,-5.637,0.0,0.0,0.0,0.0,0.0,0.0,0.0,0.0,0.0,0.0,-5.3899,-5.3301,-5.3204,0.0,0.0,-5.3015,-5.3161,-5.3644,-5.3984,-5.4374,-5.4865,-5.5246,0.0,0.0,0.0,0.0,0.0,0.0,0.0,0.0,0.0,0.0,0.0,0.0,0.0,0.0,0.0,0.0,0.0,0.0,0.0,0.0,0.0,0.0,0.0,0.0,0.0,0.0,0.0,0.0,0.0,0.0,0.0,0.0,0.0,0.0,0.0,0.0,0.0,0.0,0.0,0.0,0.0,0.0,0.0,0.0,0.0,0.0,0.0,0.0,0.0,0.0,0.0,0.0,-5.4767,-5.4483,-5.3611,-5.3177,-5.3154,-5.2925,-5.2812,-5.2859,-5.2899,-5.3055,0.0,0.0,0.0,0.0,0.0,0.0,0.0,0.0,0.0,0.0,0.0,0.0,0.0,0.0,0.0,0.0,0.0,0.0,0.0,0.0,0.0,0.0,0.0,0.0,0.0,0.0,0.0,0.0,-5.6469,-5.6412,-5.6311,0.0,0.0,0.0,0.0,0.0,0.0,0.0,0.0,0.0,0.0,-5.3413,-5.2741,-5.2409,-5.2211,-5.21,-5.2076,-5.2263,-5.2825,-5.3321,-5.3824,-5.4403,0.0,0.0,0.0,0.0,0.0,0.0,0.0,0.0,0.0,0.0,0.0,0.0,0.0,0.0,0.0,0.0,0.0,0.0,0.0,0.0,0.0,0.0,0.0,0.0,0.0,0.0,0.0,-6.1503,0.0,0.0,-6.1509,0.0,0.0,0.0,0.0,0.0,0.0,0.0,0.0,0.0,0.0,0.0,0.0,0.0,0.0,0.0,0.0,0.0,0.0,0.0,0.0,0.0,0.0,-5.4417,-5.3525,-5.2674,-5.2189,-5.2131,-5.1369,-5.1022,-5.1022,-5.1097,-5.1546,-5.2348,0.0,0.0,0.0,0.0,0.0,0.0,0.0,0.0,0.0,0.0,0.0,0.0,0.0,0.0,0.0,0.0,0.0,0.0,0.0,0.0,0.0,0.0,0.0,0.0,0.0,0.0,-5.637,-5.6324,-5.6257,0.0,0.0,0.0,0.0,0.0,0.0,0.0,0.0,0.0,0.0,-5.2872,-5.1743,-5.1668,-5.0856,-5.0333,-5.0314,-5.0221,-5.0203,-5.0266,-5.1592,-5.2633,0.0,0.0,0.0,0.0,0.0,0.0,0.0,0.0,0.0,0.0,0.0,0.0,0.0,0.0,0.0,0.0,0.0,0.0,0.0,0.0,0.0,0.0,0.0,0.0,0.0,0.0,0.0,-6.1329,-6.1364,0.0,0.0,0.0,0.0,0.0,0.0,0.0,0.0,0.0,0.0,0.0,-5.9117,-5.8302,0.0,0.0,0.0,0.0,0.0,0.0,0.0,0.0,0.0,0.0,0.0,0.0,-5.2887,-5.2563,-5.1713,-5.126,-5.1226,-5.0982,-5.0825,-5.0844,-5.0869,-5.1315,-5.221,0.0,0.0,0.0,0.0,0.0,0.0,0.0,0.0,0.0,0.0,0.0,0.0,0.0,0.0,0.0,0.0,0.0,0.0,0.0,0.0,0.0,0.0,0.0,0.0,0.0,-5.611,0.0,0.0,0.0,0.0,0.0,0.0,0.0,0.0,0.0,0.0,0.0,-5.4054,-5.3422,-5.2784,-5.2125,-5.1491,-5.064,-5.0025,0.0,0.0,0.0,0.0,0.0,0.0,0.0,0.0,0.0,0.0,0.0,0.0,0.0,0.0,-5.3632,-5.4876,-5.5038,-5.5,-5.4981,0.0,0.0,0.0,0.0,0.0,0.0,0.0,0.0,0.0,0.0,0.0,0.0,0.0,0.0,-6.1199,0.0,-6.1259,0.0,0.0,0.0,0.0,0.0,0.0,0.0,0.0,-5.8095,-5.7812,-5.7705,-5.6571,-5.573,0.0,-5.4597,-5.4904,0.0,0.0,0.0,0.0,0.0,0.0,0.0,0.0,-5.195,-5.1604,-5.1064,-5.0766,-5.0767,-5.0747,-5.0775,-5.0775,-5.0793,-5.1213,-5.2142,-5.221,-5.267,0.0,0.0,0.0,0.0,0.0,0.0,0.0,0.0,0.0,0.0,0.0,0.0,0.0,0.0,0.0,0.0,0.0,0.0,0.0,0.0,0.0,0.0,0.0,-5.5093,0.0,0.0,0.0,0.0,0.0,0.0,0.0,0.0,0.0,-5.2971,-5.343,-5.3439,-5.2787,-5.2405,-5.1933,-5.128,0.0,0.0,0.0,0.0,0.0,0.0,0.0,-5.1043,-5.1593,-5.1944,-5.2145,-5.2164,-5.2179,-5.2164,-5.2083,0.0,0.0,-5.3792,-5.3981,-5.3974,-5.3955,-5.391,-5.3883,-5.3821,-5.3305,-5.2862,0.0,0.0,0.0,0.0,0.0,0.0,0.0,0.0,-6.0905,-6.0916,0.0,-6.1019,0.0,0.0,0.0,0.0,0.0,-5.8477,0.0,0.0,-5.6657,-5.5917,-5.5796,-5.4211,-5.3393,-5.3348,-5.3367,-5.331,-5.3252,-5.3297,0.0,0.0,0.0,0.0,0.0,0.0,-5.1595,-5.0759,-5.0692,-5.0692,-5.0693,-5.0692,-5.0692,-5.0692,-5.0738,-5.1169,-5.1989,-5.2013,-5.247,-5.3362,-5.3422,0.0,0.0,0.0,0.0,0.0,0.0,0.0,0.0,0.0,0.0,0.0,0.0,0.0,0.0,0.0,0.0,0.0,0.0,0.0,0.0,-5.4096,0.0,0.0,0.0,0.0,0.0,0.0,0.0,0.0,0.0,0.0,-5.2308,-5.2602,-5.259,-5.2458,0.0,0.0,0.0,0.0,-4.9692,-4.9697,-4.9697,-4.9648,-4.9593,-5.0236,-5.0695,-5.067,0.0,0.0,-5.1797,-5.1797,-5.1759,-5.1815,-5.1694,-5.1804,-5.2023,-5.2201,-5.2258,-5.2258,-5.2296,-5.2155,-5.1957,-5.1966,-5.1823,-5.6975,0.0,0.0,0.0,0.0,-5.9978,-5.9999,-5.9963,-5.9387,-5.9147,-5.9176,-5.9177,0.0,0.0,0.0,0.0,0.0,0.0,-5.5439,-5.4898,-5.4312,-5.4091,-5.4072,-5.3514,-5.2965,-5.2396,-5.2348,-5.2002,-5.1471,-5.1462,-5.2116,-5.3367,0.0,0.0,0.0,0.0,-5.0981,-5.0712,-5.0693,-5.0683,-5.0693,-5.0663,-5.0595,-5.0554,-5.0575,-5.071,-5.1038,-5.102,-5.1163,-5.1497,-5.2163,0.0,0.0,0.0,0.0,0.0,0.0,0.0,0.0,0.0,0.0,0.0,0.0,0.0,0.0,0.0,0.0,0.0,0.0,0.0,-5.3855,-5.2554,-5.1617,0.0,0.0,0.0,0.0,0.0,0.0,0.0,0.0,0.0,-4.891,-5.048,-5.1527,0.0,0.0,-5.0929,-5.0813,-5.0052,-4.9464,-4.9355,-4.934,0.0,-4.9327,-4.9514,-4.9629,-4.9632,-4.9802,-4.9968,-4.9987,-4.9987,-4.9968,-5.0006,-4.9954,-4.9971,-5.0092,-5.108,-5.1755,-5.1849,-5.1849,-5.1832,-5.1744,-5.1297,-5.0833,-5.4454,-5.6083,-5.7337,-5.7865,-5.7912,-5.7977,-5.8,-5.7981,-5.7505,-5.7296,-5.7296,-5.7298,-5.7116,-5.6788,-5.6481,0.0,0.0,0.0,-5.3735,-5.3273,-5.2896,-5.2702,-5.2683,-5.2315,-5.1873,-5.1423,-5.1374,-5.1105,-5.0625,-5.0624,-5.1163,-5.2204,0.0,0.0,-5.1482,-5.0933,-5.0653,-5.0634,-5.0297,-5.0115,-5.0115,-4.9748,-4.9534,-4.9503,-4.9503,-4.9524,-4.9555,-4.9566,-4.9596,-4.9625,-5.018,-5.0494,0.0,0.0,0.0,0.0,0.0,0.0,0.0,0.0,0.0,0.0,0.0,-5.365,-5.3611,0.0,0.0,0.0,-5.2369,-5.1766,-5.1368,-5.0387,0.0,0.0,0.0,0.0,0.0,0.0,0.0,-4.7596,-4.746,-4.7345,-4.7311,-4.8555,-4.9584,-4.9847,-5.0124,-5.0259,-5.014,0.0,-4.9273,-4.9211,-4.9197,-4.9197,-4.9166,-4.9148,-4.9131,-4.9079,-4.9098,-4.9079,-4.9079,-4.9079,-4.9079,-4.9079,-4.9079,-4.9079,-4.9079,-4.9918,-5.0622,-5.0692,-5.0708,-5.0802,-5.105,-5.0696,-5.0437,-5.2311,-5.2525,-5.4295,-5.5159,-5.5394,-5.5442,-5.5466,-5.5466,-5.5389,-5.537,-5.5362,-5.5381,-5.4962,-5.4233,-5.3441,0.0,-5.3087,-5.2958,-5.2888,-5.2858,-5.2037,-5.167,-5.1639,-5.0843,-5.0478,-5.0478,-5.0459,-5.047,-5.0481,-5.0481,-5.0462,-5.0415,-5.0518,-5.0587,-5.0577,-5.0508,-5.0458,-5.0381,-4.9534,-4.9092,-4.9081,-4.8362,-4.7968,-4.7968,-4.7968,-4.7987,-4.7987,-4.7997,-4.7989,-4.7981,-4.7991,-4.8039,-4.8169,0.0,0.0,0.0,0.0,0.0,0.0,0.0,0.0,0.0,0.0,0.0,0.0,0.0,0.0,0.0,-5.0321,0.0,-4.8246,-4.7991,0.0,0.0,0.0,-4.7641,-4.748,-4.7403,-4.7326,-4.7188,0.0,0.0,-4.6911,-4.6882,-4.7181,-4.7977,-4.8765,-4.9262,-4.9195,-4.9216,-4.9197,-4.9181,-4.9162,-4.9129,-4.9083,-4.9066,-4.9049,-4.8943,-4.889,-4.8909,-4.8926,-4.8926,-4.889,-4.889,-4.889,-4.889,-4.889,-4.9056,-4.9053,-4.9353,-4.9349,-4.954,-5.0312,-5.0481,-5.065,-5.0378,-5.0445,-5.0935,-5.2357,-5.4268,-5.4352,-5.4378,-5.4333,-5.3733,-5.347,-5.347,-5.3444,-5.3403,-5.3207,-5.2414,-5.2083,-5.2107,-5.1434,-5.1094,-5.102,-5.0773,-5.0631,-5.0565,-5.0295,-5.0212,-5.0259,-5.0278,-5.0306,-5.0424,-5.0424,-5.0112,-4.9533,-4.9545,-4.9555,-4.9555,-4.9534,-4.9246,-4.8622,-4.8401,-4.8245,-4.8122,-4.7906,-4.7728,-4.7682,-4.7682,-4.7701,-4.7682,-4.7791,-4.7846,-4.7856,-4.794,-4.8009,-4.8048,-4.8039,0.0,0.0,0.0,0.0,0.0,0.0,0.0,0.0,0.0,-4.9575,-4.9539,0.0,-4.9153,0.0,-4.8662,-4.826,-4.7979,-4.7336,0.0,0.0,-4.6205,-4.5715,-4.5587,-4.5507,-4.542,-4.5343,-4.5248,-4.5153,-4.5143,-4.5536,-4.6143,-4.6884,-4.7753,-4.852,-4.9003,-4.9116,-4.9101,-4.8995,-4.8978,-4.896,-4.8943,-4.8943,-4.8962,-4.889,-4.889,-4.889,-4.889,-4.889,-4.889,-4.889,-4.889,-4.889,-4.889,-4.9373,-4.9781,-4.9872,-4.9889,-5.0132,-5.0951,-5.1137,-5.1174,-4.9615,-4.9692,-4.9736,-5.0629,-5.2025,-5.2134,-5.2169,-5.215,-5.1694,-5.1523,-5.1548,-5.1592,-5.1617,-5.1634,-5.1183,-5.1016,-5.1013,-5.0535,-5.0302,-5.0255,-5.0231,-5.0182,-5.0101,-5.0063,-5.0082,-5.0101,-5.012,-4.9979,-4.9751,-4.9732,-4.9297,-4.8501,-4.8501,-4.831,-4.7985,-4.8365,-4.8367,-4.7926,-4.7491,-4.7073,-4.6606,-4.6553,-4.6538,-4.6484,-4.6484,-4.6484,-4.6484,-4.6553,-4.6587,-4.6587,-4.6661,-4.6734,-4.6755,-4.6748,-4.6789,0.0,0.0,0.0,0.0,0.0,0.0,0.0,0.0,0.0,0.0,0.0,-4.7394,-4.6992,-4.6839,-4.6729,-4.6713,-4.6211,-4.5859,-4.5795,-4.5307,-4.4919,-4.4827,-4.4764,-4.4685,-4.4619,-4.451,-4.4426,-4.4435,-4.4707,-4.5363,-4.6438,-4.7013,-4.7742,-4.8753,-4.8996,-4.8998,-4.8909,-4.889,-4.889,-4.889,-4.889,-4.889,-4.889,-4.889,-4.889,-4.889,-4.889,-4.889,-4.889,-4.889,-4.889,-4.8927,-4.954,-5.019,-5.0636,-5.0971,-5.1379,-5.1825,-5.1936,-5.2011,-4.9461,-4.9634,-4.9634,-4.9634,-4.9648,-4.9741,-4.9843,-4.9885,-4.9885,-4.9912,-4.9965,-5.0031,-5.0057,-5.0057,-5.0057,-5.007,-5.0063,-5.0082,-5.007,-5.0057,-5.0057,-5.0031,-4.9965,-4.9965,-4.9889,-4.9794,-4.9794,-4.9435,-4.87,-4.8681,-4.8256,-4.745,-4.7412,-4.7013,-4.629,-4.7011,-4.7422,-4.7433,-4.6614,-4.5841,-4.5087,-4.5038,-4.5057,-4.5057,-4.5038,-4.5057,-4.5038,-4.5068,-4.5068,-4.5068,-4.508,-4.5114,-4.517,-4.517,-4.5243,0.0,-4.5359,0.0,0.0,0.0,0.0,0.0,0.0,0.0,0.0,-4.7012,-4.6254,-4.5435,-4.5254,-4.517,-4.5167,-4.5038,-4.4943,-4.4889,-4.4808,-4.4751,-4.4685,-4.4619,-4.4537,-4.4468,-4.4416,-4.4358,-4.43,-4.4229,-4.4799,-4.6257,-4.6562,-4.7198,-4.8556,-4.889,-4.8909,-4.889,-4.889,-4.889,-4.889,-4.889,-4.889,-4.889,-4.889,-4.889,-4.889,-4.889,-4.889,-4.889,-4.889,-4.889,-4.889,-4.9559,-5.0376,-5.1138,-5.19,-5.2494,-5.2698,-5.2754,-5.2976,-4.9279,-4.9292,-4.9311,-4.9292,-4.9292,-4.9324,-4.9495,-4.9736,-4.975,-4.9731,-4.9764,-4.9778,-4.9807,-4.9843,-4.9862,-4.9903,-4.9952,-4.9939,-4.9912,-4.9862,-4.9843,-4.9821,-4.9764,-4.9764,-4.9386,-4.873,-4.8711,-4.8318,-4.7604,-4.7604,-4.7213,-4.6468,-4.6461,-4.6031,-4.5235,0.0,0.0,0.0,-4.529,-4.5078,-4.4865,-4.4815,-4.4789,-4.4789,-4.477,0.0,-4.4789,-4.4821,-4.4846,-4.4846,-4.4907,0.0,0.0,0.0,0.0,0.0,0.0,0.0,0.0,0.0,0.0,0.0,-4.5478,-4.5685,-4.5807,-4.5613,-4.5385,-4.5091,-4.5068,-4.4991,-4.4883,-4.4865,-4.4827,-4.4732,-4.4685,-4.4605,-4.4537,-4.4468,-4.4397,-4.4344,-4.427,-4.4229,-4.4214,-4.4101,-4.4687,-4.6192,-4.651,-4.7163,-4.8649,-4.8872,-4.889,-4.889,-4.889,-4.889,-4.889,-4.889,-4.8873,-4.889,-4.889,-4.889,-4.8873,-4.8891,-4.8909,-4.8873,-4.889,-4.8873,-4.8909,-4.9559,-5.0322,-5.1065,-5.188,-5.2659,-5.3404,-5.3513,-5.3529,-4.9164,0.0,-4.9197,-4.9197,0.0,-4.9197,-4.9292,-4.9468,-4.9468,-4.948,-4.9555,-4.9663,-4.9721,-4.975,-4.975,-4.9778,-4.9788,-4.9778,-4.9736,-4.9692,-4.963,-4.9344,-4.8908,-4.8908,-4.8476,-4.7686,-4.7667,-4.7264,-4.6524,-4.6501,-4.6118,-4.5353,-4.5353,-4.5127,-4.4712,-4.4672,-4.4725,-4.4846,-4.4802,-4.4751,-4.4693,-4.4632,-4.4592,-4.4592,-4.4592,0.0,0.0,0.0,0.0,0.0,0.0,0.0,0.0,-4.4865,0.0,-4.4943,-4.4962,-4.4955,-4.4991,-4.4991,-4.4979,-4.4943,-4.4919,-4.4986,-4.5148,-4.5068,-4.4986,-4.4907,-4.487,-4.484,-4.4745,-4.4699,-4.4632,-4.4605,-4.451,-4.4426,-4.4416,-4.4373,-4.4329,-4.4255,-4.4214,-4.4184,-4.4119,-4.4055,-4.4506,-4.5695,-4.6271,-4.694,-4.8073,-4.8667,-4.889,-4.889,-4.889,-4.889,-4.8891,-4.8856,-4.8839,-4.8839,-4.8785,-4.8767,-4.8731,-4.875,-4.875,-4.875,-4.875,-4.875,-4.8824,-4.9434,-5.0139,-5.0565,-5.1526,-5.2414,-5.299,-5.3341,-5.3598,-4.9047,-4.9096,-4.9131,-4.9148,-4.9131,-4.9129,-4.9146,-4.9146,0.0,0.0,0.0,-4.954,-4.9619,-4.9619,-4.9619,-4.9619,-4.9585,-4.9525,-4.9529,-4.9514,-4.9418,-4.8906,-4.8109,-4.8091,-4.7585,-4.6686,-4.6649,-4.6229,-4.5467,-4.5462,-4.511,-4.4529,-4.4473,-4.4458,-4.4473,-4.4473,-4.451,-4.4632,-4.4592,-4.4551,-4.4537,-4.4482,-4.4473,-4.4454,-4.4473,-4.4473,-4.4491,-4.4454,-4.4482,-4.4537,-4.4537,-4.4578,-4.4646,-4.464,-4.4685,-4.4751,-4.4764,-4.4802,-4.4852,-4.4877,-4.4833,-4.4802,-4.4725,-4.4751,-4.4931,-4.4865,-4.4776,-4.4745,-4.4699,-4.4659,-4.4613,-4.4524,-4.4473,-4.4473,-4.4391,-4.43,-4.427,-4.4285,-4.4259,-4.4184,-4.4169,-4.4119,-4.4039,-4.4005,-4.4321,-4.5194,-4.6011,-4.6867,-4.7722,-4.8501,-4.8891,-4.8874,-4.8874,-4.8874,-4.8856,-4.8804,-4.8769,-4.875,-4.8678,-4.8605,-4.8587,-4.8587,-4.8587,-4.8587,-4.8587,-4.8587,-4.8661,-4.9141,-4.9714,-4.9843,-5.0857,-5.1852,-5.2017,-5.2605,-5.3177,-4.8696,-4.8678,-4.8804,-4.8857,-4.8857,-4.8909,-4.8943,-4.8942,-4.9113,-4.9214,-4.9246,-4.9244,-4.926,-4.9279,-4.926,-4.926,-4.926,-4.9262,-4.9262,-4.9244,-4.9246,-4.8798,-4.8015,-4.7996,-4.7211,-4.5791,-4.5716,-4.5286,-4.4572,-4.4516,-4.4423,-4.4329,-4.4329,-4.4329,-4.4329,-4.4329,-4.4344,-4.4358,-4.4397,-4.4397,-4.4344,-4.4329,-4.4329,-4.4329,-4.4329,-4.4329,-4.4329,-4.4329,-4.4329,-4.4344,-4.4344,-4.4387,-4.444,-4.444,-4.4468,-4.4556,-4.4611,-4.4632,-4.4646,-4.4699,-4.4719,-4.4712,-4.4592,-4.4592,-4.4738,-4.4719,-4.4672,-4.4551,-4.4524,-4.4487,-4.4373,-4.4325,-4.4329,-4.4329,-4.4314,-4.427,-4.4195,-4.4214,-4.4165,-4.4036,-4.402,-4.4039,-4.4023,-4.4005,-4.4302,-4.5157,-4.5937,-4.6981,-4.8227,-4.8782,-4.8874,-4.884,-4.8804,-4.8769,-4.8696,-4.8641,-4.8642,-4.8623,-4.8605,-4.8569,-4.8569,-4.8569,-4.8569,-4.8587,-4.8569,-4.8587,-4.8605,-4.8679,-4.9049,-4.949,-4.9947,-5.0236,-5.0762,-5.1467,-5.2215,-4.8587,-4.8605,-4.866,-4.8678,-4.8697,-4.8732,-4.875,-4.8731,-4.8819,-4.8978,-4.915,-4.9181,-4.9181,-4.9077,-4.9094,-4.9061,-4.9029,-4.8995,-4.8996,-4.896,-4.8909,-4.8204,-4.7107,-4.7014,-4.6162,-4.4658,-4.4583,-4.4379,-4.4063,-4.4045,-4.4045,-4.4026,-4.4026,-4.4026,-4.4026,-4.4026,-4.4026,-4.4045,-4.4131,-4.4158,-4.4128,-4.4073,-4.4045,-4.4026,-4.4026,-4.4026,-4.4026,-4.4026,-4.4042,-4.407,-4.4089,-4.4116,-4.4173,-4.4199,-4.4262,-4.4273,-4.4383,-4.4426,-4.4426,-4.4454,-4.4482,-4.4482,-4.443,-4.4416,-4.4468,-4.4482,-4.4473,-4.4401,-4.4387,-4.4373,-4.43,-4.4255,-4.4244,-4.4244,-4.4195,-4.4131,-4.4085,-4.4085,-4.407,-4.4005,-4.4005,-4.4005,-4.4005,-4.4005,-4.4098,-4.4655,-4.5588,-4.6986,-4.8509,-4.875,-4.8732,-4.8715,-4.8678,-4.866,-4.8605,-4.8569,-4.855,-4.855,-4.8476,-4.8458,-4.842,-4.8458,-4.842,-4.842,-4.8439,-4.8439,-4.8458,-4.8439,-4.8585,-4.8766,-4.9276,-4.9581,-4.9919,-5.0706,-5.1836,-4.855,-4.8532,-4.8569,-4.8587,-4.8587,-4.8587,-4.8587,-4.8587,-4.8605,-4.875,-4.898,-4.9029,-4.901,-4.8906,-4.8906,-4.889,-4.882,-4.8768,-4.8732,-4.8732,-4.8642,-4.7755,-4.6316,-4.6205,-4.5355,-4.3952,-4.3788,-4.3788,-4.3788,-4.3788,-4.3788,-4.3788,-4.3788,-4.3788,-4.3788,-4.3788,-4.3788,-4.3804,-4.3862,-4.3926,-4.3942,-4.3851,-4.3804,-4.3788,-4.3804,-4.3788,-4.3788,-4.3788,-4.3837,-4.3883,-4.3883,-4.3915,-4.3942,-4.3986,-4.4033,-4.4033,-4.4147,-4.4226,-4.4252,-4.427,-4.427,-4.4318,-4.427,-4.427,-4.427,-4.4237,-4.4255,-4.427,-4.4289,-4.427,-4.4207,-4.418,-4.4169,-4.4135,-4.4051,-4.4005,-4.4005,-4.4005,-4.4005,-4.4005,-4.4005,-4.4005,-4.4005,-4.4005,-4.4101,-4.444,-4.543,-4.686,-4.8141,-4.8476,-4.8587,-4.8532,-4.855,-4.8569,-4.855,-4.8495,-4.8438,-4.8438,-4.8382,-4.8325,-4.8325,-4.8324,-4.8324,-4.8325,-4.8324,-4.8325,-4.8324,-4.8324,-4.8304,-4.8355,-4.87,-4.9058,-4.9224,-5.0152,-5.1365,-4.8343,-4.8344,-4.8438,-4.855,-4.8587,-4.8587,-4.8587,-4.8587,-4.8569,-4.8605,-4.866,-4.8641,-4.8641,-4.8641,-4.8641,-4.866,-4.8642,-4.8624,-4.8624,-4.8624,-4.8605,-4.7737,-4.6297,-4.6205,-4.5355,-4.3954,-4.3788,-4.3788,-4.3788,-4.3788,-4.3788,-4.3788,-4.3788,-4.3788,-4.3788,-4.3788,-4.3788,-4.3788,-4.3684,-4.3701,-4.382,-4.3804,-4.3788,-4.3788,-4.3788,-4.3788,-4.3788,-4.3788,-4.3804,-4.3786,-4.3804,-4.382,-4.382,-4.3818,-4.3818,-4.3818,-4.3899,-4.3974,-4.4094,-4.4124,-4.4173,-4.4266,-4.4211,-4.4199,-4.4199,-4.4101,-4.4085,-4.4165,-4.4218,-4.415,-4.4036,-4.4039,-4.4039,-4.402,-4.4005,-4.4005,-4.4005,-4.4005,-4.4005,-4.4005,-4.4005,-4.4005,-4.4005,-4.3989,-4.4252,-4.4821,-4.564,-4.6588,-4.7444,-4.8145,-4.8457,-4.8382,-4.842,-4.8438,-4.8382,-4.8325,-4.8343,-4.8343,-4.8324,-4.8324,-4.8324,-4.8324,-4.8324,-4.8324,-4.8324,-4.8324,-4.8324,-4.8305,-4.8286,-4.8169,-4.8253,-4.8334,-4.8835,-4.9539,-5.0367,-4.8324,-4.8306,-4.8363,-4.8382,-4.842,-4.8402,-4.8439,-4.842,-4.842,-4.842,-4.8439,-4.8439,-4.8458,-4.855,-4.8532,-4.8513,-4.842,-4.842,-4.8402,-4.8402,-4.8439,-4.7574,-4.6138,-4.6028,-4.5164,-4.3727,-4.3635,-4.3635,-4.3617,-4.3635,-4.3617,-4.3635,-4.3635,-4.3617,-4.3635,-4.3635,-4.3617,-4.3617,-4.3583,-4.3583,-4.36,-4.3635,-4.3617,-4.3635,-4.3635,-4.3617,-4.3617,-4.3617,-4.3617,-4.3635,-4.3635,-4.3617,-4.3617,-4.3651,-4.3667,-4.3684,-4.3786,-4.3867,-4.3913,-4.3929,-4.3961,-4.4055,-4.4042,-4.4042,-4.407,-4.402,-4.402,-4.4089,-4.4104,-4.4036,-4.4005,-4.4005,-4.4005,-4.4005,-4.4005,-4.4005,-4.4005,-4.4005,-4.4005,-4.4005,-4.4005,-4.4005,-4.3989,-4.3958,-4.4265,-4.4942,-4.5686,-4.6392,-4.7187,-4.7923,-4.8289,-4.8325,-4.8363,-4.8363,-4.8324,-4.8324,-4.8324,-4.8324,-4.8324,-4.8324,-4.8324,-4.8324,-4.8324,-4.8324,-4.8324,-4.8324,-4.8324,-4.8305,-4.8286,-4.813,-4.7947,-4.7931,-4.8134,-4.8714,-4.9442,-4.8324,-4.8324,-4.8324,-4.8324,-4.8324,-4.8324,-4.8324,-4.8324,-4.8324,-4.8324,-4.8324,-4.8324,-4.8363,-4.8438,-4.8438,-4.84,-4.8306,-4.8324,-4.8324,-4.8324,-4.8324,-4.7572,-4.6305,-4.5975,-4.5168,-4.3975,-4.3606,-4.3496,-4.3479,-4.3479,-4.3479,-4.3479,-4.3479,-4.3479,-4.3479,-4.3479,-4.3479,-4.3496,-4.3479,-4.3479,-4.3496,-4.3479,-4.3479,-4.3479,-4.3479,-4.3479,-4.3479,-4.3479,-4.3479,-4.3479,-4.3479,-4.3479,-4.3496,-4.3566,-4.3565,-4.36,-4.3651,-4.3738,-4.3754,-4.3736,-4.3786,-4.3867,-4.3883,-4.3899,-4.3945,-4.3958,-4.3974,-4.3974,-4.3974,-4.3974,-4.4005,-4.4005,-4.4005,-4.4005,-4.4005,-4.4005,-4.4005,-4.4005,-4.3989,-4.3974,-4.3958,-4.3958,-4.3945,-4.3915,-4.4091,-4.4528,-4.5233,-4.601,-4.6801,-4.7463,-4.7994,-4.8251,-4.8306,-4.8324,-4.8324,-4.8324,-4.8324,-4.8324,-4.8324,-4.8324,-4.8324,-4.8324,-4.8324,-4.8324,-4.8324,-4.8324,-4.8324,-4.8305,-4.8229,-4.8032,-4.7847,-4.7717,-4.7808,-4.8258,-4.8821,-4.8324,-4.8324,-4.8324,-4.8324,-4.8324,-4.8324,-4.8324,-4.8324,-4.8324,-4.8324,-4.8324,-4.8324,-4.8324,-4.8306,-4.8325,-4.8324,-4.8324,-4.8324,-4.8324,-4.8324,-4.8324,-4.7846,-4.7039,-4.6269,-4.5461,-4.4544,-4.3901,-4.3534,-4.3497,-4.3479,-4.3479,-4.3479,-4.3479,-4.3479,-4.3479,-4.3479,-4.3479,-4.3479,-4.3479,-4.3479,-4.3479,-4.3479,-4.3479,-4.3479,-4.3479,-4.3479,-4.3479,-4.3479,-4.3479,-4.3479,-4.3479,-4.3479,-4.3479,-4.3496,-4.3515,-4.3496,-4.3496,-4.3549,-4.3617,-4.3617,-4.3667,-4.3769,-4.3804,-4.3804,-4.3818,-4.3883,-4.3897,-4.3897,-4.3897,-4.3929,-4.3974,-4.3992,-4.3992,-4.3989,-4.3989,-4.3989,-4.3989,-4.3992,-4.3958,-4.3913,-4.3897,-4.3883,-4.3837,-4.3786,-4.3754,-4.3909,-4.4408,-4.5219,-4.5993,-4.6728,-4.7461,-4.8104,-4.8324,-4.8324,-4.8324,-4.8324,-4.8324,-4.8324,-4.8324,-4.8324,-4.8324,-4.8324,-4.8324,-4.8324,-4.8324,-4.8324,-4.8324,-4.8267,-4.817,-4.8012,-4.7827,-4.772,-4.7657,-4.8135,-4.8659,-4.8324,-4.8324,-4.8324,-4.8324,-4.8324,-4.8324,-4.8324,-4.8324,-4.8324,-4.8324,-4.8324,-4.8324,-4.8324,-4.8324,-4.8324,-4.8324,-4.8324,-4.8324,-4.8324,-4.8324,-4.8324,-4.7865,-4.7113,-4.6782,-4.5938,-4.4819,-4.4397,-4.3993,-4.3516,-4.3479,-4.3479,-4.3479,-4.3479,-4.3479,-4.3479,-4.3479,-4.3479,-4.3479,-4.3479,-4.3479,-4.3479,-4.3479,-4.3479,-4.3479,-4.3479,-4.3479,-4.3479,-4.3479,-4.3479,-4.3479,-4.3479,-4.3479,-4.3479,-4.3479,-4.3479,-4.3479,-4.3479,-4.3496,-4.3513,-4.3531,-4.3565,-4.3651,-4.3667,-4.3719,-4.3788,-4.3837,-4.3835,-4.3835,-4.3837,-4.3869,-4.3867,-4.3867,-4.3883,-4.3867,-4.3867,-4.3865,-4.3883,-4.3883,-4.3867,-4.3835,-4.3837,-4.3786,-4.3701,-4.3667,-4.3634,-4.364,-4.4211,-4.5001,-4.581,-4.6581,-4.7333,-4.8048,-4.8324,-4.8324,-4.8324,-4.8324,-4.8324,-4.8324,-4.8324,-4.8324,-4.8324,-4.8324,-4.8324,-4.8324,-4.8324,-4.8324,-4.8305,-4.817,-4.8092,-4.8032,-4.7827,-4.7678,-4.7575,-4.7839,-4.8335,-4.8324,-4.8324,-4.8324,-4.8324,-4.8324,-4.8324,-4.8324,-4.8324,-4.8324,-4.8324,-4.8324,-4.8324,-4.8324,-4.8324,-4.8324,-4.8324,-4.8324,-4.8324,-4.8324,-4.8324,-4.8324,-4.8012,-4.7516,-4.7204,-4.6544,-4.5498,-4.4893,-4.4287,-4.3588,-4.3479,-4.3479,-4.3479,-4.3479,-4.3479,-4.3479,-4.3479,-4.3479,-4.3479,-4.3479,-4.3479,-4.3479,-4.3479,-4.3479,-4.3479,-4.3479,-4.3479,-4.3479,-4.3479,-4.3479,-4.3479,-4.3479,-4.3479,-4.3479,-4.3479,-4.3479,-4.3479,-4.3479,-4.3479,-4.3479,-4.3479,-4.3532,-4.3565,-4.3583,-4.3617,-4.3686,-4.3719,-4.3718,-4.3736,-4.3736,-4.3736,-4.3701,-4.3719,-4.3719,-4.3771,-4.3788,-4.3788,-4.3788,-4.3804,-4.3769,-4.3736,-4.3703,-4.3669,-4.36,-4.3565,-4.3548,-4.3496,-4.4011,-4.4672,-4.5718,-4.6342,-4.7131,-4.8048,-4.8306,-4.8324,-4.8324,-4.8324,-4.8324,-4.8324,-4.8324,-4.8324,-4.8324,-4.8324,-4.8324,-4.8324,-4.8324,-4.8324,-4.8229,-4.8111,-4.8032,-4.7992,-4.7847,-4.7678,-4.7533,-4.7407,-4.8061,-4.8361,-4.8379,-4.8324,-4.8324,-4.8324,-4.8324,-4.8324,-4.8324,-4.8324,-4.8324,-4.8324,-4.8324,-4.8324,-4.8324,-4.8324,-4.8324,-4.8324,-4.8324,-4.8324,-4.8324,-4.8324,-4.8306,-4.8177,-4.7535,-4.7131,-4.6764,-4.5406,-4.4323,-4.3626,-4.3534,-4.3479,-4.3479,-4.3479,-4.3479,-4.3479,-4.3479,-4.3479,-4.3479,-4.3479,-4.3479,-4.3479,-4.3479,-4.3479,-4.3479,-4.3479,-4.3479,-4.3479,-4.3479,-4.3479,-4.3479,-4.3479,-4.3479,-4.3479,-4.3479,-4.3479,-4.3479,-4.3479,-4.3479,-4.3479,-4.3479,-4.3496,-4.3496,-4.3515,-4.3496,-4.3549,-4.3565,-4.3599,-4.3617,-4.3617,-4.3599,-4.3582,-4.3548,-4.3601,-4.3754,-4.3753,-4.3753,-4.3771,-4.3788,-4.3736,-4.3634,-4.3566,-4.3496,-4.3496,-4.3496,-4.3496,-4.3533,-4.3606,-4.4195,-4.5553,-4.603,-4.6654,-4.7829,-4.8324,-4.8324,-4.8324,-4.8324,-4.8324,-4.8324,-4.8324,-4.8324,-4.8324,-4.8324,-4.8324,-4.8324,-4.8324,-4.8305,-4.8286,-4.8151,-4.8032,-4.7972,-4.7806,-4.7657,-4.749,-4.7463,-4.7974,-4.9187,-4.9114,-4.8526,-4.8324,-4.8324,-4.8324,-4.8324,-4.8324,-4.8324,-4.8324,-4.8324,-4.8324,-4.8324,-4.8324,-4.8324,-4.8324,-4.8324,-4.8324,-4.8324,-4.8324,-4.8324,-4.8324,-4.8251,-4.8049,-4.7626,-4.6892,-4.5461,-4.4599,-4.4268,-4.379,-4.3479,-4.3479,-4.3479,-4.3479,-4.3479,-4.3479,-4.3479,-4.3479,-4.3479,-4.3479,-4.3479,-4.3479,-4.3479,-4.3479,-4.3479,-4.3479,-4.3479,-4.3479,-4.3479,-4.3479,-4.3479,-4.3479,-4.3479,-4.3479,-4.3479,-4.3479,-4.3479,-4.3479,-4.3479,-4.3479,-4.3479,-4.3479,-4.3479,-4.3479,-4.3479,-4.3513,-4.3513,-4.3531,-4.3513,-4.3513,-4.3513,-4.3496,-4.3513,-4.3583,-4.3583,-4.36,-4.36,-4.36,-4.3566,-4.3549,-4.3496,-4.3479,-4.3479,-4.3479,-4.3479,-4.3479,-4.3497,-4.4121,-4.5443,-4.5902,-4.6526,-4.7939,-4.8122,-4.8324,-4.8324,-4.8324,-4.8324,-4.8324,-4.8324,-4.8324,-4.8324,-4.8324,-4.8324,-4.8324,-4.8324,-4.8305,-4.8267,-4.817,-4.8052,-4.7931,-4.7827,-4.7639,-4.7428,-4.759,-4.7946,-5.0031,-4.9939,-4.9132,-4.8783,-4.8728,-4.8453,-4.8324,-4.8324,-4.8324,-4.8324,-4.8324,-4.8324,-4.8324,-4.8324,-4.8324,-4.8324,-4.8324,-4.8324,-4.8324,-4.8324,-4.8324,-4.8324,-4.8324,-4.8324,-4.7865,-4.7076,-4.6067,-4.526,-4.469,-4.4213,-4.3791,-4.3534,-4.3479,-4.3479,-4.3479,-4.3479,-4.3479,-4.3479,-4.3479,-4.3479,-4.3479,-4.3479,-4.3479,-4.3479,-4.3479,-4.3479,-4.3479,-4.3479,-4.3479,-4.3479,-4.3479,-4.3479,-4.3479,-4.3479,-4.3479,-4.3479,-4.3479,-4.3479,-4.3479,-4.3479,-4.3479,-4.3479,-4.3479,-4.3479,-4.3479,-4.3479,-4.3479,-4.3479,-4.3479,-4.3479,-4.3496,-4.3479,-4.3479,-4.3479,-4.3496,-4.3479,-4.3479,-4.3479,-4.3496,-4.3496,-4.3479,-4.3479,-4.3479,-4.3479,-4.3479,-4.3479,-4.3497,-4.4102,-4.5351,-4.5883,-4.6856,-4.7737,-4.8196,-4.8324,-4.8324,-4.8324,-4.8324,-4.8324,-4.8324,-4.8324,-4.8324,-4.8324,-4.8324,-4.8324,-4.8324,-4.8324,-4.8286,-4.8131,-4.7992,-4.7891,-4.7827,-4.7618,-4.7425,-4.7294,-4.763,-5.0875,-5.0765,-5.0014,-4.961,-4.9445,-4.8765,-4.8416,-4.8324,-4.8324,-4.8324,-4.8324,-4.8324,-4.8324,-4.8324,-4.8324,-4.8324,-4.8324,-4.8324,-4.8324,-4.8324,-4.8324,-4.8324,-4.8324,-4.8324,-4.7939,-4.7333,-4.7021,-4.6269,-4.515,-4.4745,-4.4323,-4.3718,-4.3571,-4.3479,-4.3479,-4.3479,-4.3479,-4.3479,-4.3479,-4.3479,-4.3479,-4.3479,-4.3479,-4.3479,-4.3479,-4.3479,-4.3479,-4.3479,-4.3479,-4.3479,-4.3479,-4.3479,-4.3479,-4.3479,-4.3479,-4.3479,-4.3479,-4.3479,-4.3479,-4.3479,-4.3479,-4.3479,-4.3479,-4.3479,-4.3479,-4.3479,-4.3479,-4.3479,-4.3479,-4.3479,-4.3479,-4.3479,-4.3479,-4.3479,-4.3479,-4.3479,-4.3479,-4.3479,-4.3479,-4.3479,-4.3479,-4.3479,-4.3479,-4.3479,-4.3479,-4.3479,-4.3516,-4.4268,-4.5351,-4.6085,-4.6746,-4.748,-4.8251,-4.8324,-4.8324,-4.8324,-4.8324,-4.8324,-4.8324,-4.8324,-4.8324,-4.8324,-4.8324,-4.8324,-4.8324,-4.8324,-4.8267,-4.8111,-4.8012,-4.7972,-4.7827,-4.7597,-4.7479,-4.7401,-4.7714,-5.1683,-5.1573,-5.082,-5.0141,-4.9629,-4.9335,-4.8857,-4.8361,-4.8324,-4.8324,-4.8324,-4.8324,-4.8324,-4.8324,-4.8324,-4.8324,-4.8324,-4.8324,-4.8324,-4.8324,-4.8324,-4.8324,-4.8324,-4.8324,-4.8196,-4.7883,-4.7388,-4.6874,-4.6397,-4.5296,-4.4635,-4.4397,-4.3754,-4.3479,-4.3479,-4.3479,-4.3479,-4.3479,-4.3479,-4.3479,-4.3479,-4.3479,-4.3479,-4.3479,-4.3479,-4.3479,-4.3479,-4.3479,-4.3479,-4.3479,-4.3479,-4.3479,-4.3479,-4.3479,-4.3479,-4.3479,-4.3479,-4.3479,-4.3479,-4.3479,-4.3479,-4.3479,-4.3479,-4.3479,-4.3479,-4.3479,-4.3479,-4.3479,-4.3479,-4.3479,-4.3479,-4.3479,-4.3479,-4.3479,-4.3479,-4.3479,-4.3479,-4.3479,-4.3479,-4.3479,-4.3479,-4.3479,-4.3479,-4.3479,-4.3479,-4.3479,-4.3608,-4.4066,-4.5369,-4.5975,-4.6471,-4.7609,-4.8324,-4.8324,-4.8324,-4.8324,-4.8324,-4.8324,-4.8324,-4.8324,-4.8324,-4.8324,-4.8324,-4.8324,-4.8324,-4.8324,-4.8229,-4.8131,-4.8072,-4.7992,-4.7827,-4.7633,-4.7637,-4.7604,-4.8086,-5.2509,-5.2435,-5.1646,-5.0839,-5.0106,-4.9719,-4.9133,-4.8434,-4.8324,-4.8324,-4.8324,-4.8324,-4.8324,-4.8324,-4.8324,-4.8324,-4.8324,-4.8324,-4.8324,-4.8324,-4.8324,-4.8324,-4.8324,-4.8324,-4.8324,-4.8269,-4.781,-4.7424,-4.6929,-4.581,-4.5076,-4.4599,-4.3901,-4.3497,-4.3479,-4.3479,-4.3479,-4.3479,-4.3479,-4.3479,-4.3479,-4.3479,-4.3479,-4.3479,-4.3479,-4.3479,-4.3479,-4.3479,-4.3479,-4.3479,-4.3479,-4.3479,-4.3479,-4.3479,-4.3479,-4.3479,-4.3479,-4.3479,-4.3479,-4.3479,-4.3479,-4.3479,-4.3479,-4.3479,-4.3479,-4.3479,-4.3479,-4.3479,-4.3479,-4.3479,-4.3479,-4.3479,-4.3479,-4.3479,-4.3479,-4.3479,-4.3479,-4.3479,-4.3479,-4.3479,-4.3479,-4.3479,-4.3479,-4.3479,-4.3479,-4.3479,-4.3479,-4.4397,-4.5516,-4.5792,-4.6416,-4.7664,-4.8324,-4.8324,-4.8324,-4.8324,-4.8324,-4.8324,-4.8324,-4.8324,-4.8324,-4.8324,-4.8324,-4.8324,-4.8324,-4.8286,-4.8228,-4.8131,-4.803,-4.7909,-4.7783,-4.7687,-4.7655,-4.7971,-4.8467,-5.3185,-5.3151,-5.2417,-5.161,-5.0729,-5.0013,-4.9224,-4.8416,-4.8324,-4.8324,-4.8324,-4.8324,-4.8324,-4.8324,-4.8324,-4.8324,-4.8324,-4.8324,-4.8324,-4.8324,-4.8324,-4.8324,-4.8324,-4.8324,-4.8324,-4.8306,-4.8324,-4.7901,-4.7278,-4.6434,-4.5608,-4.4947,-4.4121,-4.3606,-4.3516,-4.3479,-4.3479,-4.3479,-4.3479,-4.3479,-4.3479,-4.3479,-4.3479,-4.3479,-4.3479,-4.3479,-4.3479,-4.3479,-4.3479,-4.3479,-4.3479,-4.3479,-4.3479,-4.3479,-4.3479,-4.3479,-4.3479,-4.3479,-4.3479,-4.3479,-4.3479,-4.3479,-4.3479,-4.3479,-4.3479,-4.3479,-4.3479,-4.3479,-4.3479,-4.3479,-4.3479,-4.3479,-4.3479,-4.3479,-4.3479,-4.3479,-4.3479,-4.3479,-4.3479,-4.3479,-4.3479,-4.3479,-4.3479,-4.3479,-4.3479,-4.3479,-4.3589,-4.4323,-4.5296,-4.5828,-4.6728,-4.7957,-4.8287,-4.8324,-4.8324,-4.8324,-4.8324,-4.8324,-4.8324,-4.8324,-4.8324,-4.8324,-4.8324,-4.8324,-4.8324,-4.8267,-4.8208,-4.809,-4.799,-4.7886,-4.7783,-4.7666,-4.7615,-4.8212,-4.874,-5.3185,-5.3167,-5.3023,-5.2123,-5.0912,-5.0582,-4.9682,-4.8343,-4.8324,-4.8324,-4.8324,-4.8324,-4.8324,-4.8324,-4.8324,-4.8324,-4.8324,-4.8324,-4.8324,-4.8324,-4.8324,-4.8324,-4.8324,-4.8324,-4.8324,-4.8324,-4.8324,-4.8214,-4.7847,-4.7131,-4.6416,-4.559,-4.4727,-4.4103,-4.3588,-4.3479,-4.3479,-4.3479,-4.3479,-4.3479,-4.3479,-4.3479,-4.3479,-4.3479,-4.3479,-4.3479,-4.3479,-4.3479,-4.3479,-4.3479,-4.3479,-4.3479,-4.3479,-4.3479,-4.3479,-4.3479,-4.3479,-4.3479,-4.3479,-4.3479,-4.3479,-4.3479,-4.3479,-4.3479,-4.3479,-4.3479,-4.3479,-4.3479,-4.3479,-4.3479,-4.3479,-4.3479,-4.3479,-4.3479,-4.3479,-4.3479,-4.3479,-4.3479,-4.3479,-4.3479,-4.3479,-4.3479,-4.3479,-4.3479,-4.3479,-4.3479,-4.3809,-4.4287,-4.5021,-4.581,-4.6874,-4.803,-4.8287,-4.8324,-4.8324,-4.8324,-4.8324,-4.8324,-4.8324,-4.8324,-4.8324,-4.8324,-4.8324,-4.8324,-4.8324,-4.8247,-4.8169,-4.809,-4.7972,-4.7868,-4.7816,-4.7846,-4.8011,-4.8552,-4.9043,-5.3185,-5.3185,-5.3185,-5.227,-5.0949,-5.0784,-4.9848,-4.8526,-4.8324,-4.8324,-4.8324,-4.8324,-4.8324,-4.8324,-4.8324,-4.8324,-4.8324,-4.8324,-4.8324,-4.8324,-4.8324,-4.8324,-4.8324,-4.8324,-4.8324,-4.8324,-4.8324,-4.8324,-4.8085,-4.7498,-4.6636,-4.5883,-4.5112,-4.425,-4.3608,-4.3479,-4.3479,-4.3479,-4.3479,-4.3479,-4.3479,-4.3479,-4.3479,-4.3479,-4.3479,-4.3479,-4.3479,-4.3479,-4.3479,-4.3479,-4.3479,-4.3479,-4.3479,-4.3479,-4.3479,-4.3479,-4.3479,-4.3479,-4.3479,-4.3479,-4.3479,-4.3479,-4.3479,-4.3479,-4.3479,-4.3479,-4.3479,-4.3479,-4.3479,-4.3479,-4.3479,-4.3479,-4.3479,-4.3479,-4.3479,-4.3479,-4.3479,-4.3479,-4.3479,-4.3479,-4.3479,-4.3479,-4.3479,-4.3479,-4.3479,-4.3479,-4.3571,-4.4085,-4.5241,-4.603,-4.6838,-4.7737,-4.8141,-4.8324,-4.8324,-4.8324,-4.8324,-4.8324,-4.8324,-4.8324,-4.8324,-4.8324,-4.8324,-4.8324,-4.8305,-4.8208,-4.813,-4.8032,-4.7931,-4.7824,-4.7823,-4.802,-4.8371,-4.8816,-4.9328,-5.3185,-5.3185,-5.3078,-5.216,-5.0894,-5.0637,-4.9719,-4.8453,-4.8324,-4.8324,-4.8324,-4.8324,-4.8324,-4.8324,-4.8324,-4.8324,-4.8324,-4.8324,-4.8324,-4.8324,-4.8324,-4.8324,-4.8324,-4.8324,-4.8324,-4.8324,-4.8324,-4.8324,-4.8141,-4.759,-4.6892,-4.5975,-4.5296,-4.447,-4.3736,-4.3479,-4.3479,-4.3479,-4.3479,-4.3479,-4.3479,-4.3479,-4.3479,-4.3479,-4.3479,-4.3479,-4.3479,-4.3479,-4.3479,-4.3479,-4.3479,-4.3479,-4.3479,-4.3479,-4.3479,-4.3479,-4.3479,-4.3479,-4.3479,-4.3479,-4.3479,-4.3479,-4.3479,-4.3479,-4.3479,-4.3479,-4.3479,-4.3479,-4.3479,-4.3479,-4.3479,-4.3479,-4.3479,-4.3479,-4.3479,-4.3479,-4.3496,-4.3496,-4.3513,-4.3479,-4.3479,-4.3479,-4.3479,-4.3479,-4.3479,-4.3516,-4.3626,-4.4066,-4.5241,-4.625,-4.7058,-4.7682,-4.8141,-4.8324,-4.8324,-4.8324,-4.8324,-4.8324,-4.8324,-4.8324,-4.8324,-4.8324,-4.8324,-4.8324,-4.8286,-4.819,-4.8092,-4.8032,-4.7909,-4.7762,-4.7958,-4.8341,-4.8722,-4.9102,-4.9642,-5.3185,-5.313,-5.2472,-5.1628,-5.0765,-5.0106,-4.926,-4.8416,-4.8324,-4.8324,-4.8324,-4.8324,-4.8324,-4.8324,-4.8324,-4.8324,-4.8324,-4.8324,-4.8324,-4.8324,-4.8324,-4.8324,-4.8324,-4.8324,-4.8324,-4.8324,-4.8324,-4.8324,-4.8306,-4.8086,-4.7278,-4.6177,-4.5718,-4.4966,-4.392,-4.3479,-4.3479,-4.3479,-4.3479,-4.3479,-4.3479,-4.3479,-4.3479,-4.3479,-4.3479,-4.3479,-4.3479,-4.3479,-4.3479,-4.3479,-4.3479,-4.3479,-4.3479,-4.3479,-4.3479,-4.3479,-4.3479,-4.3479,-4.3479,-4.3479,-4.3479,-4.3479,-4.3479,-4.3479,-4.3479,-4.3479,-4.3479,-4.3479,-4.3479,-4.3479,-4.3479,-4.3479,-4.3479,-4.3479,-4.3496,-4.3496,-4.3513,-4.3566,-4.3565,-4.3549,-4.3532,-4.3496,-4.3496,-4.3496,-4.3479,-4.3681,-4.4011,-4.4525,-4.5516,-4.6452,-4.7259,-4.7791,-4.8269,-4.8324,-4.8324,-4.8324,-4.8324,-4.8324,-4.8324,-4.8324,-4.8324,-4.8324,-4.8324,-4.8324,-4.8267,-4.8209,-4.8111,-4.8032,-4.7909,-4.7741,-4.8196,-4.8698,-4.9149,-4.9567,-5.0186,-5.2949,-5.2564,-5.2142,-5.13,-5.0233,-4.9794,-4.9115,-4.8379,-4.8324,-4.8324,-4.8324,-4.8324,-4.8324,-4.8324,-4.8324,-4.8324,-4.8324,-4.8324,-4.8324,-4.8324,-4.8324,-4.8324,-4.8324,-4.8324,-4.8324,-4.8324,-4.8324,-4.8324,-4.8324,-4.8306,-4.7627,-4.6727,-4.6159,-4.5278,-4.4268,-4.3699,-4.3534,-4.3479,-4.3479,-4.3479,-4.3479,-4.3479,-4.3479,-4.3479,-4.3479,-4.3479,-4.3479,-4.3479,-4.3479,-4.3479,-4.3479,-4.3479,-4.3479,-4.3479,-4.3479,-4.3479,-4.3479,-4.3479,-4.3479,-4.3479,-4.3479,-4.3479,-4.3479,-4.3479,-4.3479,-4.3479,-4.3479,-4.3479,-4.3479,-4.3479,-4.3479,-4.3479,-4.3479,-4.3515,-4.3532,-4.3548,-4.3583,-4.3651,-4.3669,-4.3652,-4.36,-4.3565,-4.3548,-4.3531,-4.3496,-4.3791,-4.4305,-4.5057,-4.5883,-4.6709,-4.7535,-4.7901,-4.8324,-4.8324,-4.8324,-4.8324,-4.8324,-4.8324,-4.8324,-4.8324,-4.8324,-4.8324,-4.8324,-4.8324,-4.8248,-4.821,-4.8111,-4.7992,-4.7868,-4.7832,-4.8356,-4.887,-4.9485,-5.0062,-5.0642,-5.2582,-5.1977,-5.1646,-5.0785,-4.9702,-4.939,-4.8948,-4.8398,-4.8324,-4.8324,-4.8324,-4.8324,-4.8324,-4.8324,-4.8324,-4.8324,-4.8324,-4.8324,-4.8324,-4.8324,-4.8324,-4.8324,-4.8324,-4.8324,-4.8324,-4.8324,-4.8324,-4.8324,-4.8324,-4.8324,-4.7847,-4.7003,-4.6269,-4.5516,-4.469,-4.3864,-4.3608,-4.3479,-4.3479,-4.3479,-4.3479,-4.3479,-4.3479,-4.3479,-4.3479,-4.3479,-4.3479,-4.3479,-4.3479,-4.3479,-4.3479,-4.3479,-4.3479,-4.3479,-4.3479,-4.3479,-4.3479,-4.3479,-4.3479,-4.3479,-4.3479,-4.3479,-4.3479,-4.3479,-4.3479,-4.3479,-4.3479,-4.3479,-4.3479,-4.3479,-4.3479,-4.3479,-4.3496,-4.3513,-4.3583,-4.3617,-4.3667,-4.3736,-4.3786,-4.3769,-4.3719,-4.3686,-4.3704,-4.362,-4.3622,-4.4248,-4.4762,-4.5516,-4.6342,-4.7076,-4.7755,-4.8067,-4.8324,-4.8324,-4.8324,-4.8324,-4.8324,-4.8324,-4.8324,-4.8324,-4.8324,-4.8324,-4.8324,-4.8324,-4.8305,-4.8248,-4.8111,-4.8045,-4.807,-4.8215,-4.8587,-4.9172,-4.9952,-5.0425,-5.0842,-5.2068,-5.1848,-5.0473,-4.9757,-4.9482,-4.8802,-4.8453,-4.8343,-4.8324,-4.8324,-4.8324,-4.8324,-4.8324,-4.8324,-4.8324,-4.8324,-4.8324,-4.8324,-4.8324,-4.8324,-4.8324,-4.8324,-4.8324,-4.8324,-4.8324,-4.8324,-4.8324,-4.8324,-4.8324,-4.8324,-4.7938,-4.7168,-4.6434,-4.5535,-4.4892,-4.4085,-4.3516,-4.3497,-4.3479,-4.3479,-4.3479,-4.3479,-4.3479,-4.3479,-4.3479,-4.3479,-4.3479,-4.3479,-4.3479,-4.3479,-4.3479,-4.3479,-4.3479,-4.3479,-4.3479,-4.3479,-4.3479,-4.3479,-4.3479,-4.3479,-4.3479,-4.3479,-4.3479,-4.3479,-4.3479,-4.3479,-4.3479,-4.3479,-4.3479,-4.3479,-4.3479,-4.3515,-4.3549,-4.3583,-4.3615,-4.3684,-4.3753,-4.3816,-4.3883,-4.4029,-4.3999,-4.3966,-4.3933,-4.385,-4.3839,-4.4558,-4.5276,-4.603,-4.6709,-4.7424,-4.7901,-4.8196,-4.8324,-4.8324,-4.8324,-4.8324,-4.8324,-4.8324,-4.8324,-4.8324,-4.8324,-4.8324,-4.8324,-4.8324,-4.8324,-4.8247,-4.8072,-4.8079,-4.8252,-4.8557,-4.8941,-4.973,-5.061,-5.0919,-5.1067,-5.0639,-5.0583,-4.9886,-4.9317,-4.8838,-4.8453,-4.8324,-4.8324,-4.8324,-4.8324,-4.8324,-4.8324,-4.8324,-4.8324,-4.8324,-4.8324,-4.8324,-4.8324,-4.8324,-4.8324,-4.8324,-4.8324,-4.8324,-4.8324,-4.8324,-4.8324,-4.8324,-4.8324,-4.8324,-4.8288,-4.8067,-4.7718,-4.6966,-4.6214,-4.5314,-4.4562,-4.3975,-4.3644,-4.3479,-4.3479,-4.3479,-4.3479,-4.3479,-4.3479,-4.3479,-4.3479,-4.3479,-4.3479,-4.3479,-4.3479,-4.3479,-4.3479,-4.3479,-4.3479,-4.3479,-4.3479,-4.3479,-4.3479,-4.3479,-4.3479,-4.3479,-4.3479,-4.3479,-4.3479,-4.3479,-4.3479,-4.3479,-4.3479,-4.3479,-4.3479,-4.3496,-4.3531,-4.3565,-4.3599,-4.3682,-4.3767,-4.3832,-4.3913,-4.3979,-4.4162,-4.4369,-4.4506,-4.4626,-4.4655,-4.4828,-4.5402,-4.5993,-4.6581,-4.7131,-4.7663,-4.8012,-4.8269,-4.8324,-4.8324,-4.8324,-4.8324,-4.8324,-4.8324,-4.8324,-4.8324,-4.8324,-4.8324,-4.8324,-4.8324,-4.8324,-4.819,-4.8032,-4.8099,-4.822,-4.8756,-4.9329,-5.0086,-5.0796,-5.1052,-5.1131,-4.9482,-4.9298,-4.926,-4.8893,-4.8324,-4.8324,-4.8324,-4.8324,-4.8324,-4.8324,-4.8324,-4.8324,-4.8324,-4.8324,-4.8324,-4.8324,-4.8324,-4.8324,-4.8324,-4.8324,-4.8324,-4.8324,-4.8324,-4.8324,-4.8324,-4.8324,-4.8324,-4.8324,-4.8324,-4.8306,-4.8306,-4.8269,-4.7369,-4.6636,-4.5883,-4.5039,-4.4287,-4.3534,-4.3479,-4.3479,-4.3479,-4.3479,-4.3479,-4.3479,-4.3479,-4.3479,-4.3479,-4.3479,-4.3479,-4.3479,-4.3479,-4.3479,-4.3479,-4.3479,-4.3479,-4.3479,-4.3479,-4.3479,-4.3479,-4.3479,-4.3479,-4.3479,-4.3479,-4.3479,-4.3479,-4.3479,-4.3479,-4.3479,-4.3479,-4.3479,-4.3496,-4.3548,-4.3617,-4.3701,-4.3783,-4.3865,-4.3947,-4.4032,-4.4305,-4.4639,-4.4992,-4.553,-4.5616,-4.5648,-4.5912,-4.6375,-4.6801,-4.7168,-4.7553,-4.7957,-4.8103,-4.8324,-4.8324,-4.8324,-4.8324,-4.8324,-4.8324,-4.8324,-4.8324,-4.8324,-4.8324,-4.8324,-4.8324,-4.8324,-4.8305,-4.8189,-4.805,-4.8101,-4.8241,-4.9028,-4.9771,-5.0302,-5.0809,-5.1119,-5.1096,-4.9114,-4.8398,-4.8416,-4.8398,-4.8324,-4.8324,-4.8324,-4.8324,-4.8324,-4.8324,-4.8324,-4.8324,-4.8324,-4.8324,-4.8324,-4.8324,-4.8324,-4.8324,-4.8324,-4.8324,-4.8324,-4.8324,-4.8324,-4.8324,-4.8324,-4.8324,-4.8324,-4.8324,-4.8324,-4.8324,-4.8324,-4.8195,-4.7626,-4.6783,-4.5957,-4.5204,-4.4323,-4.3644,-4.3479,-4.3479,-4.3479,-4.3479,-4.3479,-4.3479,-4.3479,-4.3479,-4.3479,-4.3479,-4.3479,-4.3479,-4.3479,-4.3479,-4.3479,-4.3479,-4.3479,-4.3479,-4.3479,-4.3479,-4.3479,-4.3479,-4.3479,-4.3479,-4.3479,-4.3479,-4.3479,-4.3479,-4.3479,-4.3479,-4.3479,-4.3515,-4.3532,-4.3583,-4.3686,-4.3751,-4.3849,-4.3913,-4.4032,-4.4215,-4.4506,-4.5026,-4.5602,-4.6234,-4.6737,-4.6805,-4.6904,-4.735,-4.7297,-4.7647,-4.7865,-4.8177,-4.8213,-4.8324,-4.8324,-4.8324,-4.8324,-4.8324,-4.8324,-4.8324,-4.8324,-4.8324,-4.8324,-4.8324,-4.8324,-4.8286,-4.8267,-4.8149,-4.8123,-4.83,-4.8689,-4.9517,-5.0168,-5.0615,-5.0969,-5.1264,-5.1035,-4.8618,-4.8324,-4.8324,-4.8324,-4.8324,-4.8324,-4.8324,-4.8324,-4.8324,-4.8324,-4.8324,-4.8324,-4.8324,-4.8324,-4.8324,-4.8324,-4.8324,-4.8324,-4.8324,-4.8324,-4.8324,-4.8324,-4.8324,-4.8324,-4.8324,-4.8324,-4.8324,-4.8324,-4.8324,-4.8324,-4.8324,-4.8158,-4.7901,-4.7406,-4.6562,-4.5351,-4.4342,-4.3736,-4.3497,-4.3479,-4.3479,-4.3479,-4.3479,-4.3479,-4.3479,-4.3479,-4.3479,-4.3479,-4.3479,-4.3479,-4.3479,-4.3479,-4.3479,-4.3479,-4.3479,-4.3479,-4.3479,-4.3479,-4.3479,-4.3479,-4.3479,-4.3479,-4.3479,-4.3479,-4.3479,-4.3479,-4.3479,-4.3479,-4.3496,-4.3532,-4.3583,-4.3651,-4.3769,-4.3851,-4.3913,-4.3976,-4.4212,-4.4451,-4.4971,-4.5584,-4.6382,-4.7125,-4.7592,-4.802,-4.8136,-4.8288,-4.8163,-4.807,-4.8216,-4.8324,-4.8324,-4.8324,-4.8324,-4.8324,-4.8324,-4.8324,-4.8324,-4.8324,-4.8324,-4.8324,-4.8324,-4.8324,-4.8305,-4.8286,-4.8319,-4.8349,-4.8452,-4.8626,-4.9138,-4.9949,-5.0425,-5.0779,-5.1126,-5.1426,-5.1026,-4.8324,-4.8324,-4.8324,-4.8324,-4.8324,-4.8324,-4.8324,-4.8324,-4.8324,-4.8324,-4.8324,-4.8324,-4.8324,-4.8324,-4.8324,-4.8324,-4.8324,-4.8324,-4.8324,-4.8324,-4.8324,-4.8324,-4.8324,-4.8324,-4.8324,-4.8324,-4.8324,-4.8324,-4.8324,-4.8324,-4.8324,-4.8324,-4.8269,-4.7755,-4.6856,-4.5553,-4.4415,-4.3993,-4.3589,-4.3497,-4.3479,-4.3479,-4.3479,-4.3479,-4.3479,-4.3479,-4.3479,-4.3479,-4.3479,-4.3479,-4.3479,-4.3479,-4.3479,-4.3479,-4.3479,-4.3479,-4.3479,-4.3479,-4.3479,-4.3479,-4.3479,-4.3479,-4.3479,-4.3479,-4.3479,-4.3479,-4.3479,-4.3496,-4.3513,-4.3548,-4.3617,-4.3718,-4.3818,-4.3899,-4.3945,-4.4045,-4.4546,-4.4896,-4.5565,-4.6215,-4.6977,-4.7646,-4.8129,-4.8483,-4.8451,-4.8511,-4.8384,-4.8254,-4.8233,-4.8324,-4.8324,-4.8324,-4.8324,-4.8324,-4.8324,-4.8324,-4.8324,-4.8324,-4.8324,-4.8324,-4.8324,-4.8324,-4.8287,-4.8267,-4.8374,-4.8568,-4.8869,-4.9188,-4.9716,-5.0369,-5.0821,-5.1317,-5.1144,-5.1307,-5.0999,-4.8324,-4.8324,-4.8324,-4.8324,-4.8324,-4.8324,-4.8324,-4.8324,-4.8324,-4.8324,-4.8324,-4.8324,-4.8324,-4.8324,-4.8324,-4.8324,-4.8324,-4.8324,-4.8324,-4.8324,-4.8324,-4.8324,-4.8324,-4.8324,-4.8324,-4.8324,-4.8324,-4.8324,-4.8324,-4.8324,-4.8324,-4.8324,-4.8269,-4.7921,-4.7021,-4.5553,-4.4764,-4.4526,-4.3883,-4.3681,-4.3479,-4.3479,-4.3479,-4.3479,-4.3479,-4.3479,-4.3479,-4.3479,-4.3479,-4.3479,-4.3479,-4.3479,-4.3479,-4.3479,-4.3479,-4.3479,-4.3479,-4.3479,-4.3479,-4.3479,-4.3479,-4.3479,-4.3479,-4.3479,-4.3479,-4.3479,-4.3479,-4.3496,-4.3531,-4.3582,-4.3666,-4.3749,-4.3849,-4.395,-4.4029,-4.4358,-4.4878,-4.5677,-4.6382,-4.6865,-4.7386,-4.7961,-4.8481,-4.8836,-4.8711,-4.866,-4.855,-4.8457,-4.8363,-4.8324,-4.8324,-4.8324,-4.8324,-4.8324,-4.8324,-4.8324,-4.8324,-4.8324,-4.8324,-4.8324,-4.8324,-4.8324,-4.8287,-4.8323,-4.8594,-4.8916,-4.938,-4.9801,-5.0486,-5.1144,-5.1524,-5.1819,-5.1546,-5.1202,-5.0946,-4.8324,-4.8324,-4.8324,-4.8324,-4.8324,-4.8324,-4.8324,-4.8324,-4.8324,-4.8324,-4.8324,-4.8324,-4.8324,-4.8324,-4.8324,-4.8324,-4.8324,-4.8324,-4.8324,-4.8324,-4.8324,-4.8324,-4.8324,-4.8324,-4.8324,-4.8324,-4.8324,-4.8324,-4.8324,-4.8324,-4.8324,-4.8324,-4.8269,-4.7828,-4.7223,-4.6324,-4.592,-4.4874,-4.4378,-4.4085,-4.3571,-4.3497,-4.3479,-4.3479,-4.3479,-4.3479,-4.3479,-4.3479,-4.3479,-4.3479,-4.3479,-4.3479,-4.3479,-4.3479,-4.3479,-4.3479,-4.3479,-4.3479,-4.3479,-4.3479,-4.3479,-4.3479,-4.3479,-4.3479,-4.3479,-4.3479,-4.3479,-4.3513,-4.3565,-4.3634,-4.3736,-4.3816,-4.3934,-4.4128,-4.4339,-4.4804,-4.5417,-4.6475,-4.7293,-4.7571,-4.8017,-4.8333,-4.8779,-4.889,-4.882,-4.875,-4.8642,-4.855,-4.8457,-4.8363,-4.8306,-4.8324,-4.8324,-4.8324,-4.8324,-4.8324,-4.8324,-4.8324,-4.8324,-4.8324,-4.8324,-4.8379,-4.8691,-4.8912,-4.9107,-4.9336,-5.0089,-5.0813,-5.1389,-5.1945,-5.2066,-5.1914,-5.1487,-5.1202,-5.0999,-4.8324,-4.8324,-4.8324,-4.8324,-4.8324,-4.8324,-4.8324,-4.8324,-4.8324,-4.8324,-4.8324,-4.8324,-4.8324,-4.8324,-4.8324,-4.8324,-4.8324,-4.8324,-4.8324,-4.8324,-4.8324,-4.8324,-4.8324,-4.8324,-4.8324,-4.8324,-4.8324,-4.8324,-4.8324,-4.8324,-4.8324,-4.8324,-4.8306,-4.8049,-4.7553,-4.7113,-4.6581,-4.5627,-4.515,-4.4433,-4.3993,-4.3736,-4.3479,-4.3479,-4.3479,-4.3479,-4.3479,-4.3479,-4.3479,-4.3479,-4.3479,-4.3479,-4.3479,-4.3479,-4.3479,-4.3479,-4.3479,-4.3479,-4.3479,-4.3479,-4.3479,-4.3479,-4.3479,-4.3479,-4.3479,-4.3479,-4.3479,-4.3513,-4.36,-4.3703,-4.3804,-4.3867,-4.4112,-4.4321,-4.4804,-4.5268,-4.6271,-4.733,-4.7813,-4.8129,-4.837,-4.8704,-4.889,-4.8891,-4.8874,-4.8785,-4.8732,-4.8624,-4.8532,-4.842,-4.8325,-4.8324,-4.8324,-4.8324,-4.8324,-4.8324,-4.8324,-4.8324,-4.8379,-4.8453,-4.8526,-4.8636,-4.9058,-4.9517,-4.9825,-5.0273,-5.1164,-5.1863,-5.2036,-5.2107,-5.2078,-5.1815,-5.1384,-5.1202,-5.107,-4.8324,-4.8324,-4.8324,-4.8324,-4.8324,-4.8324,-4.8324,-4.8324,-4.8324,-4.8324,-4.8324,-4.8324,-4.8324,-4.8324,-4.8324,-4.8324,-4.8324,-4.8324,-4.8324,-4.8324,-4.8324,-4.8324,-4.8324,-4.8324,-4.8324,-4.8324,-4.8324,-4.8324,-4.8324,-4.8324,-4.8324,-4.8324,-4.8324,-4.8196,-4.7938,-4.7608,-4.7113,-4.6452,-4.5553,-4.4892,-4.4433,-4.3864,-4.3571,-4.3479,-4.3479,-4.3479,-4.3479,-4.3479,-4.3479,-4.3479,-4.3479,-4.3479,-4.3479,-4.3479,-4.3479,-4.3479,-4.3479,-4.3479,-4.3479,-4.3479,-4.3479,-4.3479,-4.3479,-4.3479,-4.3479,-4.3479,-4.3496,-4.3566,-4.3651,-4.3736,-4.382,-4.4082,-4.4342,-4.4766,-4.5249,-4.6085,-4.7163,-4.7868,-4.8221,-4.85,-4.8704,-4.889,-4.889,-4.889,-4.8891,-4.8874,-4.8785,-4.8697,-4.8587,-4.8494,-4.8401,-4.8324,-4.8324,-4.8324,-4.8324,-4.8343,-4.86,-4.8673,-4.8673,-4.8746,-4.8802,-4.915,-4.9774,-5.0306,-5.0617,-5.1156,-5.1879,-5.2186,-5.2266,-5.2269,-5.2108,-5.1815,-5.141,-5.1324,-5.1149,-4.8324,-4.8324,-4.8324,-4.8324,-4.8324,-4.8324,-4.8324,-4.8324,-4.8324,-4.8324,-4.8324,-4.8324,-4.8324,-4.8324,-4.8324,-4.8324,-4.8324,-4.8324,-4.8324,-4.8324,-4.8324,-4.8324,-4.8324,-4.8324,-4.8324,-4.8324,-4.8324,-4.8324,-4.8324,-4.8324,-4.8324,-4.8324,-4.8324,-4.8324,-4.8233,-4.8086,-4.7626,-4.7003,-4.603,-4.5351,-4.4654,-4.3956,-4.3644,-4.3479,-4.3479,-4.3479,-4.3479,-4.3479,-4.3479,-4.3479,-4.3479,-4.3479,-4.3479,-4.3479,-4.3479,-4.3479,-4.3479,-4.3479,-4.3479,-4.3479,-4.3479,-4.3479,-4.3479,-4.3479,-4.3479,-4.3496,-4.3532,-4.3583,-4.3703,-4.3788,-4.3943,-4.417,-4.4639,-4.5231,-4.5807,-4.6717,-4.772,-4.8259,-4.8593,-4.8686,-4.889,-4.889,-4.889,-4.889,-4.889,-4.8891,-4.8856,-4.875,-4.8642,-4.8569,-4.8438,-4.8343,-4.8361,-4.8361,-4.8398,-4.8416,-4.8783,-4.904,-4.915,-4.9407,-4.9829,-5.0233,-5.0692,-5.113,-5.1545,-5.1935,-5.2426,-5.2531,-5.241,-5.2246,-5.206,-5.1765,-5.1487,-5.1359,-5.1123,-4.8324,-4.8324,-4.8324,-4.8324,-4.8324,-4.8324,-4.8324,-4.8324,-4.8324,-4.8324,-4.8324,-4.8324,-4.8324,-4.8324,-4.8324,-4.8324,-4.8324,-4.8324,-4.8324,-4.8324,-4.8324,-4.8324,-4.8324,-4.8324,-4.8324,-4.8324,-4.8324,-4.8324,-4.8324,-4.8324,-4.8324,-4.8324,-4.8324,-4.8324,-4.8288,-4.8233,-4.803,-4.7351,-4.6562,-4.5755,-4.4966,-4.4103,-4.3626,-4.3479,-4.3479,-4.3479,-4.3479,-4.3479,-4.3479,-4.3479,-4.3479,-4.3479,-4.3479,-4.3479,-4.3479,-4.3479,-4.3479,-4.3479,-4.3479,-4.3479,-4.3479,-4.3479,-4.3479,-4.3479,-4.3479,-4.3496,-4.3513,-4.3548,-4.3684,-4.3839,-4.4031,-4.4316,-4.5013,-4.5695,-4.6494,-4.7311,-4.7961,-4.8593,-4.8779,-4.8853,-4.889,-4.889,-4.889,-4.889,-4.889,-4.889,-4.8874,-4.8821,-4.8715,-4.8624,-4.8458,-4.8325,-4.8361,-4.8416,-4.8545,-4.8875,-4.9334,-4.9774,-4.9994,-5.0306,-5.082,-5.1206,-5.1555,-5.2022,-5.252,-5.2707,-5.2714,-5.2568,-5.241,-5.2246,-5.2036,-5.179,-5.1538,-5.1333,-5.1043,-4.8324,-4.8324,-4.8324,-4.8324,-4.8324,-4.8324,-4.8324,-4.8324,-4.8324,-4.8324,-4.8324,-4.8324,-4.8324,-4.8324,-4.8324,-4.8324,-4.8324,-4.8324,-4.8324,-4.8324,-4.8324,-4.8324,-4.8324,-4.8324,-4.8324,-4.8324,-4.8324,-4.8324,-4.8324,-4.8324,-4.8324,-4.8324,-4.8324,-4.8324,-4.8324,-4.8324,-4.8196,-4.7921,-4.6948,-4.6012,-4.548,-4.4544,-4.357,-4.3479,-4.3479,-4.3479,-4.3479,-4.3479,-4.3479,-4.3479,-4.3479,-4.3479,-4.3479,-4.3479,-4.3479,-4.3479,-4.3479,-4.3479,-4.3479,-4.3479,-4.3479,-4.3479,-4.3479,-4.3479,-4.3479,-4.3479,-4.3496,-4.3565,-4.3684,-4.4042,-4.4256,-4.4724,-4.5382,-4.6215,-4.707,-4.7794,-4.8407,-4.8797,-4.8834,-4.889,-4.889,-4.889,-4.889,-4.889,-4.889,-4.889,-4.8873,-4.8856,-4.8879,-4.8789,-4.8827,-4.8639,-4.8711,-4.8967,-4.9462,-4.9793,-5.0141,-5.049,-5.0784,-5.1187,-5.1646,-5.2013,-5.2362,-5.2645,-5.2849,-5.2799,-5.2743,-5.2577,-5.241,-5.2198,-5.2011,-5.1815,-5.1589,-5.1359,-5.099,-4.8324,-4.8324,-4.8324,-4.8324,-4.8324,-4.8324,-4.8324,-4.8324,-4.8324,-4.8324,-4.8324,-4.8324,-4.8324,-4.8324,-4.8324,-4.8324,-4.8324,-4.8324,-4.8324,-4.8324,-4.8324,-4.8324,-4.8324,-4.8324,-4.8324,-4.8324,-4.8324,-4.8324,-4.8324,-4.8324,-4.8324,-4.8324,-4.8324,-4.8324,-4.8324,-4.8324,-4.8288,-4.8233,-4.748,-4.6507,-4.5883,-4.5076,-4.4213,-4.3773,-4.3533,-4.3479,-4.3479,-4.3479,-4.3479,-4.3479,-4.3479,-4.3479,-4.3479,-4.3479,-4.3479,-4.3479,-4.3479,-4.3479,-4.3479,-4.3479,-4.3479,-4.3479,-4.3479,-4.3479,-4.3479,-4.3479,-4.3513,-4.36,-4.3832,-4.421,-4.4663,-4.5206,-4.5844,-4.6754,-4.7608,-4.824,-4.8834,-4.8853,-4.889,-4.889,-4.889,-4.889,-4.889,-4.889,-4.889,-4.889,-4.889,-4.893,-4.9119,-4.9177,-4.9621,-4.9525,-4.9373,-4.9647,-5.0196,-5.0637,-5.0949,-5.1316,-5.1646,-5.205,-5.2415,-5.2619,-5.2782,-5.2865,-5.298,-5.2872,-5.2739,-5.2618,-5.241,-5.218,-5.2011,-5.1864,-5.1564,-5.1324,-5.0936,-4.8324,-4.8324,-4.8324,-4.8324,-4.8324,-4.8324,-4.8324,-4.8324,-4.8324,-4.8324,-4.8324,-4.8324,-4.8324,-4.8324,-4.8324,-4.8324,-4.8324,-4.8324,-4.8324,-4.8324,-4.8324,-4.8324,-4.8324,-4.8324,-4.8324,-4.8324,-4.8324,-4.8324,-4.8324,-4.8324,-4.8324,-4.8324,-4.8324,-4.8324,-4.8324,-4.8324,-4.8324,-4.8288,-4.7791,-4.7204,-4.6361,-4.5424,-4.4635,-4.4066,-4.3736,-4.3608,-4.3479,-4.3479,-4.3479,-4.3479,-4.3479,-4.3479,-4.3479,-4.3479,-4.3479,-4.3479,-4.3479,-4.3479,-4.3479,-4.3479,-4.3479,-4.3479,-4.3479,-4.3479,-4.3479,-4.3479,-4.3496,-4.3603,-4.4186,-4.4621,-4.5167,-4.5712,-4.6518,-4.7387,-4.8036,-4.863,-4.8853,-4.8872,-4.889,-4.889,-4.889,-4.889,-4.889,-4.889,-4.889,-4.889,-4.889,-4.9243,-4.9415,-4.9824,-5.0212,-5.0487,-5.0388,-5.0567,-5.1114,-5.1463,-5.1701,-5.2087,-5.2417,-5.2637,-5.2837,-5.3002,-5.3164,-5.3103,-5.2999,-5.285,-5.2735,-5.2599,-5.241,-5.2156,-5.2036,-5.1914,-5.1615,-5.1298,-5.0936,-4.8324,-4.8324,-4.8324,-4.8324,-4.8324,-4.8324,-4.8324,-4.8324,-4.8324,-4.8324,-4.8324,-4.8324,-4.8324,-4.8324,-4.8324,-4.8324,-4.8324,-4.8324,-4.8324,-4.8324,-4.8324,-4.8324,-4.8324,-4.8324,-4.8324,-4.8324,-4.8324,-4.8324,-4.8324,-4.8324,-4.8324,-4.8324,-4.8324,-4.8324,-4.8324,-4.8324,-4.8324,-4.8324,-4.8067,-4.7846,-4.6911,-4.581,-4.515,-4.4599,-4.4085,-4.3644,-4.3552,-4.3479,-4.3479,-4.3479,-4.3479,-4.3479,-4.3479,-4.3479,-4.3479,-4.3479,-4.3479,-4.3479,-4.3479,-4.3479,-4.3479,-4.3479,-4.3479,-4.3497,-4.3497,-4.3626,-4.3643,-4.3954,-4.4557,-4.5068,-4.5634,-4.6346,-4.7173,-4.7872,-4.8446,-4.8834,-4.8872,-4.889,-4.889,-4.889,-4.889,-4.889,-4.889,-4.889,-4.8909,-4.8909,-4.9169,-4.954,-4.9969,-5.0583,-5.1082,-5.1411,-5.1532,-5.1783,-5.2107,-5.2179,-5.2344,-5.2582,-5.2876,-5.3057,-5.3185,-5.3185,-5.3185,-5.3143,-5.3039,-5.285,-5.2717,-5.2622,-5.2392,-5.2174,-5.206,-5.1938,-5.1607,-5.1272,-5.0963,-4.8324,-4.8324,-4.8324,-4.8324,-4.8324,-4.8324,-4.8324,-4.8324,-4.8324,-4.8324,-4.8324,-4.8324,-4.8324,-4.8324,-4.8324,-4.8324,-4.8324,-4.8324,-4.8324,-4.8324,-4.8324,-4.8324,-4.8324,-4.8324,-4.8324,-4.8324,-4.8324,-4.8324,-4.8324,-4.8324,-4.8324,-4.8324,-4.8324,-4.8324,-4.8324,-4.8324,-4.8324,-4.8324,-4.8324,-4.8122,-4.7938,-4.6929,-4.5883,-4.5205,-4.4563,-4.4066,-4.3718,-4.3497,-4.3479,-4.3479,-4.3479,-4.3479,-4.3479,-4.3479,-4.3479,-4.3479,-4.3479,-4.3479,-4.3479,-4.3479,-4.3479,-4.3479,-4.3497,-4.357,-4.3754,-4.4176,-4.4268,-4.4524,-4.5037,-4.5439,-4.606,-4.694,-4.7767,-4.8282,-4.8819,-4.8873,-4.889,-4.889,-4.889,-4.889,-4.889,-4.889,-4.889,-4.8927,-4.8983,-4.9113,-4.9559,-4.9949,-5.0507,-5.1213,-5.1916,-5.2207,-5.2495,-5.2778,-5.2989,-5.2803,-5.2913,-5.3112,-5.3185,-5.3185,-5.3185,-5.3185,-5.3185,-5.3164,-5.3017,-5.2828,-5.2694,-5.2622,-5.2457,-5.2264,-5.215,-5.1963,-5.1615,-5.1281,-5.1026]},{"header":{"parameterUnit":"m.s-1","parameterCategory":1,"la1":31.0,"la2":29.5877,"lo1":-88.7671,"lo2":-86.6584,"dy":0.0162,"dx":0.0185,"nx":115,"ny":88,"refTime":"2024-04-14T06:00:00:Z","depth":0,"parameterNumber":3,"parameterNumberName":"V-component_of_WINDS"},"data":[0.0,0.0,0.0,0.0,0.0,0.0,0.0,0.0,0.0,0.0,0.0,0.0,0.0,0.0,0.0,0.0,0.0,0.0,0.0,0.0,0.0,0.0,0.0,0.0,0.0,0.0,0.0,0.0,0.0,0.0,0.0,0.0,0.0,0.0,0.0,0.0,0.0,0.0,0.0,0.0,0.0,0.0,0.0,0.0,0.0,0.0,0.0,0.0,0.0,0.0,0.0,0.0,0.0,0.0,0.0,0.0,0.0,0.0,0.0,0.0,0.0,0.0,0.0,0.0,0.0,0.0,0.0,0.0,0.0,0.0,0.0,0.0,0.0,0.0,0.0,0.0,0.0,0.0,0.0,0.0,0.0,0.0,0.0,0.0,0.0,0.0,0.0,0.0,0.0,0.0,0.0,0.0,0.0,0.0,0.0,0.0,0.0,0.0,0.0,0.0,0.0,0.0,0.0,0.0,0.0,0.0,0.0,0.0,0.0,0.0,0.0,0.0,0.0,0.0,0.0,0.0,0.0,0.0,0.0,0.0,0.0,0.0,0.0,0.0,0.0,0.0,0.0,0.0,0.0,0.0,0.0,0.0,0.0,0.0,0.0,0.0,0.0,0.0,0.0,0.0,0.0,0.0,0.0,0.0,0.0,0.0,0.0,0.0,0.0,0.0,0.0,0.0,0.0,0.0,0.0,0.0,0.0,0.0,0.0,0.0,0.0,0.0,0.0,0.0,0.0,0.0,0.0,0.0,0.0,0.0,0.0,0.0,0.0,0.0,0.0,0.0,0.0,0.0,0.0,0.0,0.0,0.0,0.0,0.0,0.0,0.0,0.0,0.0,0.0,0.0,0.0,0.0,0.0,0.0,0.0,0.0,0.0,0.0,0.0,0.0,0.0,0.0,0.0,0.0,0.0,0.0,0.0,0.0,0.0,0.0,0.0,0.0,0.0,0.0,0.0,0.0,0.0,0.0,0.0,0.0,0.0,0.0,0.0,0.0,0.0,0.0,0.0,0.0,0.0,0.0,0.0,0.0,0.0,0.0,0.0,0.0,0.0,0.0,0.0,0.0,0.0,0.0,0.0,0.0,0.0,0.0,0.0,0.0,0.0,0.0,0.0,0.0,0.0,0.0,0.0,0.0,0.0,0.0,0.0,0.0,0.0,0.0,0.0,0.0,0.0,0.0,0.0,0.0,0.0,0.0,0.0,0.0,0.0,0.0,0.0,0.0,0.0,0.0,0.0,0.0,0.0,0.0,0.0,0.0,0.0,0.0,0.0,0.0,0.0,0.0,0.0,0.0,0.0,0.0,0.0,0.0,0.0,0.0,0.0,0.0,0.0,0.0,0.0,0.0,0.0,0.0,0.0,0.0,0.0,0.0,0.0,0.0,0.0,0.0,0.0,0.0,0.0,0.0,0.0,0.0,0.0,0.0,0.0,0.0,0.0,0.0,0.0,0.0,0.0,0.0,0.0,0.0,0.0,0.0,0.0,0.0,0.0,0.0,0.0,0.0,0.0,0.0,0.0,0.0,0.0,0.0,0.0,0.0,0.0,0.0,0.0,0.0,0.0,0.0,0.0,0.0,0.0,0.0,0.0,0.0,0.0,0.0,0.0,0.0,0.0,0.0,0.0,0.0,0.0,0.0,0.0,0.0,0.0,0.0,0.0,0.0,0.0,0.0,0.0,0.0,0.0,0.0,0.0,0.0,0.0,0.0,0.0,0.0,0.0,0.0,0.0,0.0,0.0,0.0,0.0,0.0,0.0,0.0,0.0,0.0,0.0,0.0,0.0,0.0,0.0,0.0,0.0,0.0,0.0,0.0,0.0,0.0,0.0,0.0,0.0,0.0,0.0,0.0,0.0,0.0,0.0,0.0,0.0,0.0,0.0,0.0,0.0,0.0,0.0,0.0,0.0,0.0,0.0,0.0,0.0,0.0,0.0,0.0,0.0,0.0,0.0,0.0,0.0,0.0,0.0,0.0,0.0,0.0,0.0,0.0,0.0,0.0,0.0,0.0,0.0,0.0,0.0,0.0,0.0,0.0,0.0,0.0,0.0,0.0,0.0,0.0,0.0,0.0,0.0,0.0,0.0,0.0,0.0,0.0,0.0,0.0,0.0,0.0,0.0,0.0,0.0,0.0,0.0,0.0,0.0,0.0,0.0,0.0,0.0,0.0,0.0,0.0,0.0,0.0,0.0,0.0,0.0,0.0,0.0,0.0,0.0,0.0,0.0,0.0,0.0,0.0,0.0,0.0,0.0,0.0,0.0,0.0,0.0,0.0,0.0,0.0,0.0,0.0,0.0,0.0,0.0,0.0,0.0,0.0,0.0,0.0,0.0,0.0,0.0,0.0,0.0,0.0,0.0,0.0,0.0,0.0,0.0,0.0,0.0,0.0,0.0,0.0,0.0,0.0,0.0,0.0,0.0,0.0,0.0,0.0,0.0,0.0,0.0,0.0,0.0,0.0,0.0,0.0,0.0,0.0,0.0,0.0,0.0,0.0,0.0,0.0,0.0,0.0,0.0,0.0,0.0,0.0,0.0,0.0,0.0,0.0,0.0,0.0,0.0,0.0,0.0,0.0,0.0,0.0,0.0,0.0,0.0,0.0,0.0,0.0,0.0,0.0,0.0,0.0,0.0,0.0,0.0,0.0,0.0,0.0,0.0,0.0,0.0,0.0,0.0,0.0,0.0,0.0,0.0,0.0,0.0,0.0,0.0,0.0,0.0,0.0,0.0,0.0,0.0,0.0,0.0,0.0,0.0,0.0,0.0,0.0,0.0,0.0,0.0,0.0,0.0,0.0,0.0,0.0,0.0,0.0,0.0,0.0,0.0,0.0,0.0,0.0,0.0,0.0,0.0,0.0,0.0,0.0,0.0,0.0,0.0,0.0,0.0,0.0,0.0,0.0,0.0,0.0,0.0,0.0,0.0,0.0,0.0,0.0,0.0,0.0,0.0,0.0,0.0,0.0,0.0,0.0,0.0,0.0,0.0,0.0,0.0,0.0,0.0,0.0,0.0,0.0,0.0,0.0,0.0,0.0,0.0,0.0,0.0,0.0,0.0,0.0,0.0,0.0,0.0,0.0,0.0,0.0,0.0,0.0,0.0,0.0,0.0,0.0,0.0,0.0,0.0,0.0,0.0,0.0,0.0,0.0,0.0,0.0,0.0,0.0,0.0,0.0,0.0,0.0,0.0,0.0,0.0,0.0,0.0,0.0,0.0,0.0,0.0,0.0,0.0,0.0,0.0,0.0,0.0,0.0,0.0,0.0,0.0,0.0,0.0,0.0,0.0,0.0,0.0,0.0,0.0,0.0,0.0,0.0,0.0,0.0,0.0,0.0,0.0,0.0,0.0,0.0,0.0,0.0,0.0,0.0,0.0,0.0,0.0,0.0,0.0,0.0,0.0,0.0,0.0,0.0,0.0,0.0,0.0,0.0,0.0,0.0,0.0,0.0,0.0,0.0,0.0,0.0,0.0,0.0,0.0,0.0,0.0,0.0,0.0,0.0,0.0,0.0,0.0,0.0,0.0,0.0,0.0,0.0,0.0,0.0,0.0,0.0,0.0,0.0,0.0,0.0,0.0,0.0,0.0,0.0,0.0,0.0,0.0,0.0,0.0,0.0,0.0,0.0,0.0,0.0,0.0,0.0,0.0,0.0,0.0,0.0,0.0,0.0,0.0,0.0,0.0,0.0,0.0,0.0,0.0,0.0,0.0,0.0,0.0,0.0,0.0,0.0,0.0,0.0,0.0,0.0,0.0,0.0,0.0,0.0,0.0,0.0,0.0,0.0,0.0,0.0,0.0,0.0,0.0,0.0,0.0,0.0,0.0,0.0,0.0,0.0,0.0,0.0,0.0,0.0,0.0,0.0,0.0,0.0,0.0,0.0,0.0,0.0,0.0,0.0,0.0,0.0,0.0,0.0,0.0,0.0,0.0,0.0,0.0,0.0,0.0,0.0,0.0,0.0,0.0,0.0,0.0,0.0,0.0,0.0,0.0,0.0,0.0,0.0,0.0,0.0,0.0,0.0,0.0,0.0,0.0,0.0,0.0,0.0,0.0,0.0,0.0,0.0,0.0,0.0,0.0,0.0,0.0,0.0,0.0,0.0,0.0,0.0,0.0,0.0,0.0,0.0,0.0,0.0,0.0,0.0,0.0,0.0,0.0,0.0,0.0,0.0,0.0,0.0,0.0,0.0,0.0,0.0,0.0,0.0,0.0,0.0,0.0,0.0,0.0,0.0,0.0,0.0,0.0,0.0,0.0,0.0,0.0,0.0,-1.1548,0.0,0.0,0.0,0.0,0.0,0.0,0.0,0.0,0.0,0.0,0.0,0.0,0.0,0.0,0.0,0.0,0.0,0.0,0.0,0.0,0.0,0.0,0.0,0.0,0.0,0.0,0.0,0.0,0.0,0.0,0.0,0.0,0.0,0.0,0.0,0.0,0.0,0.0,0.0,0.0,0.0,0.0,0.0,0.0,0.0,0.0,0.0,0.0,0.0,0.0,0.0,0.0,0.0,0.0,0.0,0.0,0.0,0.0,0.0,0.0,0.0,0.0,0.0,0.0,0.0,0.0,0.0,0.0,0.0,0.0,0.0,0.0,0.0,0.0,0.0,0.0,0.0,0.0,0.0,0.0,0.0,0.0,0.0,0.0,0.0,0.0,0.0,0.0,0.0,0.0,0.0,0.0,0.0,0.0,0.0,0.0,0.0,0.0,0.0,0.0,0.0,0.0,0.0,0.0,0.0,0.0,0.0,0.0,0.0,0.0,-1.0603,-1.075,-1.075,-1.0818,-1.0962,0.0,0.0,0.0,0.0,0.0,0.0,0.0,0.0,0.0,0.0,0.0,0.0,0.0,0.0,0.0,0.0,0.0,0.0,0.0,0.0,0.0,0.0,0.0,0.0,0.0,0.0,0.0,0.0,0.0,0.0,0.0,0.0,0.0,0.0,0.0,0.0,0.0,0.0,0.0,0.0,0.0,0.0,0.0,0.0,0.0,0.0,0.0,0.0,0.0,0.0,0.0,0.0,0.0,0.0,0.0,0.0,0.0,0.0,0.0,0.0,0.0,0.0,0.0,0.0,0.0,0.0,0.0,0.0,0.0,0.0,0.0,0.0,0.0,0.0,0.0,0.0,0.0,0.0,0.0,0.0,0.0,0.0,0.0,0.0,0.0,0.0,0.0,0.0,0.0,0.0,0.0,0.0,0.0,0.0,0.0,0.0,0.0,0.0,0.0,0.0,0.0,0.0,0.0,0.0,0.0,0.0,0.0,0.0,0.0,0.0,0.0,0.0,-1.0383,-1.0383,-1.0527,0.0,0.0,0.0,0.0,0.0,0.0,0.0,0.0,0.0,0.0,0.0,0.0,0.0,0.0,0.0,0.0,0.0,0.0,0.0,0.0,0.0,0.0,0.0,0.0,0.0,0.0,0.0,0.0,0.0,0.0,0.0,0.0,0.0,0.0,0.0,0.0,0.0,0.0,0.0,0.0,0.0,0.0,0.0,0.0,0.0,0.0,0.0,0.0,0.0,0.0,0.0,0.0,0.0,0.0,0.0,0.0,0.0,0.0,0.0,0.0,0.0,0.0,0.0,0.0,0.0,0.0,0.0,0.0,0.0,0.0,0.0,0.0,0.0,0.0,0.0,0.0,0.0,0.0,0.0,0.0,0.0,0.0,0.0,0.0,0.0,0.0,0.0,0.0,0.0,0.0,0.0,0.0,0.0,0.0,0.0,0.0,0.0,0.0,0.0,0.0,0.0,0.0,0.0,0.0,0.0,0.0,0.0,0.0,0.0,0.0,-0.9593,-0.9951,-0.9951,0.0,-1.0455,0.0,0.0,0.0,0.0,0.0,0.0,0.0,0.0,0.0,0.0,0.0,0.0,0.0,0.0,0.0,0.0,0.0,0.0,0.0,0.0,0.0,0.0,0.0,0.0,0.0,0.0,0.0,0.0,0.0,0.0,0.0,0.0,0.0,0.0,0.0,0.0,0.0,0.0,0.0,0.0,0.0,0.0,0.0,0.0,0.0,0.0,0.0,0.0,0.0,0.0,0.0,0.0,0.0,0.0,0.0,0.0,0.0,0.0,0.0,0.0,0.0,0.0,0.0,0.0,0.0,0.0,0.0,0.0,0.0,0.0,0.0,0.0,0.0,0.0,0.0,0.0,0.0,0.0,0.0,0.0,0.0,0.0,0.0,0.0,0.0,0.0,0.0,0.0,0.0,0.0,0.0,0.0,0.0,0.0,0.0,0.0,0.0,0.0,0.0,0.0,0.0,0.0,0.0,0.0,0.0,0.0,0.0,0.0,0.0,0.0,-0.8657,-0.8801,-0.909,-0.9374,0.0,0.0,0.0,0.0,0.0,0.0,0.0,0.0,0.0,0.0,0.0,0.0,0.0,0.0,0.0,0.0,0.0,0.0,0.0,0.0,0.0,0.0,0.0,0.0,0.0,0.0,0.0,0.0,0.0,0.0,0.0,0.0,0.0,0.0,0.0,0.0,0.0,0.0,0.0,0.0,0.0,0.0,0.0,0.0,0.0,0.0,0.0,0.0,0.0,0.0,0.0,0.0,0.0,0.0,0.0,0.0,0.0,0.0,0.0,0.0,0.0,0.0,0.0,0.0,0.0,0.0,0.0,0.0,0.0,0.0,0.0,0.0,0.0,0.0,0.0,0.0,0.0,0.0,0.0,0.0,0.0,0.0,0.0,0.0,0.0,0.0,0.0,0.0,0.0,0.0,0.0,0.0,0.0,0.0,0.0,0.0,0.0,0.0,0.0,0.0,0.0,0.0,0.0,0.0,0.0,0.0,0.0,0.0,0.0,0.0,-0.808,-0.808,-0.808,-0.8367,-0.8729,-0.916,0.0,0.0,0.0,0.0,0.0,0.0,0.0,0.0,0.0,0.0,0.0,0.0,0.0,0.0,0.0,0.0,0.0,0.0,0.0,0.0,0.0,0.0,0.0,0.0,0.0,0.0,0.0,0.0,0.0,0.0,0.0,0.0,0.0,0.0,0.0,0.0,0.0,0.0,0.0,0.0,0.0,0.0,0.0,0.0,0.0,0.0,0.0,0.0,0.0,0.0,0.0,0.0,0.0,0.0,0.0,0.0,0.0,0.0,0.0,0.0,0.0,0.0,0.0,0.0,0.0,0.0,0.0,0.0,0.0,0.0,0.0,0.0,0.0,0.0,0.0,0.0,0.0,0.0,0.0,0.0,0.0,0.0,0.0,0.0,0.0,0.0,0.0,0.0,0.0,0.0,0.0,0.0,0.0,0.0,0.0,0.0,0.0,0.0,0.0,0.0,0.0,0.0,0.0,0.0,0.0,0.0,0.0,0.0,-0.808,-0.808,-0.808,-0.808,-0.808,-0.8297,0.0,0.0,0.0,0.0,0.0,0.0,0.0,0.0,0.0,0.0,0.0,0.0,0.0,0.0,0.0,0.0,0.0,0.0,0.0,0.0,0.0,0.0,0.0,0.0,0.0,0.0,0.0,0.0,0.0,0.0,0.0,0.0,0.0,0.0,0.0,0.0,0.0,0.0,0.0,0.0,0.0,0.0,0.0,0.0,0.0,0.0,0.0,0.0,0.0,0.0,0.0,0.0,0.0,0.0,0.0,0.0,0.0,0.0,0.0,0.0,0.0,0.0,0.0,0.0,0.0,0.0,0.0,0.0,0.0,0.0,0.0,0.0,0.0,0.0,0.0,0.0,0.0,0.0,0.0,0.0,0.0,0.0,0.0,0.0,0.0,0.0,0.0,0.0,0.0,0.0,0.0,0.0,0.0,0.0,0.0,0.0,0.0,0.0,0.0,0.0,0.0,0.0,0.0,0.0,0.0,0.0,0.0,0.0,0.0,-0.6626,-0.6626,-0.6773,-0.6992,-0.728,-0.757,0.0,0.0,0.0,0.0,0.0,0.0,0.0,0.0,0.0,0.0,0.0,0.0,0.0,0.0,0.0,0.0,0.0,0.0,0.0,0.0,0.0,0.0,0.0,0.0,0.0,0.0,0.0,0.0,0.0,0.0,0.0,0.0,0.0,0.0,0.0,0.0,0.0,0.0,0.0,0.0,0.0,0.0,0.0,0.0,0.0,0.0,0.0,0.0,0.0,0.0,0.0,0.0,0.0,0.0,0.0,0.0,0.0,0.0,0.0,0.0,0.0,0.0,0.0,0.0,0.0,0.0,0.0,0.0,0.0,0.0,0.0,0.0,0.0,0.0,0.0,0.0,0.0,0.0,0.0,0.0,0.0,0.0,0.0,0.0,0.0,0.0,0.0,0.0,0.0,0.0,0.0,0.0,0.0,0.0,0.0,0.0,0.0,0.0,0.0,0.0,0.0,0.0,0.0,0.0,0.0,0.0,0.0,0.0,0.0,-0.5396,0.0,-0.5685,-0.5972,-0.6474,-0.69,0.0,0.0,0.0,0.0,0.0,0.0,0.0,0.0,0.0,0.0,0.0,0.0,0.0,0.0,0.0,0.0,0.0,0.0,0.0,0.0,0.0,0.0,0.0,0.0,0.0,0.0,0.0,0.0,0.0,0.0,0.0,0.0,0.0,0.0,0.0,0.0,0.0,0.0,0.0,0.0,0.0,0.0,0.0,0.0,0.0,0.0,0.0,0.0,0.0,0.0,0.0,0.0,0.0,0.0,0.0,0.0,0.0,0.0,0.0,0.0,0.0,0.0,0.0,0.0,0.0,0.0,0.0,0.0,0.0,0.0,0.0,0.0,0.0,0.0,0.0,0.0,0.0,0.0,0.0,0.0,0.0,0.0,0.0,0.0,0.0,0.0,0.0,0.0,0.0,0.0,0.0,0.0,0.0,0.0,0.0,0.0,0.0,0.0,0.0,0.0,0.0,0.0,0.0,0.0,0.0,0.0,0.0,0.0,-0.4972,-0.4628,-0.4908,-0.5054,-0.5116,-0.582,-0.6376,0.0,0.0,0.0,0.0,0.0,0.0,0.0,0.0,0.0,0.0,0.0,0.0,0.0,0.0,0.0,0.0,0.0,0.0,0.0,0.0,0.0,0.0,0.0,0.0,0.0,0.0,0.0,0.0,0.0,0.0,0.0,0.0,0.0,0.0,0.0,0.0,0.0,0.0,0.0,0.0,0.0,0.0,0.0,0.0,0.0,0.0,0.0,0.0,0.0,0.0,0.0,0.0,0.0,0.0,0.0,0.0,0.0,0.0,0.0,0.0,0.0,0.0,0.0,0.0,0.0,0.0,0.0,0.0,0.0,0.0,0.0,0.0,0.0,0.0,0.0,0.0,0.0,0.0,0.0,0.0,0.0,0.0,0.0,0.0,0.0,0.0,0.0,0.0,0.0,0.0,0.0,0.0,0.0,0.0,0.0,0.0,0.0,0.0,0.0,0.0,0.0,0.0,0.0,0.0,0.0,0.0,0.0,0.0,0.0,-0.3784,-0.3855,-0.4204,-0.4624,-0.4902,-0.5461,0.0,0.0,0.0,0.0,0.0,0.0,0.0,0.0,0.0,0.0,0.0,0.0,0.0,0.0,0.0,0.0,0.0,0.0,0.0,0.0,0.0,0.0,0.0,0.0,0.0,0.0,0.0,0.0,0.0,0.0,0.0,0.0,0.0,0.0,0.0,0.0,0.0,0.0,0.0,0.0,0.0,0.0,0.0,0.0,0.0,0.0,0.0,0.0,0.0,0.0,0.0,0.0,0.0,0.0,0.0,0.0,0.0,0.0,0.0,0.0,0.0,0.0,0.0,0.0,0.0,0.0,0.0,0.0,0.0,0.0,0.0,0.0,0.0,0.0,0.0,0.0,0.0,0.0,0.0,0.0,0.0,0.0,0.0,0.0,0.0,0.0,0.0,0.0,0.0,0.0,0.0,0.0,0.0,0.0,0.0,0.0,0.0,0.0,0.0,0.0,0.0,0.0,0.0,0.0,0.0,0.0,0.0,0.0,0.0,-0.2485,-0.2831,-0.3176,-0.3659,-0.4141,-0.4761,-0.5452,0.0,0.0,0.0,0.0,0.0,0.0,0.0,0.0,0.0,0.0,0.0,0.0,0.0,0.0,0.0,0.0,0.0,0.0,0.0,0.0,0.0,0.0,0.0,0.0,0.0,0.0,0.0,0.0,0.0,0.0,0.0,0.0,0.0,0.0,0.0,0.0,0.0,0.0,0.0,0.0,0.0,0.0,0.0,0.0,0.0,0.0,0.0,0.0,0.0,0.0,0.0,0.0,0.0,0.0,0.0,0.0,0.0,0.0,0.0,0.0,0.0,0.0,0.0,0.0,0.0,0.0,0.0,0.0,0.0,0.0,0.0,0.0,0.0,0.0,0.0,0.0,0.0,0.0,0.0,0.0,0.0,0.0,0.0,0.0,0.0,0.0,0.0,0.0,0.0,0.0,0.0,0.0,0.0,0.0,0.0,0.0,0.0,0.0,0.0,0.0,0.0,0.0,0.0,0.0,0.0,0.0,0.0,0.0,-0.101,-0.1751,-0.2156,-0.2223,-0.3501,-0.4241,0.0,0.0,0.0,0.0,0.0,0.0,0.0,0.0,0.0,0.0,0.0,0.0,0.0,0.0,0.0,0.0,0.0,0.0,0.0,0.0,0.0,0.0,0.0,0.0,0.0,0.0,0.0,0.0,0.0,0.0,0.0,0.0,0.0,0.0,0.0,0.0,0.0,0.0,0.0,0.0,0.0,0.0,0.0,0.0,0.0,0.0,0.0,0.0,0.0,0.0,0.0,0.0,0.0,0.0,0.0,0.0,0.0,0.0,0.0,0.0,0.0,0.0,0.0,0.0,0.0,0.0,0.0,0.0,0.0,0.0,0.0,0.0,0.0,0.0,0.0,0.0,0.0,0.0,0.0,0.0,0.0,0.0,0.0,0.0,0.0,0.0,0.0,0.0,0.0,0.0,0.0,0.0,0.0,0.0,0.0,0.0,0.0,0.0,0.0,0.0,0.0,0.0,0.0,0.0,0.0,0.0,0.0,0.0,0.0,-0.0269,-0.0741,-0.1346,-0.2155,-0.2558,-0.3231,0.0,0.0,0.0,0.0,0.0,0.0,0.0,0.0,0.0,0.0,0.0,0.0,0.0,0.0,0.0,0.0,0.0,0.0,0.0,0.0,0.0,0.0,0.0,0.0,0.0,0.0,0.0,0.0,0.0,0.0,0.0,0.0,0.0,0.0,0.0,0.0,0.0,0.0,0.0,0.0,0.0,0.0,0.0,0.0,0.0,0.0,0.0,0.0,0.0,0.0,0.0,0.0,0.0,0.0,0.0,0.0,0.0,0.0,0.0,0.0,0.0,0.0,0.0,0.0,0.0,0.0,0.0,0.0,0.0,0.0,0.0,0.0,0.0,0.0,0.0,0.0,0.0,0.0,0.0,0.0,0.0,0.0,0.0,0.0,0.0,0.0,0.0,0.0,0.0,0.0,0.0,0.0,0.0,0.0,0.0,0.0,0.0,0.0,0.0,0.0,0.0,0.0,0.0,0.0,0.0,0.0,0.0,0.0,0.0,0.0,-0.0202,-0.0673,-0.1481,-0.1953,-0.2558,0.0,0.0,0.0,0.0,0.0,0.0,0.0,0.0,0.0,0.0,0.0,0.0,0.0,0.0,0.0,0.0,0.0,0.0,0.0,0.0,0.0,0.0,0.0,0.0,0.0,0.0,0.0,0.0,0.0,0.0,0.0,0.0,0.0,0.0,0.0,0.0,0.0,0.0,0.0,0.0,0.0,0.0,0.0,0.0,0.0,0.0,0.0,0.0,0.0,0.0,0.0,0.0,0.0,0.0,0.0,0.0,0.0,0.0,0.0,0.0,0.0,0.0,0.0,0.0,0.0,0.0,0.0,0.0,0.0,0.0,0.0,0.0,0.0,0.0,0.0,0.0,0.0,0.0,0.0,0.0,0.0,0.0,0.0,0.0,0.0,0.0,0.0,0.0,0.0,0.0,0.0,0.0,0.0,0.0,0.0,0.0,0.0,0.0,0.0,0.0,0.0,0.0,0.0,0.0,0.0,0.0,0.0,0.0,0.0,0.0,0.0,-0.0135,-0.0471,-0.1481,-0.2087,0.0,0.0,0.0,0.0,0.0,0.0,0.0,0.0,0.0,0.0,0.0,0.0,0.0,0.0,0.0,0.0,0.0,0.0,0.0,0.0,0.0,0.0,0.0,0.0,0.0,0.0,0.0,0.0,0.0,0.0,0.0,0.0,0.0,0.0,0.0,0.0,0.0,0.0,0.0,0.0,0.0,0.0,0.0,0.0,0.0,0.0,0.0,0.0,0.0,0.0,0.0,0.0,0.0,0.0,0.0,0.0,0.0,0.0,0.0,0.0,0.0,0.0,0.0,0.0,0.0,0.0,0.0,0.0,0.0,0.0,0.0,0.0,0.0,0.0,0.0,0.0,0.0,0.0,0.0,0.0,0.0,0.0,0.0,0.0,0.0,0.0,0.0,0.0,0.0,0.0,0.0,0.0,0.0,0.0,0.0,0.0,0.0,0.0,0.0,0.0,0.0,0.0,0.0,0.0,0.0,0.0,0.0,0.0,0.0,0.0,0.0,-0.0067,-0.0135,-0.0606,-0.1279,0.0,0.0,0.0,0.0,0.0,0.0,0.0,0.0,0.0,0.0,0.0,0.0,0.0,0.0,0.0,0.0,0.0,0.0,0.0,0.0,0.0,0.0,0.0,0.0,0.0,0.0,0.0,0.0,0.0,0.0,0.0,0.0,0.0,0.0,0.0,0.0,0.0,0.0,0.0,0.0,0.0,0.0,0.0,0.0,0.0,0.0,0.0,0.0,0.2286,0.0,0.0,0.0,0.0,0.0,0.0,0.0,0.0,0.0,0.0,0.0,0.0,0.0,0.0,0.0,0.0,0.0,0.0,0.0,0.0,0.0,0.0,0.0,0.0,0.0,0.0,0.0,0.0,0.0,0.0,0.0,0.0,0.0,0.0,0.0,0.0,0.0,0.0,0.0,0.0,0.0,0.0,0.0,0.0,0.0,0.0,0.0,0.0,0.0,0.0,0.0,0.0,0.0,0.0,0.0,0.0,0.0,0.0,0.0,0.0539,0.0539,0.0337,0.0202,0.0202,-0.0067,-0.0741,0.0,0.0,0.0,0.0,0.0,0.0,0.0,0.0,0.0,0.0,0.0,0.0,0.0,0.0,0.0,0.0,0.0,0.0,0.0,0.0,0.0,0.0,0.0,0.0,0.0,0.0,0.0,0.0,0.0,0.0,0.0,0.0,0.0,0.0,0.0,0.0,0.0,0.0,0.0,0.0,0.0,0.0,0.0,0.0,0.0,0.0,0.0,0.0,0.0,0.0,0.0,0.0,0.0,0.0,0.0,0.0,0.0,0.0,0.0,0.0,0.0,0.0,0.0,0.0,0.0,0.0,0.0,0.0,0.0,0.0,0.0,0.0,0.0,0.0,0.0,0.0,0.0,0.0,0.0,0.0,0.0,0.0,0.0,0.0,0.0,0.0,0.0,0.0,0.0,0.0,0.0,0.0,0.0,0.0,0.0,0.0,0.0,0.0,0.0,0.0,0.0,0.0,0.0,0.0,0.0,0.0,0.0,0.0943,0.1077,0.1077,0.0739,0.0537,0.0604,0.0268,-0.0201,-0.0936,0.0,0.0,0.0,0.0,0.0,0.0,0.0,0.0,0.0,0.0,0.0,0.0,0.0,0.0,0.0,0.0,0.0,0.0,0.0,0.0,0.0,0.0,0.0,0.0,0.0,0.0,0.0,0.0,0.0,0.0,0.0,0.0,0.0,0.0,0.0,0.0,0.0,0.0,0.0268,0.1059,0.0,0.0,0.0,0.0,0.0,0.0,0.0,0.0,0.3995,0.0,0.0,0.0,0.0,0.0,0.0,0.0,0.0,0.0,0.0,0.0,0.0,0.0,0.0,0.0,0.0,0.0,0.0,0.0,0.0,0.0,0.0,0.0,0.0,0.0,0.0,0.0,0.0,0.0,0.0,0.0,0.0,0.0,0.0,0.0,0.0,0.0,0.0,0.0,0.0,0.0,0.0,0.0,0.0,0.0,0.0,0.0,0.0,0.0,0.0,0.0,0.0,0.0,0.0,0.0,0.0,0.101,0.1077,0.1077,0.1077,0.0998,0.0926,0.0926,0.085,0.052,-0.0195,0.0,0.0,0.0,0.0,0.0,0.0,0.0,0.0,0.0,0.0,0.0,0.0,0.0,0.0,0.0,0.0,0.0,0.0,0.0,0.0,0.0,0.0,0.0,0.0,0.0,0.0,0.0,0.0,0.0,0.0,0.0,0.0,0.0,0.0,0.0,0.0,0.0,0.0,0.0,0.2074,0.2589,0.0,0.0,0.0,0.0,0.0,0.0,0.0,0.0,0.4904,0.0,0.0,0.0,0.0,0.0,0.0,0.0,0.0,0.0,0.0,0.0,0.0,0.0,0.0,0.0,0.0,0.0,0.0,0.0,0.0,0.0,0.0,0.0,0.0,0.0,0.0,0.0,0.0,0.0,0.0,0.0,0.0,0.0,0.0,0.0,0.0,0.0,0.0,0.0,0.0,0.0,0.0,0.0,0.0,0.0,0.0,0.0,0.0,0.0,0.0,0.0,0.0,0.0,0.0,0.0,0.1599,0.1798,0.1858,0.1844,0.1635,0.1434,0.1238,0.11,0.0838,0.0,0.0,0.0,0.0,0.0,0.0,0.0,0.0,0.0,0.0,0.0,0.0,0.0,0.0,0.0,0.0,0.0,0.0,0.0,0.0,0.0,0.0,0.0,0.0,0.0,0.0,0.0,0.0,0.0,0.0,0.0,0.0,0.0,0.0,0.0,0.0,0.0,0.0,0.0,0.0,0.3074,0.3441,0.3951,0.0,0.0,0.0,0.0,0.0,0.0,0.5918,0.6043,0.0,0.0,0.0,0.0,0.0,0.0,0.0,0.0,0.0,0.0,0.0,0.0,0.0,0.0,0.0,0.0,0.0,0.0,0.0,0.0,0.0,0.0,0.0,0.0,0.0,0.0,0.0,0.0,0.0,0.0,0.0,0.0,0.0,0.0,0.0,0.0,0.0,0.0,0.0,0.0,0.0,0.0,0.0,0.0,0.0,0.0,0.0,0.0,0.0,0.0,0.0,0.0,0.0,0.0,0.0,0.2298,0.256,0.2676,0.271,0.2379,0.2055,0.1798,0.1537,0.1342,0.0,0.0,0.0,0.0,0.0,0.0,0.0,0.0,0.0,0.0,0.0,0.0,0.0,0.0,0.0,0.0,0.0,0.0,0.0,0.0,0.0,0.0,0.0,0.0,0.0,0.0,0.0,0.0,0.0,0.0,0.0,0.0,0.0,0.0,0.0,0.0,0.0,0.0,0.0,0.0,0.0,0.4394,0.4707,0.5277,0.0,0.0,0.0,0.0,0.6589,0.6896,0.0,0.0,0.0,0.0,0.0,0.0,0.0,0.0,0.0,0.0,0.0,0.0,0.0,0.0,0.0,0.0,0.0,0.0,0.0,0.0,0.0,0.0,0.0,0.0,0.0,0.0,0.0,0.0,0.0,0.0,0.0,0.0,0.0,0.0,0.0,0.0,0.0,0.0,0.0,0.0,0.0,0.0,0.0,0.0,0.0,0.0,0.0,0.0,0.0,0.0,0.0,0.0,0.0,0.0,0.0,0.0,0.2977,0.3041,0.3038,0.3032,0.2931,0.2847,0.2846,0.281,0.248,0.0,0.0,0.0,0.0,0.0,0.0,0.0,0.0,0.0,0.0,0.0,0.0,0.0,0.0,0.0,0.0,0.0,0.0,0.0,0.0,0.0,0.0,0.0,0.0,0.0,0.0,0.0,0.0,0.0,0.0,0.0,0.0,0.0,0.0,0.0,0.0,0.0,0.0,0.0,0.0,0.0,0.5375,0.5684,0.6046,0.6405,0.0,0.0,0.7263,0.7263,0.7566,0.0,0.0,0.0,0.0,0.0,0.0,0.0,0.0,0.0,0.0,0.0,0.0,0.0,0.0,0.0,0.0,0.0,0.0,0.0,0.0,0.0,0.0,0.0,0.0,0.0,0.0,0.0,0.0,0.0,0.0,0.0,0.0,0.0,0.0,0.0,0.0,0.0,0.0,0.0,0.0,0.0,0.0,0.0,0.0,0.0,0.0,0.0,0.0,0.0,0.0,0.0,0.0,0.0,0.0,0.0,0.349,0.3888,0.3886,0.387,0.3838,0.3812,0.3612,0.3302,0.3281,0.3023,0.0,0.0,0.0,0.0,0.0,0.0,0.0,0.0,0.0,0.0,0.0,0.0,0.0,0.0,0.0,0.0,0.0,0.0,0.0,0.0,0.0,0.0,0.0,0.0,0.0,0.0,0.0,0.0,0.0,0.0,0.0,0.0,0.0,0.0,0.0,0.0,0.0,0.0,0.0,0.0,0.0,0.0,0.665,0.7016,0.0,0.0,0.0,0.8244,0.8241,0.0,0.0,0.0,0.0,0.0,0.0,0.0,0.0,0.0,0.0,0.0,0.0,0.0,0.0,0.0,0.0,0.0,0.0,0.0,0.0,0.0,0.0,0.0,0.0,0.0,0.0,0.0,0.0,0.0,0.0,0.0,0.0,0.0,0.0,0.0,0.0,0.0,0.0,0.0,0.0,0.0,0.0,0.0,0.0,0.0,0.0,0.0,0.0,0.0,0.0,0.0,0.0,0.0,0.0,0.0,0.0,0.0,0.4705,0.4685,0.4711,0.4721,0.464,0.4328,0.3903,0.3842,0.0,0.0,0.0,0.0,0.0,0.0,0.0,0.0,0.0,0.0,0.0,0.0,0.0,0.0,0.0,0.0,0.0,0.0,0.0,0.0,0.0,0.0,0.0,0.0,0.0,0.0,0.0,0.0309,0.0,0.0,0.0,0.0,0.0,0.0,0.0,0.0,0.0,0.0,0.0,0.0,0.0,0.0,0.6875,0.7422,0.7843,0.8202,0.0,0.0,0.9112,0.9112,0.9207,0.929,0.0,0.0,0.0,0.0,0.0,0.0,0.0,0.0,0.0,0.0,0.0,0.0,0.0,0.0,0.0,0.0,0.0,0.0,0.0,0.0,0.0,0.0,0.0,0.0,0.0,0.0,0.0,0.0,0.0,0.0,0.0,0.0,0.0,0.0,0.0,0.0,0.0,0.0,0.0,0.0,0.0,0.0,0.0,0.0,0.0,0.0,0.0,0.0,0.0,0.0,0.0,0.0,0.0,0.0,0.0,0.5308,0.5231,0.5313,0.5608,0.5234,0.502,0.4961,0.4724,0.4517,0.0,0.0,0.0,0.0,0.0,0.0,0.0,0.0,0.0,0.0,0.0,0.0,0.0,0.0,0.0,0.0,0.0,0.0,0.0,0.0,0.0,0.0,0.0,0.0,0.0,0.0,0.0,0.0,0.0,0.0,0.0,0.0,0.0,0.0,0.0,0.0,0.0,0.0,0.0,0.0,0.0,0.754,0.783,0.8359,0.8767,0.0,0.0,0.9757,0.9757,1.0116,1.0272,0.9979,0.0,0.0,0.0,0.0,0.0,0.0,0.0,0.0,0.0,0.0,0.0,0.0,0.0,0.0,0.0,0.0,0.0,0.0,0.0,0.0,0.0,0.0,0.0,0.0,0.0,0.0,0.0,0.0,0.0,0.0,0.0,0.0,0.0,0.0,0.0,0.0,0.0,0.0,0.0,0.0,0.0,0.0,0.0,0.0,0.0,0.0,0.0,0.0,0.0,0.0,0.0,0.0,0.0,0.5863,0.6194,0.6098,0.6048,0.6169,0.6014,0.5881,0.5649,0.553,0.5309,0.0,0.0,0.0,0.0,0.0,0.0,0.0,0.0,0.0,0.0,0.0,0.0,0.0,0.0,0.0,0.0,0.0,0.0,0.0,0.0,0.0,0.0,0.0,0.0,0.0,0.0,0.0,0.0,0.259,0.3206,0.388,0.0,0.0,0.0,0.0,0.0,0.0,0.0,0.0,0.0,0.0,0.8657,0.9039,0.9262,0.0,0.0,1.0185,1.0454,1.0731,1.0922,1.1063,1.11,1.0989,0.0,0.0,0.0,0.0,0.0,0.0,0.0,0.0,0.0,0.0,0.0,0.0,0.0,0.0,0.0,0.0,0.0,0.0,0.0,0.0,0.0,0.0,0.0,0.0,0.0,0.0,0.0,0.0,0.0,0.0,0.0,0.0,0.0,0.0,0.0,0.0,0.0,0.0,0.0,0.0,0.0,0.0,0.0,0.0,0.0,0.0,0.0,0.0,0.0,0.0,0.0,0.0,0.6543,0.6931,0.682,0.6824,0.6998,0.6792,0.6601,0.6373,0.6203,0.5869,0.0,0.0,0.0,0.0,0.0,0.0,0.0,0.0,0.0,0.0,0.0,0.0,0.0,0.0,0.0,0.0,0.0,0.0,0.0,0.0,0.0,0.0,0.0,0.0,0.0,0.0,0.0,0.0,0.3577,0.4378,0.5112,0.0,0.0,0.0,0.0,0.0,0.0,0.0,0.0,0.0,0.0,0.9538,0.9954,1.0128,1.0326,1.0778,1.0891,1.1049,1.1409,1.1516,1.1686,1.1874,0.0,0.0,0.0,0.0,0.0,0.0,0.0,0.0,0.0,0.0,0.0,0.0,0.0,0.0,0.0,0.0,0.0,0.0,0.0,0.0,0.0,0.0,0.0,0.0,0.0,0.0,0.0,0.5381,0.0,0.0,0.5314,0.0,0.0,0.0,0.0,0.0,0.0,0.0,0.0,0.0,0.0,0.0,0.0,0.0,0.0,0.0,0.0,0.0,0.0,0.0,0.0,0.0,0.0,0.6983,0.7463,0.7344,0.7567,0.8082,0.7505,0.7171,0.7171,0.6614,0.6329,0.637,0.0,0.0,0.0,0.0,0.0,0.0,0.0,0.0,0.0,0.0,0.0,0.0,0.0,0.0,0.0,0.0,0.0,0.0,0.0,0.0,0.0,0.0,0.0,0.0,0.0,0.0,0.388,0.4742,0.5479,0.0,0.0,0.0,0.0,0.0,0.0,0.0,0.0,0.0,0.0,1.0098,1.0175,1.0453,1.081,1.1101,1.1097,1.1422,1.159,1.1663,1.1911,1.2091,0.0,0.0,0.0,0.0,0.0,0.0,0.0,0.0,0.0,0.0,0.0,0.0,0.0,0.0,0.0,0.0,0.0,0.0,0.0,0.0,0.0,0.0,0.0,0.0,0.0,0.0,0.0,0.692,0.6788,0.0,0.0,0.0,0.0,0.0,0.0,0.0,0.0,0.0,0.0,0.0,0.667,0.6578,0.0,0.0,0.0,0.0,0.0,0.0,0.0,0.0,0.0,0.0,0.0,0.0,0.7786,0.7973,0.7844,0.7832,0.8056,0.7847,0.7709,0.7712,0.7546,0.7326,0.6989,0.0,0.0,0.0,0.0,0.0,0.0,0.0,0.0,0.0,0.0,0.0,0.0,0.0,0.0,0.0,0.0,0.0,0.0,0.0,0.0,0.0,0.0,0.0,0.0,0.0,0.4724,0.0,0.0,0.0,0.0,0.0,0.0,0.0,0.0,0.0,0.0,0.0,1.0262,1.0747,1.1039,1.1317,1.1651,1.1691,1.1837,0.0,0.0,0.0,0.0,0.0,0.0,0.0,0.0,0.0,0.0,0.0,0.0,0.0,0.0,1.3124,1.2795,1.296,1.3204,1.32,0.0,0.0,0.0,0.0,0.0,0.0,0.0,0.0,0.0,0.0,0.0,0.0,0.0,0.0,0.7989,0.0,0.7522,0.0,0.0,0.0,0.0,0.0,0.0,0.0,0.0,0.7005,0.7226,0.7597,0.7385,0.7337,0.0,0.7552,0.7472,0.0,0.0,0.0,0.0,0.0,0.0,0.0,0.0,0.8228,0.8289,0.8202,0.8211,0.8325,0.8208,0.8156,0.8156,0.8045,0.7882,0.7618,0.728,0.6934,0.0,0.0,0.0,0.0,0.0,0.0,0.0,0.0,0.0,0.0,0.0,0.0,0.0,0.0,0.0,0.0,0.0,0.0,0.0,0.0,0.0,0.0,0.0,0.573,0.0,0.0,0.0,0.0,0.0,0.0,0.0,0.0,0.0,0.9997,1.0507,1.1054,1.1582,1.1858,1.2169,1.2548,0.0,0.0,0.0,0.0,0.0,0.0,0.0,1.3856,1.4066,1.404,1.3972,1.3977,1.392,1.3977,1.42,0.0,0.0,1.3536,1.3584,1.377,1.3766,1.3942,1.4123,1.4358,1.447,1.4536,0.0,0.0,0.0,0.0,0.0,0.0,0.0,0.0,0.9102,0.89,0.0,0.8304,0.0,0.0,0.0,0.0,0.0,0.7569,0.0,0.0,0.7774,0.7983,0.8276,0.8041,0.8099,0.839,0.8393,0.8384,0.8375,0.8084,0.0,0.0,0.0,0.0,0.0,0.0,0.8345,0.8494,0.854,0.8654,0.8881,0.8654,0.854,0.854,0.8263,0.8162,0.8234,0.7948,0.7666,0.75,0.7211,0.0,0.0,0.0,0.0,0.0,0.0,0.0,0.0,0.0,0.0,0.0,0.0,0.0,0.0,0.0,0.0,0.0,0.0,0.0,0.0,0.6223,0.0,0.0,0.0,0.0,0.0,0.0,0.0,0.0,0.0,0.0,1.1118,1.1421,1.184,1.2413,0.0,0.0,0.0,0.0,1.3315,1.3374,1.3374,1.3478,1.3753,1.3991,1.4238,1.4469,0.0,0.0,1.4791,1.4791,1.4781,1.4797,1.5006,1.4977,1.4122,1.3987,1.4002,1.4002,1.4013,1.4158,1.4654,1.484,1.4982,1.0688,0.0,0.0,0.0,0.0,0.997,0.9839,0.9698,0.934,0.9104,0.9042,0.891,0.0,0.0,0.0,0.0,0.0,0.0,0.8285,0.8205,0.842,0.8567,0.8685,0.8835,0.8804,0.8651,0.8819,0.876,0.8498,0.8554,0.8546,0.8393,0.0,0.0,0.0,0.0,0.8703,0.8771,0.8768,0.8823,0.8881,0.9047,0.9206,0.9427,0.9316,0.9227,0.9057,0.8709,0.8447,0.8214,0.7738,0.0,0.0,0.0,0.0,0.0,0.0,0.0,0.0,0.0,0.0,0.0,0.0,0.0,0.0,0.0,0.0,0.0,0.0,0.0,0.721,0.7211,0.7427,0.0,0.0,0.0,0.0,0.0,0.0,0.0,0.0,0.0,1.1629,1.2119,1.2608,0.0,0.0,1.3527,1.4032,1.3998,1.4067,1.4444,1.4498,0.0,1.4611,1.4667,1.476,1.4819,1.493,1.492,1.4926,1.4926,1.492,1.4931,1.5035,1.498,1.4778,1.4949,1.5146,1.5174,1.5174,1.523,1.5389,1.5317,1.5299,1.1637,1.1283,1.108,1.0921,1.0668,1.0419,1.0292,1.0289,0.9946,0.9781,0.9781,0.9653,0.9558,0.9503,0.9325,0.0,0.0,0.0,0.9052,0.8975,0.9208,0.9293,0.9289,0.946,0.938,0.9125,0.929,0.9241,0.904,0.9154,0.9137,0.897,0.0,0.0,0.8788,0.8981,0.9103,0.9099,0.9095,0.9119,0.9119,0.9276,0.946,0.9622,0.9622,0.9514,0.9352,0.9187,0.8913,0.8639,0.8285,0.8054,0.0,0.0,0.0,0.0,0.0,0.0,0.0,0.0,0.0,0.0,0.0,0.5994,0.6167,0.0,0.0,0.0,0.7127,0.7621,0.7906,0.7981,0.0,0.0,0.0,0.0,0.0,0.0,0.0,1.0988,1.1559,1.2024,1.2235,1.2727,1.3112,1.3415,1.3665,1.4056,1.4614,0.0,1.4654,1.4928,1.5041,1.5041,1.5208,1.5202,1.5256,1.5357,1.5363,1.5357,1.5357,1.5357,1.5357,1.5357,1.5357,1.5357,1.5357,1.5619,1.5658,1.5498,1.5443,1.5471,1.5729,1.5681,1.5661,1.2438,1.2126,1.1541,1.1222,1.1144,1.0902,1.0781,1.0781,1.0767,1.0763,1.0699,1.0389,1.0187,1.0051,0.9603,0.0,0.9361,0.9636,0.9802,0.9856,0.9997,1.0044,1.0096,0.9998,0.9926,0.9926,0.9923,0.9868,0.9812,0.9812,0.9809,0.9743,0.9192,0.892,0.8975,0.9247,0.9409,0.9395,0.946,0.9487,0.954,0.9455,0.9433,0.9433,0.9433,0.9436,0.9436,0.9384,0.922,0.8947,0.8895,0.8633,0.8115,0.0,0.0,0.0,0.0,0.0,0.0,0.0,0.0,0.0,0.0,0.0,0.0,0.0,0.0,0.0,0.8026,0.0,0.8128,0.857,0.0,0.0,0.0,0.9964,1.0526,1.0781,1.1198,1.1765,0.0,0.0,1.2899,1.3222,1.3529,1.387,1.4098,1.4417,1.4982,1.5047,1.5041,1.5095,1.5089,1.5196,1.5476,1.5529,1.5583,1.5785,1.5885,1.5891,1.5838,1.5838,1.5885,1.5885,1.5885,1.5885,1.5885,1.588,1.5761,1.5266,1.5146,1.5323,1.5863,1.5977,1.6091,1.3087,1.2987,1.2641,1.2328,1.2031,1.1739,1.162,1.1549,1.1176,1.1,1.1,1.0934,1.0744,1.0523,1.0307,1.0065,0.9834,0.9823,0.9932,1.0206,1.0445,1.0647,1.0863,1.1093,1.1017,1.0798,1.0802,1.0578,1.0202,1.0202,0.9968,0.9572,0.9406,0.9352,0.9352,0.946,0.9405,0.9341,0.9353,0.9542,0.9955,1.0128,1.0308,1.0516,1.0516,1.0521,1.0516,1.0104,0.9843,0.9791,0.9373,0.9115,0.9014,0.8741,0.0,0.0,0.0,0.0,0.0,0.0,0.0,0.0,0.0,0.7354,0.7459,0.0,0.7785,0.0,0.8362,0.8836,0.9272,0.9308,0.0,0.0,1.0138,1.0449,1.0997,1.1241,1.1588,1.1885,1.2389,1.2734,1.2838,1.338,1.3942,1.439,1.4486,1.4718,1.5274,1.5369,1.5482,1.5624,1.5678,1.5731,1.5785,1.5785,1.5791,1.5885,1.5885,1.5885,1.5885,1.5885,1.5885,1.5885,1.5885,1.5885,1.5885,1.6042,1.6115,1.6024,1.597,1.6108,1.6432,1.6492,1.6566,1.3527,1.3315,1.3152,1.2976,1.2791,1.2336,1.2104,1.21,1.1816,1.1599,1.1487,1.1379,1.1266,1.1093,1.1054,1.0902,1.0727,1.0626,1.0692,1.0911,1.1021,1.124,1.1509,1.1673,1.1678,1.1509,1.1514,1.1252,1.0745,1.0741,1.0535,1.0143,1.0143,1.0104,1.0036,0.984,0.973,0.9642,0.9824,1.0006,1.0226,1.0374,1.0531,1.0678,1.0678,1.0678,1.0678,1.0374,1.0222,1.0222,0.9971,0.9721,0.9619,0.9458,0.9254,0.0,0.0,0.0,0.0,0.0,0.0,0.0,0.0,0.0,0.0,0.0,0.8357,0.8497,0.8999,0.9454,0.9823,0.9928,1.0167,1.0625,1.0825,1.1096,1.1541,1.1785,1.2078,1.2322,1.271,1.3001,1.3109,1.3562,1.4086,1.4642,1.4767,1.5053,1.5547,1.5684,1.5743,1.5891,1.5885,1.5885,1.5885,1.5885,1.5885,1.5885,1.5885,1.5885,1.5885,1.5885,1.5885,1.5885,1.5885,1.5885,1.5897,1.6097,1.6308,1.6453,1.6561,1.6694,1.6839,1.6875,1.6899,1.4008,1.3532,1.3532,1.3532,1.3478,1.298,1.2659,1.2495,1.2495,1.2387,1.2169,1.1896,1.1787,1.1787,1.1787,1.1732,1.1673,1.1678,1.1732,1.1787,1.1787,1.1896,1.2169,1.2169,1.215,1.2127,1.2127,1.1868,1.1411,1.1407,1.1252,1.1009,1.1,1.0908,1.074,1.0476,1.0242,1.019,1.0548,1.0689,1.0565,1.0605,1.0609,1.0609,1.0605,1.0609,1.0605,1.056,1.056,1.056,1.0511,1.0364,1.0117,1.0117,0.9875,0.0,0.9331,0.0,0.0,0.0,0.0,0.0,0.0,0.0,0.0,0.8819,0.8938,0.9347,0.9826,1.0117,1.022,1.0605,1.0998,1.1296,1.1536,1.1834,1.2078,1.2322,1.2613,1.2856,1.3104,1.3298,1.3491,1.3786,1.4125,1.4696,1.4961,1.5279,1.5777,1.5885,1.5891,1.5885,1.5885,1.5885,1.5885,1.5885,1.5885,1.5885,1.5885,1.5885,1.5885,1.5885,1.5885,1.5885,1.5885,1.5885,1.5885,1.6103,1.6368,1.6739,1.6988,1.712,1.7123,1.7204,1.7277,1.4773,1.4659,1.4665,1.4659,1.4659,1.4552,1.3959,1.3152,1.3098,1.3093,1.3044,1.2989,1.2881,1.2659,1.2663,1.25,1.2223,1.2278,1.2387,1.2663,1.2659,1.2827,1.3044,1.3044,1.2945,1.283,1.2825,1.2552,1.2035,1.2035,1.1826,1.1424,1.1369,1.1317,1.1121,0.0,0.0,0.0,1.0978,1.1187,1.1394,1.159,1.1688,1.1688,1.1683,0.0,1.1688,1.1487,1.1389,1.1389,1.1145,0.0,0.0,0.0,0.0,0.0,0.0,0.0,0.0,0.0,0.0,0.0,1.0082,0.9867,0.9476,0.9643,0.9958,1.0462,1.056,1.0801,1.1243,1.1394,1.1541,1.1829,1.2078,1.237,1.2613,1.2856,1.3098,1.3346,1.3588,1.3786,1.3835,1.4064,1.4412,1.4897,1.5056,1.5324,1.5807,1.5879,1.5885,1.5885,1.5885,1.5885,1.5885,1.5885,1.5939,1.5885,1.5885,1.5885,1.5939,1.5945,1.5891,1.5939,1.5885,1.5939,1.5891,1.6103,1.6472,1.7024,1.7296,1.7492,1.7416,1.7646,1.7846,1.5148,0.0,1.5041,1.5041,0.0,1.5041,1.4659,1.4126,1.4126,1.4013,1.3743,1.3423,1.3207,1.3098,1.3098,1.2989,1.2876,1.2989,1.3152,1.3315,1.3472,1.3626,1.3736,1.3736,1.3615,1.3393,1.3387,1.3163,1.2684,1.2623,1.2465,1.2152,1.2152,1.2092,1.198,1.2127,1.1932,1.1389,1.1639,1.1834,1.1975,1.2273,1.2419,1.2419,1.2419,0.0,0.0,0.0,0.0,0.0,0.0,0.0,0.0,1.1394,0.0,1.0998,1.1002,1.0949,1.0801,1.0801,1.085,1.0998,1.1096,1.0904,1.0216,1.056,1.0904,1.1145,1.1292,1.1492,1.178,1.2029,1.2273,1.237,1.271,1.3001,1.3104,1.3249,1.3394,1.3636,1.3835,1.3931,1.407,1.4208,1.4461,1.4847,1.5034,1.5252,1.562,1.5813,1.5885,1.5885,1.5885,1.5885,1.5945,1.6051,1.6105,1.6105,1.6205,1.6258,1.6305,1.6311,1.6311,1.6311,1.6311,1.6311,1.6336,1.6481,1.6776,1.7103,1.7491,1.7792,1.7795,1.7977,1.8194,1.5523,1.5303,1.5256,1.5202,1.5256,1.5196,1.5143,1.5143,0.0,0.0,0.0,1.3797,1.3586,1.3586,1.3586,1.3586,1.3635,1.3851,1.391,1.3964,1.4229,1.4313,1.4251,1.4245,1.4095,1.3829,1.3818,1.3584,1.3199,1.3144,1.3095,1.2926,1.291,1.2958,1.291,1.291,1.271,1.2273,1.2419,1.2565,1.2613,1.2807,1.291,1.2905,1.291,1.291,1.2915,1.2905,1.2807,1.2613,1.2613,1.2467,1.2224,1.217,1.2078,1.1834,1.1785,1.1639,1.1443,1.1345,1.1438,1.1639,1.1932,1.1834,1.1047,1.1394,1.1736,1.178,1.2029,1.2175,1.2268,1.2662,1.291,1.291,1.3255,1.3491,1.3588,1.3539,1.369,1.3931,1.3979,1.407,1.4256,1.4298,1.4401,1.4684,1.495,1.5285,1.5563,1.5818,1.5945,1.5998,1.5998,1.5998,1.6051,1.6211,1.6377,1.6371,1.6524,1.6677,1.667,1.667,1.667,1.667,1.667,1.667,1.6696,1.6861,1.7057,1.7162,1.7636,1.8044,1.8165,1.8435,1.8635,1.6471,1.6465,1.6211,1.6111,1.6111,1.5891,1.5785,1.5725,1.525,1.4987,1.488,1.4821,1.4767,1.4773,1.4767,1.4767,1.4767,1.4826,1.4826,1.4821,1.488,1.4744,1.4565,1.456,1.4321,1.3891,1.3868,1.3737,1.3468,1.3451,1.3423,1.3394,1.3394,1.3394,1.3394,1.3394,1.3346,1.3298,1.3098,1.3098,1.3346,1.3394,1.3394,1.3394,1.3394,1.3394,1.3394,1.3394,1.3394,1.3346,1.3346,1.3201,1.2953,1.2953,1.2856,1.2619,1.2424,1.2273,1.2224,1.2029,1.1878,1.198,1.2419,1.2419,1.1883,1.1878,1.2127,1.2565,1.2662,1.2861,1.3249,1.334,1.3394,1.3394,1.3443,1.3588,1.3829,1.3835,1.3925,1.4202,1.425,1.4256,1.4304,1.4298,1.4395,1.4672,1.4926,1.5378,1.5903,1.6027,1.5998,1.6164,1.6271,1.6377,1.6471,1.6571,1.663,1.6624,1.6677,1.6783,1.6783,1.6783,1.6783,1.673,1.6783,1.673,1.6736,1.6702,1.7009,1.7404,1.781,1.816,1.8601,1.9115,1.9457,1.667,1.6677,1.6577,1.6524,1.653,1.6365,1.6311,1.6305,1.6039,1.5678,1.5261,1.5095,1.5095,1.5298,1.5244,1.5351,1.5517,1.5624,1.5684,1.5731,1.5891,1.5721,1.5306,1.5276,1.5055,1.4564,1.454,1.4473,1.437,1.4364,1.4364,1.4358,1.4358,1.4358,1.4358,1.4358,1.4358,1.4364,1.3968,1.3817,1.3913,1.4214,1.4364,1.4358,1.4358,1.4358,1.4358,1.4358,1.431,1.416,1.4166,1.4016,1.3769,1.3619,1.348,1.3377,1.3147,1.3001,1.3001,1.2905,1.2807,1.2807,1.3055,1.3104,1.2856,1.2807,1.291,1.3152,1.3201,1.3249,1.3491,1.3636,1.3738,1.3738,1.3829,1.3968,1.4112,1.4112,1.416,1.4298,1.4298,1.4298,1.4298,1.4298,1.4328,1.4509,1.4923,1.555,1.6231,1.6311,1.6365,1.6477,1.6524,1.6577,1.6677,1.6842,1.6955,1.6955,1.7107,1.716,1.7206,1.716,1.7206,1.7206,1.7213,1.7213,1.716,1.7153,1.7384,1.7689,1.8057,1.8415,1.885,1.9528,1.9963,1.6895,1.6889,1.6842,1.6789,1.667,1.667,1.667,1.667,1.6677,1.6371,1.5797,1.5517,1.5512,1.5773,1.5773,1.5885,1.6099,1.6318,1.6424,1.6424,1.663,1.6385,1.5948,1.591,1.5617,1.5134,1.5131,1.5131,1.5131,1.5131,1.5131,1.5131,1.5131,1.5131,1.5131,1.5131,1.5131,1.5083,1.4729,1.4538,1.449,1.4885,1.5083,1.5131,1.5083,1.5131,1.5131,1.5131,1.4987,1.479,1.479,1.4694,1.449,1.4292,1.4148,1.4148,1.3919,1.3732,1.3582,1.3588,1.3588,1.3497,1.3588,1.3588,1.3588,1.363,1.3636,1.3588,1.3593,1.3588,1.3727,1.3877,1.3979,1.4022,1.4154,1.4298,1.4298,1.4298,1.4298,1.4298,1.4298,1.4298,1.4298,1.4298,1.4382,1.46,1.5091,1.5679,1.6283,1.6632,1.6789,1.6889,1.6836,1.6842,1.6895,1.7113,1.7272,1.7272,1.743,1.7529,1.7529,1.7589,1.7589,1.7529,1.7589,1.7529,1.7589,1.7589,1.7701,1.7959,1.8208,1.8586,1.908,1.9819,2.0363,1.7536,1.7477,1.7272,1.6955,1.673,1.673,1.673,1.673,1.6723,1.6677,1.6577,1.6571,1.6571,1.6571,1.6571,1.6577,1.663,1.6683,1.6683,1.6683,1.6677,1.6437,1.5941,1.591,1.5617,1.5188,1.5131,1.5131,1.5131,1.5131,1.5131,1.5131,1.5131,1.5131,1.5131,1.5131,1.5131,1.5131,1.5309,1.5261,1.5035,1.5083,1.5131,1.5131,1.5131,1.5131,1.5131,1.5131,1.5083,1.5077,1.5083,1.5035,1.5035,1.4981,1.4981,1.4981,1.4742,1.4394,1.3956,1.3859,1.3769,1.3534,1.3781,1.3883,1.3883,1.4064,1.4112,1.3925,1.3889,1.3973,1.4202,1.4256,1.4256,1.425,1.4298,1.4298,1.4298,1.4298,1.4298,1.4298,1.4298,1.4298,1.4298,1.4346,1.4485,1.4942,1.5326,1.5815,1.651,1.6931,1.7219,1.7371,1.7325,1.7272,1.7371,1.7529,1.7536,1.7536,1.7589,1.7589,1.7589,1.7589,1.7589,1.7589,1.7589,1.7589,1.7589,1.7641,1.7694,1.801,1.8341,1.8675,1.9483,2.0141,2.0541,1.7589,1.7582,1.7483,1.7371,1.7265,1.7259,1.7213,1.7265,1.7206,1.7206,1.7213,1.7213,1.716,1.7014,1.7008,1.706,1.7206,1.7206,1.7259,1.7259,1.7213,1.6905,1.6395,1.6356,1.6104,1.5538,1.5506,1.5506,1.5499,1.5506,1.5499,1.5506,1.5506,1.5499,1.5506,1.5506,1.5499,1.5499,1.5594,1.5594,1.5547,1.5506,1.5499,1.5506,1.5506,1.5499,1.5499,1.5499,1.5499,1.5506,1.5506,1.5499,1.5499,1.5404,1.5356,1.5309,1.5077,1.4838,1.464,1.4592,1.4496,1.4208,1.431,1.431,1.416,1.425,1.425,1.4166,1.4118,1.4202,1.4298,1.4298,1.4298,1.4298,1.4298,1.4298,1.4298,1.4298,1.4298,1.4298,1.4298,1.4298,1.4346,1.4442,1.4757,1.5256,1.5675,1.6144,1.6652,1.7147,1.7457,1.7529,1.7483,1.7483,1.7589,1.7589,1.7589,1.7589,1.7589,1.7589,1.7589,1.7589,1.7589,1.7589,1.7589,1.7589,1.7589,1.7641,1.7694,1.8115,1.8646,1.9062,1.9447,1.9991,2.0479,1.7589,1.7589,1.7589,1.7589,1.7589,1.7589,1.7589,1.7589,1.7589,1.7589,1.7589,1.7589,1.7483,1.7331,1.7331,1.7437,1.7582,1.7589,1.7589,1.7589,1.7589,1.7315,1.6854,1.6734,1.644,1.6005,1.5818,1.5778,1.5825,1.5825,1.5825,1.5825,1.5825,1.5825,1.5825,1.5825,1.5825,1.5778,1.5825,1.5825,1.5778,1.5825,1.5825,1.5825,1.5825,1.5825,1.5825,1.5825,1.5825,1.5825,1.5825,1.5825,1.5778,1.5642,1.5588,1.5547,1.5404,1.5274,1.5226,1.522,1.5077,1.4838,1.479,1.4742,1.4544,1.4442,1.4394,1.4394,1.4394,1.4394,1.4298,1.4298,1.4298,1.4298,1.4298,1.4298,1.4298,1.4298,1.4346,1.4394,1.4442,1.4442,1.4544,1.4694,1.4967,1.5441,1.5851,1.6349,1.6688,1.7158,1.7468,1.7562,1.7582,1.7589,1.7589,1.7589,1.7589,1.7589,1.7589,1.7589,1.7589,1.7589,1.7589,1.7589,1.7589,1.7589,1.7589,1.7641,1.7793,1.8318,1.8848,1.9279,1.9316,1.9866,2.0598,1.7589,1.7589,1.7589,1.7589,1.7589,1.7589,1.7589,1.7589,1.7589,1.7589,1.7589,1.7589,1.7589,1.7582,1.7529,1.7589,1.7589,1.7589,1.7589,1.7589,1.7589,1.7474,1.7179,1.684,1.6547,1.6213,1.5979,1.5845,1.5832,1.5825,1.5825,1.5825,1.5825,1.5825,1.5825,1.5825,1.5825,1.5825,1.5825,1.5825,1.5825,1.5825,1.5825,1.5825,1.5825,1.5825,1.5825,1.5825,1.5825,1.5825,1.5825,1.5825,1.5825,1.5778,1.5784,1.5778,1.5778,1.5689,1.5499,1.5499,1.5356,1.5124,1.5083,1.5083,1.4981,1.479,1.4688,1.4688,1.4688,1.4592,1.4394,1.44,1.44,1.4346,1.4346,1.4346,1.4346,1.44,1.4442,1.464,1.4688,1.479,1.4987,1.5077,1.5226,1.5495,1.578,1.6124,1.6627,1.7007,1.7333,1.7508,1.7589,1.7589,1.7589,1.7589,1.7589,1.7589,1.7589,1.7589,1.7589,1.7589,1.7589,1.7589,1.7589,1.7589,1.7589,1.7747,1.795,1.837,1.89,1.922,1.9376,2.0061,2.078,1.7589,1.7589,1.7589,1.7589,1.7589,1.7589,1.7589,1.7589,1.7589,1.7589,1.7589,1.7589,1.7589,1.7589,1.7589,1.7589,1.7589,1.7589,1.7589,1.7589,1.7589,1.7481,1.7206,1.7085,1.6777,1.6313,1.6159,1.6012,1.5838,1.5825,1.5825,1.5825,1.5825,1.5825,1.5825,1.5825,1.5825,1.5825,1.5825,1.5825,1.5825,1.5825,1.5825,1.5825,1.5825,1.5825,1.5825,1.5825,1.5825,1.5825,1.5825,1.5825,1.5825,1.5825,1.5825,1.5825,1.5825,1.5778,1.573,1.5683,1.5588,1.5404,1.5356,1.5267,1.5131,1.4987,1.4933,1.4933,1.4987,1.4892,1.4838,1.4838,1.479,1.4838,1.4838,1.4783,1.479,1.479,1.4838,1.4933,1.4987,1.5077,1.5261,1.5356,1.5452,1.5668,1.5983,1.6268,1.6617,1.6954,1.7286,1.7548,1.7589,1.7589,1.7589,1.7589,1.7589,1.7589,1.7589,1.7589,1.7589,1.7589,1.7589,1.7589,1.7589,1.7589,1.7641,1.795,1.816,1.8318,1.89,1.9324,1.9524,2.0061,2.0891,1.7589,1.7589,1.7589,1.7589,1.7589,1.7589,1.7589,1.7589,1.7589,1.7589,1.7589,1.7589,1.7589,1.7589,1.7589,1.7589,1.7589,1.7589,1.7589,1.7589,1.7589,1.7475,1.7353,1.7239,1.6998,1.6616,1.6395,1.6119,1.5811,1.5825,1.5825,1.5825,1.5825,1.5825,1.5825,1.5825,1.5825,1.5825,1.5825,1.5825,1.5825,1.5825,1.5825,1.5825,1.5825,1.5825,1.5825,1.5825,1.5825,1.5825,1.5825,1.5825,1.5825,1.5825,1.5825,1.5825,1.5825,1.5825,1.5825,1.5825,1.5737,1.5588,1.5594,1.5499,1.5363,1.5267,1.5213,1.522,1.522,1.522,1.5261,1.5267,1.5267,1.5178,1.5131,1.5131,1.5131,1.5083,1.5124,1.522,1.5315,1.541,1.5547,1.5588,1.5635,1.5778,1.6019,1.6259,1.664,1.6867,1.7213,1.7548,1.7582,1.7589,1.7589,1.7589,1.7589,1.7589,1.7589,1.7589,1.7589,1.7589,1.7589,1.7589,1.7589,1.7589,1.7793,1.8108,1.8318,1.8422,1.8848,1.9324,1.9628,1.9879,2.0835,1.7602,1.7609,1.7589,1.7589,1.7589,1.7589,1.7589,1.7589,1.7589,1.7589,1.7589,1.7589,1.7589,1.7589,1.7589,1.7589,1.7589,1.7589,1.7589,1.7589,1.7589,1.7582,1.7535,1.736,1.7213,1.7079,1.6583,1.6132,1.5879,1.5845,1.5825,1.5825,1.5825,1.5825,1.5825,1.5825,1.5825,1.5825,1.5825,1.5825,1.5825,1.5825,1.5825,1.5825,1.5825,1.5825,1.5825,1.5825,1.5825,1.5825,1.5825,1.5825,1.5825,1.5825,1.5825,1.5825,1.5825,1.5825,1.5825,1.5825,1.5778,1.5778,1.5784,1.5778,1.5689,1.5588,1.5493,1.5499,1.5499,1.5493,1.554,1.5635,1.5601,1.5226,1.5172,1.5172,1.5178,1.5131,1.522,1.5452,1.5642,1.5778,1.5778,1.5778,1.5778,1.5791,1.5818,1.6086,1.658,1.6754,1.6981,1.7408,1.7589,1.7589,1.7589,1.7589,1.7589,1.7589,1.7589,1.7589,1.7589,1.7589,1.7589,1.7589,1.7589,1.7641,1.7694,1.8003,1.8318,1.8475,1.8952,1.9376,1.9732,2.0147,2.0984,1.7903,1.7876,1.7662,1.7589,1.7589,1.7589,1.7589,1.7589,1.7589,1.7589,1.7589,1.7589,1.7589,1.7589,1.7589,1.7589,1.7589,1.7589,1.7589,1.7589,1.7589,1.7589,1.7562,1.7488,1.7393,1.7125,1.6603,1.6233,1.6112,1.5884,1.5825,1.5825,1.5825,1.5825,1.5825,1.5825,1.5825,1.5825,1.5825,1.5825,1.5825,1.5825,1.5825,1.5825,1.5825,1.5825,1.5825,1.5825,1.5825,1.5825,1.5825,1.5825,1.5825,1.5825,1.5825,1.5825,1.5825,1.5825,1.5825,1.5825,1.5825,1.5825,1.5825,1.5825,1.5825,1.573,1.573,1.5683,1.573,1.573,1.573,1.5778,1.573,1.5594,1.5594,1.5547,1.5547,1.5547,1.5642,1.5689,1.5778,1.5825,1.5825,1.5825,1.5825,1.5825,1.5832,1.6004,1.654,1.6707,1.6934,1.7448,1.7515,1.7589,1.7589,1.7589,1.7589,1.7589,1.7589,1.7589,1.7589,1.7589,1.7589,1.7589,1.7589,1.7641,1.7747,1.795,1.8265,1.8579,1.89,1.9368,1.9828,2.0446,2.1097,1.821,1.8176,1.7883,1.7756,1.7736,1.7635,1.7589,1.7589,1.7589,1.7589,1.7589,1.7589,1.7589,1.7589,1.7589,1.7589,1.7589,1.7589,1.7589,1.7589,1.7589,1.7589,1.7589,1.7589,1.7481,1.7192,1.6824,1.6529,1.6266,1.6092,1.5939,1.5845,1.5825,1.5825,1.5825,1.5825,1.5825,1.5825,1.5825,1.5825,1.5825,1.5825,1.5825,1.5825,1.5825,1.5825,1.5825,1.5825,1.5825,1.5825,1.5825,1.5825,1.5825,1.5825,1.5825,1.5825,1.5825,1.5825,1.5825,1.5825,1.5825,1.5825,1.5825,1.5825,1.5825,1.5825,1.5825,1.5825,1.5825,1.5825,1.5778,1.5825,1.5825,1.5825,1.5778,1.5825,1.5825,1.5825,1.5778,1.5778,1.5825,1.5825,1.5825,1.5825,1.5825,1.5825,1.5832,1.5997,1.6506,1.67,1.7054,1.7375,1.7542,1.7589,1.7589,1.7589,1.7589,1.7589,1.7589,1.7589,1.7589,1.7589,1.7589,1.7589,1.7589,1.7589,1.7694,1.8055,1.8422,1.8684,1.89,1.942,1.9887,2.0197,2.0896,1.8517,1.8477,1.8142,1.7995,1.7935,1.7749,1.7622,1.7589,1.7589,1.7589,1.7589,1.7589,1.7589,1.7589,1.7589,1.7589,1.7589,1.7589,1.7589,1.7589,1.7589,1.7589,1.7589,1.7589,1.7448,1.7286,1.7172,1.6898,1.6489,1.6286,1.6132,1.5912,1.5858,1.5825,1.5825,1.5825,1.5825,1.5825,1.5825,1.5825,1.5825,1.5825,1.5825,1.5825,1.5825,1.5825,1.5825,1.5825,1.5825,1.5825,1.5825,1.5825,1.5825,1.5825,1.5825,1.5825,1.5825,1.5825,1.5825,1.5825,1.5825,1.5825,1.5825,1.5825,1.5825,1.5825,1.5825,1.5825,1.5825,1.5825,1.5825,1.5825,1.5825,1.5825,1.5825,1.5825,1.5825,1.5825,1.5825,1.5825,1.5825,1.5825,1.5825,1.5825,1.5825,1.5825,1.5838,1.6112,1.6506,1.6774,1.7014,1.7281,1.7562,1.7589,1.7589,1.7589,1.7589,1.7589,1.7589,1.7589,1.7589,1.7589,1.7589,1.7589,1.7589,1.7589,1.7747,1.8108,1.837,1.8475,1.89,1.9472,1.991,2.0243,2.0995,1.8811,1.8771,1.8497,1.825,1.8002,1.7896,1.7782,1.7602,1.7589,1.7589,1.7589,1.7589,1.7589,1.7589,1.7589,1.7589,1.7589,1.7589,1.7589,1.7589,1.7589,1.7589,1.7589,1.7589,1.7542,1.7487,1.7306,1.7119,1.6945,1.6486,1.6246,1.6159,1.5925,1.5825,1.5825,1.5825,1.5825,1.5825,1.5825,1.5825,1.5825,1.5825,1.5825,1.5825,1.5825,1.5825,1.5825,1.5825,1.5825,1.5825,1.5825,1.5825,1.5825,1.5825,1.5825,1.5825,1.5825,1.5825,1.5825,1.5825,1.5825,1.5825,1.5825,1.5825,1.5825,1.5825,1.5825,1.5825,1.5825,1.5825,1.5825,1.5825,1.5825,1.5825,1.5825,1.5825,1.5825,1.5825,1.5825,1.5825,1.5825,1.5825,1.5825,1.5825,1.5825,1.5825,1.5872,1.6039,1.6513,1.6734,1.6914,1.7328,1.7589,1.7589,1.7589,1.7589,1.7589,1.7589,1.7589,1.7589,1.7589,1.7589,1.7589,1.7589,1.7589,1.7589,1.7793,1.8055,1.8213,1.8422,1.89,1.9487,2.0037,2.0514,2.1409,1.9112,1.9085,1.8798,1.8504,1.8175,1.8096,1.7822,1.7629,1.7589,1.7589,1.7589,1.7589,1.7589,1.7589,1.7589,1.7589,1.7589,1.7589,1.7589,1.7589,1.7589,1.7589,1.7589,1.7589,1.7589,1.7569,1.746,1.732,1.7139,1.6673,1.6462,1.6233,1.5979,1.5832,1.5825,1.5825,1.5825,1.5825,1.5825,1.5825,1.5825,1.5825,1.5825,1.5825,1.5825,1.5825,1.5825,1.5825,1.5825,1.5825,1.5825,1.5825,1.5825,1.5825,1.5825,1.5825,1.5825,1.5825,1.5825,1.5825,1.5825,1.5825,1.5825,1.5825,1.5825,1.5825,1.5825,1.5825,1.5825,1.5825,1.5825,1.5825,1.5825,1.5825,1.5825,1.5825,1.5825,1.5825,1.5825,1.5825,1.5825,1.5825,1.5825,1.5825,1.5825,1.5825,1.5825,1.6159,1.6567,1.6667,1.6894,1.7348,1.7589,1.7589,1.7589,1.7589,1.7589,1.7589,1.7589,1.7589,1.7589,1.7589,1.7589,1.7589,1.7589,1.7694,1.7852,1.8055,1.8377,1.8691,1.9063,1.9509,2.0045,2.0796,2.1706,1.9424,1.9345,1.9078,1.8784,1.8464,1.8203,1.7916,1.7622,1.7589,1.7589,1.7589,1.7589,1.7589,1.7589,1.7589,1.7589,1.7589,1.7589,1.7589,1.7589,1.7589,1.7589,1.7589,1.7589,1.7589,1.7582,1.7589,1.7494,1.7266,1.6901,1.66,1.6359,1.6059,1.5818,1.5838,1.5825,1.5825,1.5825,1.5825,1.5825,1.5825,1.5825,1.5825,1.5825,1.5825,1.5825,1.5825,1.5825,1.5825,1.5825,1.5825,1.5825,1.5825,1.5825,1.5825,1.5825,1.5825,1.5825,1.5825,1.5825,1.5825,1.5825,1.5825,1.5825,1.5825,1.5825,1.5825,1.5825,1.5825,1.5825,1.5825,1.5825,1.5825,1.5825,1.5825,1.5825,1.5825,1.5825,1.5825,1.5825,1.5825,1.5825,1.5825,1.5825,1.5825,1.5825,1.5865,1.6132,1.6486,1.668,1.7007,1.7514,1.7635,1.7589,1.7589,1.7589,1.7589,1.7589,1.7589,1.7589,1.7589,1.7589,1.7589,1.7589,1.7589,1.7747,1.7905,1.822,1.8482,1.8803,1.9063,1.9561,2.0089,2.1026,2.1956,1.9424,1.9417,1.9299,1.8971,1.8531,1.841,1.8083,1.7595,1.7589,1.7589,1.7589,1.7589,1.7589,1.7589,1.7589,1.7589,1.7589,1.7589,1.7589,1.7589,1.7589,1.7589,1.7589,1.7589,1.7589,1.7589,1.7589,1.7549,1.7415,1.7213,1.6894,1.6593,1.6279,1.6052,1.5811,1.5825,1.5825,1.5825,1.5825,1.5825,1.5825,1.5825,1.5825,1.5825,1.5825,1.5825,1.5825,1.5825,1.5825,1.5825,1.5825,1.5825,1.5825,1.5825,1.5825,1.5825,1.5825,1.5825,1.5825,1.5825,1.5825,1.5825,1.5825,1.5825,1.5825,1.5825,1.5825,1.5825,1.5825,1.5825,1.5825,1.5825,1.5825,1.5825,1.5825,1.5825,1.5825,1.5825,1.5825,1.5825,1.5825,1.5825,1.5825,1.5825,1.5825,1.5825,1.5945,1.6119,1.6386,1.6673,1.7061,1.7541,1.7635,1.7589,1.7589,1.7589,1.7589,1.7589,1.7589,1.7589,1.7589,1.7589,1.7589,1.7589,1.7589,1.7799,1.801,1.822,1.8475,1.8795,1.9137,1.9635,2.0256,2.1174,2.2092,1.9424,1.9424,1.9424,1.9025,1.8544,1.8484,1.8143,1.7662,1.7589,1.7589,1.7589,1.7589,1.7589,1.7589,1.7589,1.7589,1.7589,1.7589,1.7589,1.7589,1.7589,1.7589,1.7589,1.7589,1.7589,1.7589,1.7589,1.7589,1.7561,1.7347,1.7032,1.67,1.642,1.6106,1.5872,1.5825,1.5825,1.5825,1.5825,1.5825,1.5825,1.5825,1.5825,1.5825,1.5825,1.5825,1.5825,1.5825,1.5825,1.5825,1.5825,1.5825,1.5825,1.5825,1.5825,1.5825,1.5825,1.5825,1.5825,1.5825,1.5825,1.5825,1.5825,1.5825,1.5825,1.5825,1.5825,1.5825,1.5825,1.5825,1.5825,1.5825,1.5825,1.5825,1.5825,1.5825,1.5825,1.5825,1.5825,1.5825,1.5825,1.5825,1.5825,1.5825,1.5825,1.5825,1.5858,1.6046,1.6466,1.6754,1.7048,1.7375,1.7522,1.7589,1.7589,1.7589,1.7589,1.7589,1.7589,1.7589,1.7589,1.7589,1.7589,1.7589,1.7641,1.7905,1.8115,1.8318,1.8579,1.8959,1.9382,1.9829,2.0408,2.1352,2.222,1.9424,1.9424,1.9319,1.8985,1.8524,1.843,1.8096,1.7635,1.7589,1.7589,1.7589,1.7589,1.7589,1.7589,1.7589,1.7589,1.7589,1.7589,1.7589,1.7589,1.7589,1.7589,1.7589,1.7589,1.7589,1.7589,1.7589,1.7589,1.7522,1.738,1.7125,1.6734,1.6486,1.6186,1.5919,1.5825,1.5825,1.5825,1.5825,1.5825,1.5825,1.5825,1.5825,1.5825,1.5825,1.5825,1.5825,1.5825,1.5825,1.5825,1.5825,1.5825,1.5825,1.5825,1.5825,1.5825,1.5825,1.5825,1.5825,1.5825,1.5825,1.5825,1.5825,1.5825,1.5825,1.5825,1.5825,1.5825,1.5825,1.5825,1.5825,1.5825,1.5825,1.5825,1.5825,1.5825,1.5778,1.5778,1.573,1.5825,1.5825,1.5825,1.5825,1.5825,1.5825,1.5838,1.5879,1.6039,1.6466,1.6834,1.7128,1.7355,1.7522,1.7589,1.7589,1.7589,1.7589,1.7589,1.7589,1.7589,1.7589,1.7589,1.7589,1.7589,1.7694,1.7898,1.816,1.8318,1.8691,1.9116,1.962,2.0024,2.0681,2.1478,2.2427,1.9424,1.9403,1.9098,1.8791,1.8477,1.8175,1.7929,1.7622,1.7589,1.7589,1.7589,1.7589,1.7589,1.7589,1.7589,1.7589,1.7589,1.7589,1.7589,1.7589,1.7589,1.7589,1.7589,1.7589,1.7589,1.7589,1.7589,1.7589,1.7582,1.7502,1.7208,1.6807,1.664,1.6366,1.5985,1.5825,1.5825,1.5825,1.5825,1.5825,1.5825,1.5825,1.5825,1.5825,1.5825,1.5825,1.5825,1.5825,1.5825,1.5825,1.5825,1.5825,1.5825,1.5825,1.5825,1.5825,1.5825,1.5825,1.5825,1.5825,1.5825,1.5825,1.5825,1.5825,1.5825,1.5825,1.5825,1.5825,1.5825,1.5825,1.5825,1.5825,1.5825,1.5825,1.5778,1.5778,1.573,1.5642,1.5588,1.5689,1.5737,1.5778,1.5778,1.5778,1.5825,1.5899,1.6019,1.6206,1.6567,1.6907,1.7259,1.7454,1.7569,1.7589,1.7589,1.7589,1.7589,1.7589,1.7589,1.7589,1.7589,1.7589,1.7589,1.7589,1.7687,1.7845,1.8108,1.8318,1.8691,1.9168,1.9656,2.0234,2.0926,2.1681,2.2739,1.9272,1.9132,1.8978,1.8608,1.8283,1.8062,1.7816,1.7609,1.7589,1.7589,1.7589,1.7589,1.7589,1.7589,1.7589,1.7589,1.7589,1.7589,1.7589,1.7589,1.7589,1.7589,1.7589,1.7589,1.7589,1.7589,1.7589,1.7589,1.7589,1.7582,1.7335,1.7065,1.68,1.648,1.6112,1.5905,1.5845,1.5825,1.5825,1.5825,1.5825,1.5825,1.5825,1.5825,1.5825,1.5825,1.5825,1.5825,1.5825,1.5825,1.5825,1.5825,1.5825,1.5825,1.5825,1.5825,1.5825,1.5825,1.5825,1.5825,1.5825,1.5825,1.5825,1.5825,1.5825,1.5825,1.5825,1.5825,1.5825,1.5825,1.5825,1.5825,1.5825,1.5784,1.5737,1.5635,1.5594,1.5404,1.541,1.5458,1.5547,1.5588,1.5635,1.5683,1.5778,1.5939,1.6126,1.64,1.67,1.7001,1.736,1.7494,1.7589,1.7589,1.7589,1.7589,1.7589,1.7589,1.7589,1.7589,1.7589,1.7589,1.7589,1.7589,1.774,1.7786,1.8108,1.8422,1.8795,1.9204,1.9783,2.043,2.1133,2.1963,2.3012,1.9138,1.8918,1.8798,1.8422,1.8029,1.7916,1.7816,1.7615,1.7589,1.7589,1.7589,1.7589,1.7589,1.7589,1.7589,1.7589,1.7589,1.7589,1.7589,1.7589,1.7589,1.7589,1.7589,1.7589,1.7589,1.7589,1.7589,1.7589,1.7589,1.7589,1.7415,1.7166,1.684,1.6567,1.6266,1.5965,1.5872,1.5825,1.5825,1.5825,1.5825,1.5825,1.5825,1.5825,1.5825,1.5825,1.5825,1.5825,1.5825,1.5825,1.5825,1.5825,1.5825,1.5825,1.5825,1.5825,1.5825,1.5825,1.5825,1.5825,1.5825,1.5825,1.5825,1.5825,1.5825,1.5825,1.5825,1.5825,1.5825,1.5825,1.5825,1.5825,1.5778,1.573,1.5594,1.5499,1.5356,1.522,1.5077,1.5124,1.5267,1.5363,1.5369,1.5607,1.5716,1.5996,1.6182,1.6567,1.6867,1.7134,1.744,1.7554,1.7589,1.7589,1.7589,1.7589,1.7589,1.7589,1.7589,1.7589,1.7589,1.7589,1.7589,1.7589,1.7641,1.774,1.8108,1.8503,1.8814,1.9297,1.9939,2.062,2.1332,2.2253,2.3371,1.8951,1.8871,1.8308,1.8049,1.7949,1.7762,1.7635,1.7595,1.7589,1.7589,1.7589,1.7589,1.7589,1.7589,1.7589,1.7589,1.7589,1.7589,1.7589,1.7589,1.7589,1.7589,1.7589,1.7589,1.7589,1.7589,1.7589,1.7589,1.7589,1.7589,1.7507,1.7226,1.6901,1.6573,1.6339,1.6046,1.5838,1.5832,1.5825,1.5825,1.5825,1.5825,1.5825,1.5825,1.5825,1.5825,1.5825,1.5825,1.5825,1.5825,1.5825,1.5825,1.5825,1.5825,1.5825,1.5825,1.5825,1.5825,1.5825,1.5825,1.5825,1.5825,1.5825,1.5825,1.5825,1.5825,1.5825,1.5825,1.5825,1.5825,1.5825,1.5784,1.5689,1.5594,1.5445,1.5309,1.5172,1.4927,1.479,1.4785,1.4936,1.5032,1.5127,1.5367,1.5632,1.5943,1.6312,1.6697,1.7058,1.732,1.7494,1.7542,1.7589,1.7589,1.7589,1.7589,1.7589,1.7589,1.7589,1.7589,1.7589,1.7589,1.7589,1.7589,1.7589,1.7799,1.8213,1.8576,1.8886,1.9495,2.0209,2.0854,2.1483,2.2537,2.3677,1.8368,1.8348,1.8095,1.7889,1.7776,1.7635,1.7589,1.7589,1.7589,1.7589,1.7589,1.7589,1.7589,1.7589,1.7589,1.7589,1.7589,1.7589,1.7589,1.7589,1.7589,1.7589,1.7589,1.7589,1.7589,1.7589,1.7589,1.7589,1.7589,1.7575,1.7495,1.7427,1.7094,1.682,1.6493,1.6219,1.6005,1.5885,1.5825,1.5825,1.5825,1.5825,1.5825,1.5825,1.5825,1.5825,1.5825,1.5825,1.5825,1.5825,1.5825,1.5825,1.5825,1.5825,1.5825,1.5825,1.5825,1.5825,1.5825,1.5825,1.5825,1.5825,1.5825,1.5825,1.5825,1.5825,1.5825,1.5825,1.5825,1.5825,1.5778,1.5683,1.5588,1.5493,1.5255,1.507,1.4879,1.464,1.4502,1.4509,1.4631,1.4837,1.5094,1.5431,1.5765,1.6134,1.6513,1.6897,1.7154,1.7407,1.7534,1.7569,1.7589,1.7589,1.7589,1.7589,1.7589,1.7589,1.7589,1.7589,1.7589,1.7589,1.7589,1.7589,1.7589,1.7898,1.8318,1.8524,1.8752,1.9575,2.0496,2.1067,2.1693,2.2863,2.3911,1.7949,1.7882,1.7929,1.7796,1.7589,1.7589,1.7589,1.7589,1.7589,1.7589,1.7589,1.7589,1.7589,1.7589,1.7589,1.7589,1.7589,1.7589,1.7589,1.7589,1.7589,1.7589,1.7589,1.7589,1.7589,1.7589,1.7589,1.7589,1.7589,1.7582,1.7582,1.7569,1.73,1.6974,1.67,1.6393,1.6119,1.5845,1.5825,1.5825,1.5825,1.5825,1.5825,1.5825,1.5825,1.5825,1.5825,1.5825,1.5825,1.5825,1.5825,1.5825,1.5825,1.5825,1.5825,1.5825,1.5825,1.5825,1.5825,1.5825,1.5825,1.5825,1.5825,1.5825,1.5825,1.5825,1.5825,1.5825,1.5825,1.5825,1.5778,1.5635,1.5499,1.5261,1.5022,1.4783,1.4598,1.4466,1.4449,1.4558,1.4673,1.4849,1.5152,1.5607,1.5921,1.6252,1.6688,1.711,1.7308,1.7514,1.7568,1.7589,1.7589,1.7589,1.7589,1.7589,1.7589,1.7589,1.7589,1.7589,1.7589,1.7589,1.7589,1.7589,1.7641,1.7957,1.8325,1.8464,1.8699,1.9684,2.0552,2.1158,2.1961,2.3094,2.4167,1.7876,1.7615,1.7622,1.7615,1.7589,1.7589,1.7589,1.7589,1.7589,1.7589,1.7589,1.7589,1.7589,1.7589,1.7589,1.7589,1.7589,1.7589,1.7589,1.7589,1.7589,1.7589,1.7589,1.7589,1.7589,1.7589,1.7589,1.7589,1.7589,1.7589,1.7589,1.7601,1.7393,1.7027,1.6727,1.6453,1.6132,1.5885,1.5825,1.5825,1.5825,1.5825,1.5825,1.5825,1.5825,1.5825,1.5825,1.5825,1.5825,1.5825,1.5825,1.5825,1.5825,1.5825,1.5825,1.5825,1.5825,1.5825,1.5825,1.5825,1.5825,1.5825,1.5825,1.5825,1.5825,1.5825,1.5825,1.5825,1.5825,1.5784,1.5737,1.5594,1.5363,1.5118,1.4831,1.464,1.4466,1.4473,1.4461,1.463,1.4817,1.5022,1.5242,1.5661,1.5979,1.6304,1.6691,1.7107,1.7422,1.7594,1.7608,1.7589,1.7589,1.7589,1.7589,1.7589,1.7589,1.7589,1.7589,1.7589,1.7589,1.7589,1.7589,1.7694,1.7747,1.8062,1.8352,1.8601,1.9056,1.9881,2.0716,2.142,2.2228,2.3295,2.4342,1.7695,1.7589,1.7589,1.7589,1.7589,1.7589,1.7589,1.7589,1.7589,1.7589,1.7589,1.7589,1.7589,1.7589,1.7589,1.7589,1.7589,1.7589,1.7589,1.7589,1.7589,1.7589,1.7589,1.7589,1.7589,1.7589,1.7589,1.7589,1.7589,1.7589,1.7589,1.7588,1.7494,1.7313,1.7005,1.6506,1.6139,1.5919,1.5832,1.5825,1.5825,1.5825,1.5825,1.5825,1.5825,1.5825,1.5825,1.5825,1.5825,1.5825,1.5825,1.5825,1.5825,1.5825,1.5825,1.5825,1.5825,1.5825,1.5825,1.5825,1.5825,1.5825,1.5825,1.5825,1.5825,1.5825,1.5825,1.5825,1.5778,1.5737,1.5594,1.5404,1.5124,1.4885,1.464,1.4448,1.4419,1.4443,1.4612,1.4811,1.5071,1.5312,1.5521,1.5719,1.599,1.6274,1.6701,1.7141,1.743,1.7589,1.7589,1.7589,1.7589,1.7589,1.7589,1.7589,1.7589,1.7589,1.7589,1.7589,1.7589,1.7589,1.7641,1.7694,1.7886,1.8197,1.8478,1.8787,1.9356,2.0117,2.1016,2.1882,2.2696,2.3504,2.4406,1.7589,1.7589,1.7589,1.7589,1.7589,1.7589,1.7589,1.7589,1.7589,1.7589,1.7589,1.7589,1.7589,1.7589,1.7589,1.7589,1.7589,1.7589,1.7589,1.7589,1.7589,1.7589,1.7589,1.7589,1.7589,1.7589,1.7589,1.7589,1.7589,1.7589,1.7589,1.7589,1.7569,1.744,1.7112,1.6636,1.6166,1.6012,1.5865,1.5832,1.5825,1.5825,1.5825,1.5825,1.5825,1.5825,1.5825,1.5825,1.5825,1.5825,1.5825,1.5825,1.5825,1.5825,1.5825,1.5825,1.5825,1.5825,1.5825,1.5825,1.5825,1.5825,1.5825,1.5825,1.5825,1.5825,1.5825,1.5778,1.573,1.5635,1.5499,1.5213,1.4981,1.4742,1.4544,1.4364,1.4528,1.4588,1.4805,1.5016,1.5264,1.5481,1.5638,1.5812,1.6094,1.6408,1.6837,1.7206,1.7496,1.7589,1.7589,1.7589,1.7589,1.7589,1.7589,1.7589,1.7589,1.7589,1.7589,1.7589,1.7589,1.7589,1.7635,1.7687,1.7906,1.828,1.8698,1.9066,1.9646,2.0223,2.1181,2.2114,2.3039,2.3857,2.4462,1.7589,1.7589,1.7589,1.7589,1.7589,1.7589,1.7589,1.7589,1.7589,1.7589,1.7589,1.7589,1.7589,1.7589,1.7589,1.7589,1.7589,1.7589,1.7589,1.7589,1.7589,1.7589,1.7589,1.7589,1.7589,1.7589,1.7589,1.7589,1.7589,1.7589,1.7589,1.7589,1.7569,1.7442,1.7172,1.6636,1.6348,1.6261,1.5972,1.5899,1.5825,1.5825,1.5825,1.5825,1.5825,1.5825,1.5825,1.5825,1.5825,1.5825,1.5825,1.5825,1.5825,1.5825,1.5825,1.5825,1.5825,1.5825,1.5825,1.5825,1.5825,1.5825,1.5825,1.5825,1.5825,1.5825,1.5825,1.5778,1.5683,1.554,1.5302,1.5064,1.4831,1.4652,1.4412,1.4413,1.4582,1.4841,1.5071,1.5228,1.5396,1.5584,1.5753,1.5927,1.618,1.6518,1.6955,1.7279,1.7483,1.7589,1.7589,1.7589,1.7589,1.7589,1.7589,1.7589,1.7589,1.7589,1.7589,1.7589,1.7589,1.7589,1.7635,1.7648,1.7988,1.8411,1.8893,1.9429,2.0142,2.0859,2.1474,2.233,2.3287,2.408,2.4573,1.7589,1.7589,1.7589,1.7589,1.7589,1.7589,1.7589,1.7589,1.7589,1.7589,1.7589,1.7589,1.7589,1.7589,1.7589,1.7589,1.7589,1.7589,1.7589,1.7589,1.7589,1.7589,1.7589,1.7589,1.7589,1.7589,1.7589,1.7589,1.7589,1.7589,1.7589,1.7589,1.7569,1.7467,1.7246,1.6918,1.677,1.6388,1.6152,1.6046,1.5858,1.5832,1.5825,1.5825,1.5825,1.5825,1.5825,1.5825,1.5825,1.5825,1.5825,1.5825,1.5825,1.5825,1.5825,1.5825,1.5825,1.5825,1.5825,1.5825,1.5825,1.5825,1.5825,1.5825,1.5825,1.5825,1.5825,1.573,1.5588,1.5452,1.522,1.4927,1.47,1.4551,1.4407,1.4558,1.4757,1.5101,1.5366,1.5457,1.5602,1.5704,1.5849,1.5885,1.6099,1.6311,1.669,1.7014,1.7279,1.7483,1.7582,1.7589,1.7589,1.7589,1.7589,1.7589,1.7589,1.7589,1.7589,1.7589,1.7589,1.7609,1.7722,1.7802,1.8177,1.8569,1.9227,1.9952,2.0828,2.1583,2.19,2.2505,2.3464,2.408,2.4462,1.7589,1.7589,1.7589,1.7589,1.7589,1.7589,1.7589,1.7589,1.7589,1.7589,1.7589,1.7589,1.7589,1.7589,1.7589,1.7589,1.7589,1.7589,1.7589,1.7589,1.7589,1.7589,1.7589,1.7589,1.7589,1.7589,1.7589,1.7589,1.7589,1.7589,1.7589,1.7589,1.7582,1.7488,1.7367,1.7206,1.7012,1.6663,1.6489,1.6172,1.6012,1.5919,1.5825,1.5825,1.5825,1.5825,1.5825,1.5825,1.5825,1.5825,1.5825,1.5825,1.5825,1.5825,1.5825,1.5825,1.5825,1.5825,1.5825,1.5825,1.5825,1.5825,1.5825,1.5825,1.5825,1.5825,1.5825,1.573,1.5547,1.5315,1.5083,1.4838,1.4599,1.4401,1.4558,1.4708,1.5034,1.5378,1.5535,1.5638,1.5716,1.5825,1.5885,1.5945,1.5998,1.6205,1.6365,1.6743,1.7067,1.7325,1.7529,1.7589,1.7589,1.7589,1.7589,1.7589,1.7589,1.7589,1.7609,1.7635,1.7662,1.7702,1.7856,1.8023,1.832,1.8796,1.964,2.043,2.1156,2.165,2.1972,2.2732,2.3689,2.408,2.4359,1.7589,1.7589,1.7589,1.7589,1.7589,1.7589,1.7589,1.7589,1.7589,1.7589,1.7589,1.7589,1.7589,1.7589,1.7589,1.7589,1.7589,1.7589,1.7589,1.7589,1.7589,1.7589,1.7589,1.7589,1.7589,1.7589,1.7589,1.7589,1.7589,1.7589,1.7589,1.7589,1.7589,1.7542,1.7507,1.7387,1.7206,1.6965,1.6636,1.6339,1.6172,1.5965,1.5858,1.5825,1.5825,1.5825,1.5825,1.5825,1.5825,1.5825,1.5825,1.5825,1.5825,1.5825,1.5825,1.5825,1.5825,1.5825,1.5825,1.5825,1.5825,1.5825,1.5825,1.5825,1.5825,1.5825,1.5778,1.5642,1.5404,1.522,1.5035,1.475,1.4461,1.4545,1.4702,1.4974,1.5324,1.5553,1.5668,1.5759,1.5825,1.5885,1.5885,1.5885,1.5945,1.5998,1.6205,1.653,1.6908,1.7173,1.7378,1.7589,1.7589,1.7589,1.7589,1.7595,1.7689,1.7716,1.7716,1.7742,1.7762,1.7889,1.8116,1.831,1.8486,1.8999,1.985,2.0622,2.1316,2.1717,2.2051,2.2732,2.3632,2.3865,2.4192,1.7589,1.7589,1.7589,1.7589,1.7589,1.7589,1.7589,1.7589,1.7589,1.7589,1.7589,1.7589,1.7589,1.7589,1.7589,1.7589,1.7589,1.7589,1.7589,1.7589,1.7589,1.7589,1.7589,1.7589,1.7589,1.7589,1.7589,1.7589,1.7589,1.7589,1.7589,1.7589,1.7589,1.7589,1.7555,1.7502,1.7393,1.7166,1.6754,1.6506,1.6253,1.5999,1.5885,1.5825,1.5825,1.5825,1.5825,1.5825,1.5825,1.5825,1.5825,1.5825,1.5825,1.5825,1.5825,1.5825,1.5825,1.5825,1.5825,1.5825,1.5825,1.5825,1.5825,1.5825,1.5825,1.5778,1.5737,1.5594,1.5315,1.5131,1.4917,1.4672,1.4558,1.4696,1.4883,1.5179,1.5505,1.568,1.5789,1.5819,1.5885,1.5885,1.5885,1.5885,1.5885,1.5945,1.6051,1.6371,1.669,1.6961,1.7272,1.7536,1.7602,1.7602,1.7615,1.7622,1.7756,1.7849,1.7889,1.7983,1.8136,1.8283,1.845,1.8673,1.9016,1.9482,2.0059,2.0759,2.1375,2.1774,2.2165,2.2845,2.3464,2.3745,2.4248,1.7589,1.7589,1.7589,1.7589,1.7589,1.7589,1.7589,1.7589,1.7589,1.7589,1.7589,1.7589,1.7589,1.7589,1.7589,1.7589,1.7589,1.7589,1.7589,1.7589,1.7589,1.7589,1.7589,1.7589,1.7589,1.7589,1.7589,1.7589,1.7589,1.7589,1.7589,1.7589,1.7589,1.7589,1.7575,1.7555,1.7541,1.7293,1.6947,1.6653,1.6366,1.6052,1.5879,1.5825,1.5825,1.5825,1.5825,1.5825,1.5825,1.5825,1.5825,1.5825,1.5825,1.5825,1.5825,1.5825,1.5825,1.5825,1.5825,1.5825,1.5825,1.5825,1.5825,1.5825,1.5825,1.5778,1.573,1.5635,1.5309,1.5041,1.484,1.4667,1.4734,1.4847,1.5107,1.5372,1.5584,1.5789,1.5849,1.5873,1.5885,1.5885,1.5885,1.5885,1.5885,1.5885,1.5998,1.6158,1.6477,1.6743,1.716,1.7529,1.7602,1.7622,1.7669,1.7789,1.7956,1.8116,1.8196,1.831,1.8497,1.8637,1.8764,1.9192,1.9702,2.0035,2.0235,2.0773,2.1375,2.1774,2.2222,2.2788,2.3352,2.3801,2.4415,1.7589,1.7589,1.7589,1.7589,1.7589,1.7589,1.7589,1.7589,1.7589,1.7589,1.7589,1.7589,1.7589,1.7589,1.7589,1.7589,1.7589,1.7589,1.7589,1.7589,1.7589,1.7589,1.7589,1.7589,1.7589,1.7589,1.7589,1.7589,1.7589,1.7589,1.7589,1.7589,1.7589,1.7589,1.7589,1.7589,1.7542,1.7442,1.7088,1.6747,1.6553,1.6213,1.5804,1.5825,1.5825,1.5825,1.5825,1.5825,1.5825,1.5825,1.5825,1.5825,1.5825,1.5825,1.5825,1.5825,1.5825,1.5825,1.5825,1.5825,1.5825,1.5825,1.5825,1.5825,1.5825,1.5825,1.5778,1.5588,1.5309,1.5111,1.4969,1.4802,1.48,1.5016,1.5294,1.5529,1.5728,1.5855,1.5867,1.5885,1.5885,1.5885,1.5885,1.5885,1.5885,1.5885,1.5939,1.6051,1.6355,1.6621,1.7051,1.7523,1.7669,1.7822,1.8003,1.8123,1.825,1.8377,1.8484,1.8631,1.8798,1.8931,1.9058,1.9422,1.9825,2.0069,2.0378,2.091,2.1375,2.1888,2.2279,2.2732,2.3239,2.3745,2.4526,1.7589,1.7589,1.7589,1.7589,1.7589,1.7589,1.7589,1.7589,1.7589,1.7589,1.7589,1.7589,1.7589,1.7589,1.7589,1.7589,1.7589,1.7589,1.7589,1.7589,1.7589,1.7589,1.7589,1.7589,1.7589,1.7589,1.7589,1.7589,1.7589,1.7589,1.7589,1.7589,1.7589,1.7589,1.7589,1.7589,1.7575,1.7555,1.7281,1.6927,1.67,1.6406,1.6092,1.5932,1.5791,1.5825,1.5825,1.5825,1.5825,1.5825,1.5825,1.5825,1.5825,1.5825,1.5825,1.5825,1.5825,1.5825,1.5825,1.5825,1.5825,1.5825,1.5825,1.5825,1.5825,1.5825,1.573,1.5547,1.536,1.5223,1.5107,1.4961,1.4896,1.5191,1.5469,1.5674,1.5867,1.5873,1.5885,1.5885,1.5885,1.5885,1.5885,1.5885,1.5885,1.5885,1.5885,1.6016,1.6376,1.6693,1.7146,1.7538,1.7848,1.8009,1.827,1.843,1.8544,1.8677,1.8798,1.8945,1.9142,1.9152,1.9276,1.9503,1.9809,2.0097,2.0443,2.0859,2.1375,2.1881,2.2279,2.2619,2.3296,2.3865,2.4637,1.7589,1.7589,1.7589,1.7589,1.7589,1.7589,1.7589,1.7589,1.7589,1.7589,1.7589,1.7589,1.7589,1.7589,1.7589,1.7589,1.7589,1.7589,1.7589,1.7589,1.7589,1.7589,1.7589,1.7589,1.7589,1.7589,1.7589,1.7589,1.7589,1.7589,1.7589,1.7589,1.7589,1.7589,1.7589,1.7589,1.7589,1.7575,1.7454,1.7239,1.6874,1.6533,1.6246,1.6039,1.5919,1.5872,1.5825,1.5825,1.5825,1.5825,1.5825,1.5825,1.5825,1.5825,1.5825,1.5825,1.5825,1.5825,1.5825,1.5825,1.5825,1.5825,1.5825,1.5825,1.5825,1.5825,1.5778,1.5655,1.5647,1.5528,1.5442,1.5295,1.5283,1.5454,1.5608,1.5801,1.5873,1.5879,1.5885,1.5885,1.5885,1.5885,1.5885,1.5885,1.5885,1.5885,1.5885,1.6,1.6354,1.6792,1.7228,1.7631,1.7967,1.828,1.8604,1.8731,1.8818,1.8958,1.9078,1.9158,1.9296,1.9357,1.9482,1.9591,1.9815,2.0155,2.0507,2.0852,2.1375,2.1938,2.2222,2.2505,2.3183,2.3921,2.4637,1.7589,1.7589,1.7589,1.7589,1.7589,1.7589,1.7589,1.7589,1.7589,1.7589,1.7589,1.7589,1.7589,1.7589,1.7589,1.7589,1.7589,1.7589,1.7589,1.7589,1.7589,1.7589,1.7589,1.7589,1.7589,1.7589,1.7589,1.7589,1.7589,1.7589,1.7589,1.7589,1.7589,1.7589,1.7589,1.7589,1.7589,1.7589,1.7554,1.7474,1.7132,1.673,1.6489,1.6233,1.6046,1.5885,1.5852,1.5825,1.5825,1.5825,1.5825,1.5825,1.5825,1.5825,1.5825,1.5825,1.5825,1.5825,1.5825,1.5825,1.5825,1.5825,1.5825,1.5832,1.5832,1.5879,1.5831,1.589,1.5888,1.5849,1.5769,1.5676,1.5669,1.567,1.5799,1.5867,1.5879,1.5885,1.5885,1.5885,1.5885,1.5885,1.5885,1.5885,1.5891,1.5891,1.5976,1.6097,1.6357,1.6864,1.7402,1.7828,1.8249,1.8592,1.8901,1.8991,1.9052,1.9138,1.9245,1.9377,1.9424,1.9424,1.9424,1.954,1.9764,2.0155,2.05,2.0795,2.1368,2.1945,2.2165,2.2449,2.3247,2.3977,2.4582,1.7589,1.7589,1.7589,1.7589,1.7589,1.7589,1.7589,1.7589,1.7589,1.7589,1.7589,1.7589,1.7589,1.7589,1.7589,1.7589,1.7589,1.7589,1.7589,1.7589,1.7589,1.7589,1.7589,1.7589,1.7589,1.7589,1.7589,1.7589,1.7589,1.7589,1.7589,1.7589,1.7589,1.7589,1.7589,1.7589,1.7589,1.7589,1.7589,1.7574,1.7507,1.7139,1.6757,1.6509,1.6274,1.6039,1.5912,1.5832,1.5825,1.5825,1.5825,1.5825,1.5825,1.5825,1.5825,1.5825,1.5825,1.5825,1.5825,1.5825,1.5825,1.5825,1.5832,1.5804,1.5925,1.6079,1.6112,1.6151,1.617,1.6147,1.6029,1.5934,1.5925,1.5921,1.6039,1.5939,1.5885,1.5885,1.5885,1.5885,1.5885,1.5885,1.5885,1.5897,1.5916,1.5958,1.6103,1.6229,1.6472,1.695,1.7497,1.7976,1.8396,1.8884,1.9221,1.9219,1.9259,1.9397,1.9424,1.9424,1.9424,1.9424,1.9424,1.9482,1.9822,2.0213,2.0558,2.0795,2.1261,2.1782,2.2002,2.2392,2.3183,2.3913,2.4406]}]]